[[{"header":{"parameterUnit":"m.s-1","parameterCategory":1,"la1":30.6,"la2":29.2853,"lo1":-89.7004,"lo2":-87.6739,"dy":0.0162,"dx":0.0183,"nx":112,"ny":82,"refTime":"2023-05-30T12:00:00:Z","depth":0,"parameterNumber":2,"parameterNumberName":"U-component_of_WINDS"},"data":[0.0,0.0,0.0,0.0,0.0,0.0,0.0,0.0,0.0,0.0,0.0,0.0,0.0,0.0,0.0,0.0,0.0,0.0,0.0,0.0,0.0,0.0,0.0,0.0,0.0,0.0,0.0,0.0,0.0,0.0,0.0,0.0,0.0,0.0,0.0,0.0,0.0,0.0,0.0,0.0,0.0,0.0,0.0,0.0,0.0,0.0,0.0,0.0,0.0,0.0,0.0,0.0,0.0,0.0,0.0,0.0,0.0,0.0,0.0,0.0,0.0,0.0,0.0,0.0,0.0,0.0,0.0,0.0,0.0,0.0,0.0,0.0,0.0,0.0,0.0,0.0,0.0,0.0,0.0,0.0,0.0,0.0,0.0,0.0,0.0,0.0,0.0,0.0,0.0,0.0,-0.7786,-0.4141,-0.7311,-1.2404,-1.9109,-1.8574,-1.8191,-1.8981,0.0,0.0,0.0,0.0,0.0,0.0,0.0,0.0,0.0,0.0,0.0,0.0,0.0,0.0,0.0,0.0,0.0,0.0,0.0,0.0,0.0,0.0,0.0,0.0,0.0,0.0,0.0,0.0,0.0,0.0,0.0,0.0,0.0,0.0,0.0,0.0,0.0,0.0,0.0,0.0,0.0,0.0,0.0,0.0,0.0,0.0,0.0,0.0,0.0,0.0,0.0,0.0,0.0,0.0,0.0,0.0,0.0,0.0,0.0,0.0,0.0,0.0,0.0,0.0,0.0,0.0,0.0,0.0,0.0,0.0,0.0,0.0,0.0,0.0,0.0,0.0,0.0,0.0,0.0,0.0,0.0,0.0,0.0,0.0,0.0,0.0,0.0,0.0,0.0,0.0,0.0,0.0,0.0,0.0,0.0,0.0,0.0,0.0,0.0,0.0,0.0,0.0,0.0,0.0,-0.9755,-1.2316,-1.568,-1.8254,-1.9509,-1.9515,-1.9504,-1.9584,0.0,0.0,0.0,0.0,0.0,0.0,0.0,0.0,0.0,0.0,0.0,0.0,0.0,0.0,0.0,0.0,0.0,0.0,0.0,0.0,0.0,0.0,0.0,0.0,0.0,0.0,0.0,0.0,0.0,0.0,0.0,0.0,0.0,0.0,0.0,0.0,0.0,0.0,0.0,0.0,0.0,0.0,0.0,0.0,0.0,0.0,0.0,0.0,0.0,0.0,0.0,0.0,0.0,0.0,0.0,0.0,0.0,0.0,0.0,0.0,0.0,0.0,0.0,0.0,0.0,0.0,0.0,0.0,0.0,0.0,0.0,0.0,0.0,0.0,0.0,0.0,0.0,0.0,0.0,0.0,0.0,0.0,0.0,0.0,0.0,0.0,0.0,0.0,0.0,0.0,0.0,0.0,0.0,0.0,0.0,0.0,0.0,0.0,0.0,0.0,0.0,0.0,0.0,-1.1243,-1.3912,-1.6696,-1.9501,-2.1462,-2.2192,-2.2485,-2.2571,-2.2543,-2.0207,0.0,0.0,0.0,0.0,0.0,0.0,0.0,0.0,0.0,0.0,0.0,0.0,0.0,0.0,0.0,0.0,0.0,0.0,0.0,0.0,0.0,0.0,0.0,0.0,0.0,0.0,0.0,0.0,0.0,0.0,0.0,0.0,0.0,0.0,0.0,0.0,0.0,0.0,0.0,0.0,0.0,0.0,0.0,0.0,0.0,0.0,0.0,0.0,0.0,0.0,0.0,0.0,0.0,0.0,0.0,0.0,0.0,0.0,0.0,0.0,0.0,0.0,0.0,0.0,0.0,0.0,0.0,0.0,0.0,0.0,0.0,0.0,0.0,0.0,0.0,0.0,0.0,0.0,0.0,0.0,0.0,0.0,0.0,0.0,0.0,0.0,0.0,0.0,0.0,0.0,0.0,0.0,0.0,0.0,0.0,0.0,0.0,0.0,0.0,0.0,0.0,0.0,-1.4402,-1.6995,-1.908,-2.1288,-2.3285,-2.4892,-2.5264,-2.5523,-2.5764,-2.4676,0.0,0.0,0.0,0.0,0.0,0.0,0.0,0.0,0.0,0.0,0.0,0.0,0.0,0.0,0.0,0.0,0.0,0.0,0.0,0.0,0.0,0.0,0.0,0.0,0.0,0.0,0.0,0.0,0.0,0.0,0.0,0.0,0.0,0.0,0.0,0.0,0.0,0.0,0.0,0.0,0.0,0.0,0.0,0.0,0.0,0.0,0.0,0.0,0.0,0.0,0.0,0.0,0.0,0.0,0.0,0.0,0.0,0.0,0.0,0.0,0.0,0.0,0.0,0.0,0.0,0.0,0.0,0.0,0.0,0.0,0.0,0.0,0.0,0.0,0.0,0.0,0.0,0.0,0.0,0.0,0.0,0.0,0.0,0.0,0.0,0.0,0.0,0.0,0.0,0.0,0.0,0.0,0.0,0.0,0.0,0.0,0.0,0.0,0.0,0.0,0.0,0.0,-1.4576,-1.6748,-1.9626,-2.1595,-2.3763,-2.6399,-2.6663,-2.7184,-2.8355,-2.7073,0.0,0.0,0.0,0.0,0.0,0.0,0.0,0.0,0.0,0.0,0.0,0.0,0.0,0.0,0.0,0.0,0.0,0.0,0.0,0.0,0.0,0.0,0.0,0.0,0.0,0.0,0.0,0.0,0.0,0.0,0.0,0.0,0.0,0.0,0.0,0.0,0.0,0.0,0.0,0.0,0.0,0.0,0.0,0.0,0.0,0.0,0.0,0.0,0.0,0.0,0.0,0.0,0.0,0.0,0.0,0.0,0.0,0.0,0.0,0.0,0.0,0.0,0.0,0.0,0.0,0.0,0.0,0.0,0.0,0.0,0.0,0.0,0.0,0.0,0.0,0.0,0.0,0.0,0.0,0.0,0.0,0.0,0.0,0.0,0.0,0.0,0.0,0.0,0.0,0.0,0.0,0.0,0.0,0.0,0.0,0.0,0.0,0.0,0.0,0.0,0.0,0.0,-1.6547,-1.9079,-2.2056,-2.3583,-2.5554,-2.8445,-2.8994,-2.9444,-3.0083,0.0,0.0,0.0,0.0,0.0,0.0,0.0,0.0,0.0,0.0,0.0,0.0,0.0,0.0,0.0,0.0,0.0,0.0,0.0,0.0,0.0,0.0,0.0,0.0,0.0,0.0,0.0,0.0,0.0,0.0,0.0,0.0,0.0,0.0,0.0,0.0,0.0,0.0,0.0,0.0,0.0,0.0,0.0,0.0,0.0,0.0,0.0,0.0,0.0,0.0,0.0,0.0,0.0,0.0,0.0,0.0,0.0,0.0,0.0,0.0,0.0,0.0,0.0,0.0,0.0,0.0,0.0,0.0,0.0,0.0,0.0,0.0,0.0,0.0,0.0,0.0,0.0,0.0,0.0,0.0,0.0,0.0,0.0,0.0,0.0,0.0,0.0,0.0,0.0,0.0,0.0,0.0,0.0,0.0,0.0,0.0,0.0,0.0,0.0,0.0,0.0,0.0,-1.5084,-1.7922,-2.0801,-2.378,-2.5165,-2.7046,-2.9902,-3.0246,-3.0583,-3.1224,0.0,0.0,0.0,0.0,0.0,0.0,0.0,0.0,0.0,0.0,0.0,0.0,0.0,0.0,0.0,0.0,0.0,0.0,0.0,0.0,0.0,0.0,0.0,0.0,0.0,0.0,0.0,0.0,0.0,0.0,0.0,0.0,0.0,0.0,0.0,0.0,0.0,0.0,0.0,0.0,0.0,0.0,0.0,0.0,0.0,0.0,0.0,0.0,0.0,0.0,0.0,0.0,0.0,0.0,0.0,0.0,0.0,0.0,0.0,0.0,0.0,0.0,0.0,0.0,0.0,0.0,0.0,0.0,0.0,0.0,0.0,0.0,0.0,0.0,0.0,0.0,0.0,0.0,0.0,0.0,0.0,0.0,0.0,0.0,0.0,0.0,0.0,0.0,0.0,0.0,0.0,0.0,0.0,0.0,0.0,0.0,0.0,0.0,0.0,0.0,0.0,0.0,-1.5548,-1.8483,-2.1383,-2.4387,-2.6016,-2.7979,-3.0659,-3.0167,-3.0302,0.0,0.0,0.0,0.0,0.0,0.0,0.0,0.0,0.0,0.0,0.0,0.0,0.0,0.0,0.0,0.0,0.0,0.0,0.0,0.0,0.0,0.0,0.0,0.0,0.0,0.0,0.0,0.0,0.0,0.0,0.0,0.0,0.0,0.0,0.0,0.0,0.0,0.0,0.0,0.0,0.0,0.0,0.0,0.0,0.0,0.0,0.0,0.0,0.0,0.0,0.0,0.0,0.0,0.0,0.0,0.0,0.0,0.0,0.0,0.0,0.0,0.0,0.0,0.0,0.0,0.0,0.0,0.0,0.0,0.0,0.0,0.0,0.0,0.0,0.0,0.0,0.0,0.0,0.0,0.0,0.0,0.0,0.0,0.0,0.0,0.0,0.0,0.0,0.0,0.0,0.0,0.0,0.0,0.0,0.0,0.0,0.0,0.0,0.0,0.0,0.0,0.0,0.0,-1.6761,-1.9545,-2.2085,-2.4258,-2.5602,-2.7303,-2.9625,-3.0131,-3.0523,-3.0926,0.0,0.0,0.0,0.0,0.0,0.0,0.0,0.0,0.0,0.0,0.0,0.0,0.0,0.0,0.0,0.0,0.0,0.0,0.0,0.0,0.0,0.0,0.0,0.0,0.0,0.0,0.0,0.0,0.0,0.0,0.0,0.0,0.0,0.0,0.0,0.0,0.0,0.0,0.0,0.0,0.0,0.0,0.0,0.0,0.0,0.0,0.0,0.0,0.0,0.0,0.0,0.0,0.0,0.0,0.0,0.0,0.0,0.0,0.0,0.0,0.0,0.0,0.0,0.0,0.0,0.0,0.0,0.0,0.0,0.0,0.0,0.0,0.0,0.0,0.0,0.0,0.0,0.0,0.0,0.0,0.0,0.0,0.0,0.0,0.0,0.0,0.0,0.0,0.0,0.0,0.0,0.0,0.0,0.0,0.0,0.0,0.0,0.0,0.0,0.0,0.0,0.0,-1.7073,-2.007,-2.2483,-2.3823,-2.5247,-2.69,-2.8876,-2.9613,-2.9953,-2.9953,0.0,0.0,0.0,0.0,0.0,0.0,0.0,0.0,0.0,0.0,0.0,0.0,0.0,0.0,0.0,0.0,0.0,0.0,0.0,0.0,0.0,0.0,0.0,0.0,0.0,0.0,0.0,0.0,0.0,0.0,0.0,0.0,0.0,0.0,0.0,0.0,0.0,0.0,0.0,0.0,0.0,0.0,0.0,0.0,0.0,0.0,0.0,0.0,0.0,0.0,0.0,0.0,0.0,0.0,0.0,0.0,0.0,0.0,0.0,0.0,0.0,0.0,0.0,0.0,0.0,0.0,0.0,0.0,0.0,0.0,0.0,0.0,0.0,0.0,0.0,0.0,0.0,0.0,0.0,0.0,0.0,0.0,0.0,0.0,0.0,0.0,0.0,0.0,0.0,0.0,0.0,0.0,0.0,0.0,0.0,0.0,0.0,0.0,0.0,0.0,0.0,0.0,-1.718,-2.0338,-2.2679,-2.3219,-2.4935,-2.661,-2.8171,-2.87,-2.8952,-2.8994,0.0,0.0,0.0,0.0,0.0,0.0,0.0,0.0,0.0,0.0,0.0,0.0,0.0,0.0,0.0,0.0,0.0,0.0,0.0,0.0,0.0,0.0,0.0,0.0,0.0,0.0,0.0,0.0,0.0,0.0,0.0,0.0,0.0,0.0,0.0,0.0,0.0,0.0,0.0,0.0,0.0,0.0,0.0,0.0,0.0,0.0,0.0,0.0,0.0,0.0,0.0,0.0,0.0,0.0,0.0,0.0,0.0,0.0,0.0,0.0,-2.854,0.0,0.0,0.0,0.0,0.0,0.0,0.0,0.0,0.0,0.0,0.0,0.0,0.0,0.0,0.0,0.0,0.0,0.0,0.0,0.0,0.0,0.0,0.0,0.0,0.0,0.0,0.0,0.0,0.0,0.0,0.0,0.0,0.0,0.0,0.0,0.0,0.0,0.0,0.0,0.0,0.0,-2.0035,-2.1774,-2.2963,-2.3126,-2.4441,-2.5658,-2.6543,-2.7791,-2.8658,-2.8994,-2.8148,0.0,0.0,0.0,0.0,0.0,0.0,0.0,0.0,0.0,0.0,0.0,0.0,0.0,0.0,0.0,0.0,0.0,0.0,0.0,0.0,0.0,0.0,0.0,0.0,0.0,0.0,0.0,0.0,0.0,0.0,0.0,0.0,0.0,0.0,0.0,0.0,0.0,0.0,0.0,0.0,0.0,0.0,0.0,0.0,0.0,0.0,0.0,0.0,0.0,0.0,0.0,0.0,0.0,0.0,0.0,0.0,0.0,0.0,0.0,0.0,-3.1441,0.0,0.0,0.0,0.0,0.0,0.0,0.0,0.0,0.0,0.0,0.0,0.0,0.0,0.0,0.0,0.0,0.0,0.0,0.0,0.0,0.0,0.0,0.0,0.0,0.0,0.0,0.0,0.0,0.0,0.0,0.0,0.0,0.0,0.0,0.0,0.0,0.0,0.0,0.0,0.0,-2.0673,-2.242,-2.3414,-2.3145,-2.4628,-2.5771,-2.6109,-2.738,-2.8076,-2.7908,-2.7715,0.0,0.0,0.0,0.0,0.0,0.0,0.0,0.0,0.0,0.0,0.0,0.0,0.0,0.0,0.0,0.0,0.0,0.0,0.0,0.0,0.0,0.0,0.0,0.0,0.0,0.0,0.0,0.0,0.0,0.0,0.0,0.0,0.0,0.0,0.0,0.0,0.0,0.0,0.0,0.0,0.0,0.0,0.0,0.0,0.0,0.0,0.0,0.0,0.0,0.0,0.0,0.0,0.0,-3.2609,-3.2571,-3.2043,-3.3119,-3.3583,-3.3534,-3.3958,-3.4303,-3.4527,-3.3226,0.0,0.0,0.0,0.0,0.0,0.0,0.0,0.0,0.0,0.0,0.0,0.0,0.0,0.0,0.0,0.0,0.0,0.0,0.0,0.0,0.0,0.0,0.0,0.0,-3.0083,-2.9766,-2.636,0.0,0.0,0.0,0.0,0.0,0.0,0.0,0.0,0.0,0.0,0.0,-2.0738,-2.2765,-2.3898,-2.3323,-2.496,-2.6117,-2.6177,-2.7198,-2.7553,-2.6986,-2.7285,-2.6953,0.0,0.0,0.0,0.0,0.0,0.0,0.0,0.0,0.0,0.0,0.0,0.0,0.0,0.0,0.0,0.0,0.0,0.0,0.0,0.0,0.0,0.0,0.0,0.0,0.0,0.0,0.0,0.0,0.0,0.0,0.0,0.0,-2.6493,-2.5936,0.0,0.0,0.0,0.0,0.0,0.0,0.0,0.0,0.0,0.0,0.0,0.0,0.0,-3.2914,-3.3978,-3.41,-3.4125,-3.4125,-3.4182,-3.4197,-3.4075,-3.4284,-3.4669,-3.5329,-3.6021,0.0,-3.4939,-3.3689,0.0,0.0,0.0,0.0,0.0,0.0,0.0,0.0,0.0,0.0,0.0,0.0,0.0,0.0,0.0,0.0,0.0,0.0,0.0,0.0,0.0,0.0,-3.0067,-3.0128,-3.0737,-3.1191,0.0,-2.8159,-2.4986,-2.1993,-2.068,0.0,0.0,0.0,0.0,0.0,0.0,0.0,-2.2337,-2.3363,-2.409,-2.3994,-2.4995,-2.5814,-2.6147,-2.6914,-2.7539,-2.7878,-2.6556,-2.627,-2.7498,-2.5096,0.0,0.0,0.0,0.0,0.0,0.0,0.0,0.0,0.0,0.0,0.0,0.0,0.0,0.0,0.0,0.0,0.0,0.0,0.0,0.0,0.0,0.0,0.0,0.0,0.0,0.0,0.0,0.0,0.0,-2.5005,-2.6975,-2.5729,-2.4478,-2.2577,0.0,0.0,0.0,0.0,0.0,0.0,0.0,0.0,0.0,-3.1106,-3.2685,-3.398,-3.5052,-3.5049,-3.4787,-3.4288,-3.4224,-3.3915,-3.3434,-3.3434,-3.3615,-3.3938,-3.4823,-3.463,-3.3724,-3.4353,-3.4151,-3.32,0.0,0.0,0.0,0.0,-2.8079,-2.8781,-2.9697,-2.9965,-2.9748,-2.8709,0.0,0.0,0.0,0.0,0.0,0.0,0.0,0.0,0.0,0.0,-2.8493,-2.8968,-2.9389,-2.9548,-2.9224,-2.8283,-2.7,0.0,-2.3901,-2.2655,-2.1688,0.0,0.0,0.0,0.0,-2.3042,-2.3053,-2.4075,-2.4949,-2.5288,-2.5622,-2.6049,-2.6657,-2.6926,-2.7054,-2.7031,-2.6644,-2.6626,-2.7015,-2.6112,-2.5092,0.0,0.0,0.0,0.0,0.0,0.0,0.0,0.0,0.0,0.0,0.0,0.0,0.0,0.0,0.0,0.0,0.0,0.0,0.0,0.0,0.0,0.0,0.0,0.0,0.0,0.0,0.0,0.0,-2.5708,-2.7171,-2.5897,-2.5128,-2.3533,0.0,0.0,0.0,0.0,0.0,0.0,-2.4268,-2.7101,-2.9633,-3.1589,-3.3256,-3.4452,-3.5167,-3.5156,-3.4781,-3.4085,-3.3753,-3.331,-3.2593,-3.2593,-3.2593,-3.2664,-3.331,-3.3241,-3.2693,-3.4322,-3.4418,-3.3317,-3.126,-3.0089,-2.9592,-2.9164,-2.9236,-2.9653,-3.067,-3.08,-3.035,-2.9369,-2.8395,-2.7138,-2.482,0.0,0.0,0.0,0.0,-2.5004,-2.58,-2.6248,-2.6762,-2.7659,-2.7967,-2.7885,-2.7426,-2.7676,-2.7811,0.0,-2.581,-2.4684,-2.394,0.0,0.0,0.0,0.0,-2.3389,-2.3437,-2.4582,-2.5632,-2.6265,-2.616,-2.6269,-2.6825,-2.6765,-2.6597,-2.6281,-2.6529,-2.6619,-2.6396,-2.6509,-2.5681,-2.3794,0.0,0.0,0.0,0.0,0.0,0.0,0.0,0.0,0.0,0.0,0.0,0.0,0.0,0.0,0.0,0.0,0.0,0.0,0.0,0.0,0.0,0.0,0.0,0.0,0.0,0.0,0.0,0.0,0.0,-2.7591,-2.6889,0.0,0.0,0.0,0.0,-1.8267,-2.065,-2.2777,-2.4258,-2.6247,-2.8355,-3.0432,-3.2255,-3.344,-3.4047,-3.409,-3.4037,-3.3969,-3.3087,-3.2664,-3.2593,-3.2593,-3.2593,-3.2593,-3.2664,-3.2664,-3.2623,-3.3029,-3.2624,-3.1557,-3.0084,-2.9724,-3.0,-2.8638,-2.8849,-2.977,-2.9601,-2.9834,-3.0197,-3.0171,-2.8861,-2.7155,-2.6017,-2.531,0.0,0.0,-2.3925,-2.4408,-2.4908,-2.5301,-2.5711,-2.6711,-2.7149,-2.7357,-2.7343,-2.7357,-2.7134,0.0,-2.5654,-2.5092,-2.4784,0.0,-2.3654,-2.313,-2.3623,-2.396,-2.3637,-2.4577,-2.559,-2.6315,-2.6267,-2.6182,-2.623,-2.623,-2.6271,-2.6373,-2.5773,-2.5682,-2.6294,-2.5057,-2.4272,-2.4089,-2.3293,0.0,0.0,0.0,0.0,0.0,0.0,0.0,0.0,0.0,0.0,0.0,0.0,0.0,0.0,0.0,0.0,0.0,0.0,0.0,0.0,0.0,0.0,0.0,0.0,0.0,0.0,0.0,0.0,-2.6473,-2.5882,0.0,-2.1829,-2.1883,-2.1824,-2.1268,-2.3611,-2.5431,-2.6347,-2.8222,-2.9758,-3.0863,-3.2162,-3.2891,-3.3101,-3.3101,-3.282,-3.2177,-3.1888,-3.1402,-3.0784,-3.0784,-3.0784,-3.0846,-3.1476,-3.1328,-3.0833,-3.1613,-3.1649,-3.1275,-3.0785,-3.0277,-2.9796,-2.8565,-2.8348,-2.8627,-2.7801,-2.7472,-2.7234,-2.6629,-2.5667,-2.4757,-2.4402,-2.3746,-2.2982,-2.2649,-2.2671,-2.2767,-2.2743,-2.2933,-2.3396,-2.4042,-2.3577,-2.3133,-2.3725,-2.3393,-2.2884,-2.2618,-2.3986,-2.5127,-2.4835,-2.4054,-2.3502,-2.3665,-2.4012,-2.4046,-2.3458,-2.4152,-2.4998,-2.5614,-2.5665,-2.5621,-2.563,-2.6031,-2.6099,-2.5638,-2.5806,-2.6145,-2.6705,-2.6252,-2.5612,-2.4774,-2.3771,-2.2476,0.0,0.0,0.0,0.0,0.0,0.0,0.0,0.0,0.0,0.0,0.0,0.0,0.0,0.0,0.0,0.0,0.0,0.0,0.0,0.0,0.0,0.0,0.0,0.0,0.0,-2.5228,-2.6281,-2.5159,-2.497,-2.4143,-2.2307,-2.2598,-2.306,-2.3292,-2.5351,-2.6894,-2.7651,-2.9303,-3.0394,-3.0758,-3.1609,-3.2105,-3.2105,-3.2105,-3.1815,-3.118,-3.0908,-3.0419,-2.9792,-2.9365,-2.9456,-2.9779,-2.9666,-2.9512,-2.9275,-2.9487,-2.9603,-2.9616,-3.0012,-2.9743,-2.9106,-2.7936,-2.7522,-2.7429,-2.6608,-2.5981,-2.5464,-2.4801,-2.4136,-2.3459,-2.337,-2.2573,-2.1722,-2.1558,-2.1404,-2.1295,-2.1366,-2.1321,-2.1439,-2.2136,-2.1403,-2.0782,-2.1365,-2.0974,-2.059,-2.059,-2.2267,-2.3703,-2.3776,-2.3182,-2.3009,-2.3854,-2.3914,-2.3865,-2.39,-2.4198,-2.4586,-2.5265,-2.5121,-2.5019,-2.5015,-2.5552,-2.5726,-2.5204,-2.5455,-2.5855,-2.6414,-2.5853,-2.5116,-2.4304,-2.2979,-2.1912,-2.1013,0.0,0.0,0.0,0.0,0.0,0.0,0.0,0.0,0.0,0.0,0.0,0.0,0.0,0.0,0.0,0.0,0.0,0.0,0.0,0.0,0.0,0.0,0.0,-2.2835,-2.3559,-2.4196,-2.4051,-2.4448,-2.419,-2.2635,-2.2898,-2.3458,-2.4168,-2.5628,-2.6964,-2.8004,-2.9106,-2.9714,-2.9714,-3.0607,-3.1018,-3.1018,-3.1018,-3.1018,-3.1018,-3.0126,-2.9714,-2.9624,-2.8518,-2.8688,-2.9546,-2.7464,-2.7128,-2.7936,-2.6964,-2.6483,-2.6637,-2.7602,-2.8016,-2.7924,-2.6883,-2.6389,-2.63,-2.5786,-2.5385,-2.5071,-2.5048,-2.4323,-2.3366,-2.2913,-2.2036,-2.1123,-2.0674,-2.0254,-2.0147,-2.1062,-2.0603,-2.0128,-2.1108,-2.0938,-2.0526,-2.0526,-2.0526,-2.0526,-2.0526,-2.0526,-2.0782,-2.169,-2.1877,-2.2306,-2.3754,-2.3428,0.0,-2.4878,-2.4577,-2.4523,-2.5245,-2.4764,-2.4339,-2.4299,-2.4847,-2.5119,-2.5147,-2.46,-2.4636,-2.5207,-2.3619,-2.2737,-2.2666,-2.0834,-2.0115,-2.0552,0.0,0.0,0.0,0.0,0.0,0.0,0.0,0.0,0.0,0.0,0.0,0.0,0.0,0.0,0.0,0.0,0.0,0.0,0.0,0.0,0.0,-2.1668,-2.2645,-2.3635,-2.4324,-2.4588,-2.4573,-2.3985,-2.3411,-2.2978,-2.375,-2.4405,-2.4609,-2.5815,-2.6637,-2.6964,-2.7221,-2.7395,-2.7395,-2.7671,-2.7808,-2.7808,-2.7808,-2.7808,-2.7808,-2.7533,-2.7395,-2.7383,-2.7046,-2.7128,-2.7383,-2.673,-2.6637,-2.6883,-2.6637,-2.6483,-2.6565,-2.6801,-2.6964,-2.6789,-2.5714,-2.4598,-2.3479,-2.2696,-2.2361,-2.2278,-2.1941,-2.1673,-2.1281,-2.0841,-2.072,-2.0654,-2.0215,-2.0234,-2.0321,-1.9979,-1.9703,-1.9566,-1.9779,-1.926,-1.8921,-1.9497,-1.9177,-1.8721,-1.8721,-1.8721,-1.9166,-2.0719,-2.0974,-2.1285,-2.233,-2.2357,0.0,-2.3508,-2.3513,-2.3371,-2.3294,-2.3634,-2.3502,-2.265,-2.322,-2.3527,-2.3368,-2.328,-2.3398,-2.3987,-2.3519,-2.2948,-2.2211,-2.0951,-1.9844,0.0,0.0,0.0,0.0,0.0,0.0,0.0,0.0,0.0,0.0,0.0,0.0,0.0,0.0,0.0,0.0,0.0,0.0,0.0,0.0,0.0,0.0,-2.2012,-2.2745,-2.3632,-2.3972,-2.4125,-2.4125,-2.3464,-2.3135,-2.3135,-2.3714,-2.4296,-2.4787,-2.5378,-2.5975,-2.6483,-2.6483,-2.6483,-2.6483,-2.6483,-2.6483,-2.6483,-2.6483,-2.6483,-2.6483,-2.6483,-2.6483,-2.6472,-2.5975,-2.6058,-2.6483,-2.5473,-2.5389,-2.5724,-2.5305,-2.5062,0.0,0.0,0.0,0.0,0.0,-2.3173,-2.2148,-2.1465,-2.1113,-2.0908,-2.0654,-2.0566,-2.0401,-1.9583,-1.9591,-1.98,-1.9203,-1.9212,-1.925,-1.8587,-1.8284,-1.809,-1.7705,-1.7189,-1.706,-1.7939,-1.7745,-1.7501,-1.794,-1.8008,0.0,-1.9365,-1.9814,-2.0399,-2.1516,-2.1504,-2.1635,-2.2288,-2.2195,-2.1972,-2.176,-2.2067,-2.2128,-2.1621,-2.2218,0.0,0.0,0.0,-2.1468,-2.0958,-2.0891,0.0,0.0,0.0,-1.8707,-1.79,0.0,0.0,0.0,-1.7191,-1.7001,0.0,0.0,0.0,0.0,0.0,0.0,0.0,0.0,0.0,0.0,0.0,0.0,0.0,0.0,0.0,0.0,-2.2617,-2.3135,-2.3135,-2.3135,-2.3135,-2.3135,-2.3135,-2.3135,-2.3135,-2.3135,-2.3551,-2.4542,-2.4628,-2.5041,-2.6058,0.0,0.0,0.0,0.0,-2.587,-2.587,-2.5775,-2.5692,-2.5692,-2.5692,-2.5692,-2.5692,-2.4671,-2.4756,-2.5608,-2.3607,-2.326,-2.4084,-2.3047,-2.262,-2.2785,-2.4043,-2.4459,-2.4142,-2.268,-2.1868,-2.1409,-2.0895,0.0,0.0,-2.0235,-2.0235,-2.0003,-1.8711,-1.8554,-1.8646,-1.797,-1.7689,-1.7525,-1.7197,-1.6795,-1.6272,-1.5384,-1.5234,-1.5446,-1.628,-1.6428,-1.6706,-1.751,-1.7657,-1.7657,-1.7657,-1.8509,-1.9634,-2.0975,-2.074,-2.0683,-2.125,-2.0859,-2.0549,-2.054,0.0,0.0,-2.0882,-2.1214,-2.1637,-2.2017,-2.0712,-1.915,-1.7349,-1.7235,-1.7251,-1.7342,-1.7131,-1.7058,-1.709,-1.6034,-1.5538,-1.5538,-1.6519,-1.6437,0.0,0.0,0.0,0.0,0.0,0.0,0.0,0.0,0.0,0.0,0.0,0.0,0.0,0.0,0.0,-2.2324,-2.2812,-2.3135,-2.3135,-2.3135,-2.3135,-2.3135,-2.3135,-2.3135,-2.3135,-2.3135,-2.3222,-2.3387,-2.3474,-2.356,-2.3724,-2.3724,-2.3724,-2.3724,-2.2795,-2.2328,-2.2328,-2.1346,-2.0891,-2.0891,0.0,0.0,-2.0891,-2.0639,-2.0639,-2.0801,-2.0387,-2.0296,-2.0532,-2.0067,-1.9866,-2.0043,-2.216,-2.2417,-2.1512,-2.0532,-1.9558,-1.8697,-1.8228,-1.7968,-1.79,-1.79,-1.79,-1.7831,-1.7204,-1.7355,0.0,-1.7033,-1.6985,-1.6978,-1.6523,-1.6153,-1.5799,-1.53,-1.5234,-1.5234,-1.5438,-1.5438,-1.5517,-1.5728,-1.5728,-1.5728,-1.5728,-1.7139,-1.8559,-1.9547,-1.9615,-1.9857,-2.066,-2.0646,-2.0477,-2.0073,-1.9573,-1.9174,-1.8901,-1.8443,-1.817,-1.7991,-1.7456,-1.709,-1.6942,-1.6746,-1.6801,-1.7326,-1.6251,-1.5759,-1.6026,-1.4894,-1.4412,-1.4412,-1.4657,-1.4573,0.0,0.0,0.0,0.0,0.0,0.0,0.0,0.0,0.0,0.0,0.0,-1.9413,-1.9805,0.0,-2.0908,-2.1194,-2.1383,-2.1446,-2.1347,-2.1311,-2.1774,-2.296,-2.3135,-2.3135,-2.3135,-2.3135,-2.2862,-2.2217,-2.2217,-2.1943,-2.1311,-2.1311,-2.1311,-2.1311,-2.0666,-2.0395,-2.0395,-1.9761,-1.9497,-1.9497,-1.9497,-1.9497,-1.9497,-1.9497,-1.9497,-1.9497,-1.9497,-1.9497,-1.948,-1.9397,-1.9314,-1.9387,-2.036,-2.0376,-1.9948,-1.9288,-1.854,-1.7913,-1.7466,-1.7342,-1.7342,-1.7342,-1.7342,-1.7106,-1.6261,-1.6236,-1.6409,-1.5803,-1.5787,-1.5913,-1.549,-1.5221,-1.4848,-1.4169,-1.3857,-1.3882,-1.4378,-1.445,-1.4593,-1.5092,-1.5234,-1.5221,-1.5394,-1.6069,-1.6778,-1.7372,-1.8331,-1.8743,-1.8193,-1.8566,-1.8576,-1.7669,-1.7396,-1.7211,-1.7058,-1.6961,-1.6542,-1.5896,-1.5721,-1.5397,-1.5035,-1.4884,-1.4952,-1.5218,-1.4598,-1.4358,-1.4434,-1.3886,-1.3461,-1.3002,-1.3002,-1.3419,0.0,0.0,0.0,0.0,0.0,0.0,0.0,-1.9934,-1.9419,-1.909,-1.8768,-1.8572,-1.8856,-1.9467,-1.9849,-1.9944,-2.0038,-1.9939,-1.9744,-1.9703,-2.0437,-2.2372,-2.2485,-2.2438,-2.2438,-2.2513,-2.2119,-2.1033,-2.1006,-2.0555,-1.9588,-1.9497,-1.9497,-1.9497,-1.9314,-1.9131,-1.9131,-1.8856,-1.8764,-1.8764,-1.8764,-1.8764,-1.8764,-1.8764,-1.8764,-1.8764,-1.8764,-1.8724,-1.8669,-1.8732,-1.8724,-1.8637,-1.8438,-1.8311,-1.8378,-1.804,-1.7701,-1.7243,-1.681,-1.669,-1.669,-1.669,-1.669,-1.6472,-1.5397,-1.5256,-1.527,-1.467,-1.4504,-1.4429,-1.4173,-1.3874,-1.348,-1.2669,-1.2408,-1.2594,-1.3251,-1.3506,-1.3747,-1.4466,-1.4704,-1.4863,-1.4996,-1.5081,-1.5251,-1.561,-1.6991,-1.7486,-1.5864,-1.6396,-1.6549,-1.5375,-1.5365,-1.5354,-1.5287,-1.5388,-1.505,-1.4149,-1.386,-1.3402,-1.2555,-1.2504,-1.2529,-1.2638,-1.2587,-1.2587,-1.2638,-1.2638,-1.2258,-1.1541,-1.1541,-1.2212,-1.6979,-1.6246,-1.5959,-1.6292,-1.7541,-1.8896,0.0,-1.9845,-1.9775,-2.0149,-2.0178,-2.0156,-2.0189,-2.0271,-2.032,-2.032,-2.032,-2.0303,-2.0262,-2.0262,-2.0358,-2.0645,-2.0448,-2.0247,-2.0247,-2.054,-2.0464,-1.972,-1.9878,-1.9919,-1.9505,-1.9497,-1.9497,-1.9497,-1.8503,-1.787,-1.787,-1.6756,-1.6197,-1.6197,-1.6197,-1.6197,-1.6197,-1.6197,-1.6197,-1.6197,-1.6197,-1.6047,-1.5913,-1.6088,-1.604,-1.592,-1.6053,-1.5985,-1.586,-1.6213,-1.572,-1.4815,-1.4599,-1.4496,-1.4496,-1.4496,-1.4496,-1.4412,-1.4294,-1.4223,-1.423,-1.4169,-1.3208,-1.227,-1.2234,-1.2035,-1.1696,-1.1307,-1.2018,-1.2701,-1.2506,-1.2655,-1.2838,-1.264,-1.3037,-1.3338,-1.3161,-1.399,-1.4919,-1.5859,-1.5972,-1.5955,-1.597,-1.6094,-1.5955,-1.5601,-1.507,-1.4362,-1.354,-1.2447,-1.1766,-1.1617,-1.0548,-0.9991,-1.0126,-0.9864,-1.0025,-1.0519,-1.0243,-1.0237,-1.0525,-1.0525,-1.046,-1.04,-1.04,-1.0632,-1.6239,-1.5734,-1.5715,-1.6766,-1.7667,-1.8559,-1.9584,-1.9344,-1.9059,-1.9295,-1.8897,-1.854,-1.854,-1.8694,-1.8441,-1.7413,-1.7234,-1.6812,-1.5895,-1.5655,-1.5668,-1.5999,-1.5871,-1.6981,-1.9894,-2.0287,-1.9662,-1.7816,-1.7743,-1.6971,-1.5306,-1.5146,-1.5063,-1.5063,-1.4607,-1.4339,-1.4339,-1.4549,-1.4268,-1.3499,-1.4364,-1.4268,-1.3499,-1.3499,-1.3499,-1.3499,-1.3499,-1.3442,-1.3351,-1.3454,-1.3915,-1.4502,-1.3747,-1.3915,-1.4609,-1.5232,-1.5088,-1.4476,-1.4188,-1.4088,-1.4088,-1.4088,-1.4088,-1.3997,-1.3294,-1.3027,-1.2942,-1.2254,-1.1657,-1.1149,-1.1149,-1.0977,-1.0658,-1.0418,-1.0651,-1.0793,-1.0628,-1.0657,-1.0703,-1.0594,-1.0787,-1.1038,-1.1072,-1.1476,-1.1982,-1.2599,-1.4751,-1.5838,-1.4749,-1.4985,-1.4728,-1.3182,-1.212,-1.1402,-1.1184,-1.0495,-1.0122,-1.0122,-0.9575,-0.9337,-0.9433,-0.9347,-0.9387,-0.9647,-0.956,-0.956,-0.9652,-0.9652,-0.9399,-0.888,-0.888,-0.8715,-1.4877,-1.4428,-1.4444,-1.5658,-1.6299,-1.6833,-1.7581,-1.7449,-1.7083,-1.7083,-1.6562,-1.61,-1.61,-1.6262,-1.6007,-1.475,-1.4458,-1.4029,-1.2784,-1.2545,-1.2585,-1.2966,-1.3101,-1.4523,-1.811,-1.8476,-1.7566,-1.5425,-1.5295,-1.4366,-1.2274,-1.2023,-1.2011,-1.1853,-1.1945,-1.1945,-1.1945,-1.2813,-1.2813,-1.195,-1.2909,-1.2813,-1.1945,-1.1945,-1.1945,-1.1945,-1.1945,-1.1945,-1.1945,-1.1945,-1.2431,-1.3295,-1.2237,-1.2485,-1.3334,-1.3842,-1.3823,-1.3598,-1.3249,-1.313,-1.313,-1.313,-1.313,-1.2948,-1.2077,-1.1809,-1.1638,-1.0869,-1.0351,-1.0096,-1.0096,-0.9937,-0.974,-0.9499,-0.9502,-0.9511,-0.9421,-0.9473,-0.9478,-0.9401,-0.9571,-0.9747,-0.9923,-0.9867,-0.9943,-1.0325,-1.2975,-1.4402,-1.2845,-1.3055,-1.27,-1.0973,-0.9887,-0.9362,-0.9601,-0.9158,-0.8917,-0.8917,-0.8618,-0.8466,-0.8466,-0.8466,-0.8466,-0.8466,-0.8466,-0.8466,-0.8466,-0.8466,-0.8154,-0.7505,-0.7505,-0.7183,-1.2991,-1.2368,-1.2027,-1.193,-1.2425,-1.3016,-1.3016,-1.3189,-1.346,-1.346,-1.3465,-1.347,-1.347,-1.348,-1.3372,-1.3367,-1.3357,-1.3352,-1.3249,-1.3239,-1.332,-1.3447,-1.3396,-1.3454,-1.3658,-1.3678,-1.3408,-1.255,-1.2794,-1.2719,-1.2194,-1.2164,-1.2063,-1.1955,-1.1945,-1.1945,-1.1945,-1.1945,-1.1945,-1.1945,-1.1945,-1.1945,-1.1945,-1.1945,-1.1945,-1.1945,-1.1945,-1.1945,-1.1945,-1.1945,-1.1945,-1.1945,-1.195,-1.1814,-1.178,-1.1456,-1.137,-1.1298,-1.085,-1.0697,-1.0697,-1.0697,-1.0697,-1.0697,-1.0697,-1.0611,-1.0611,-1.0611,-0.9836,-0.8978,-0.8978,-0.8837,-0.8692,-0.8522,-0.9055,-0.968,-0.9727,-0.9761,-0.9842,-0.9685,-1.0023,-1.0269,-0.9974,-1.0029,-1.0192,-1.0408,-1.0423,-1.0369,-1.0293,-1.001,-0.9865,-0.9781,-0.9504,-0.9301,-0.9306,-0.8394,-0.7859,-0.7859,-0.6945,-0.6416,-0.6416,-0.6416,-0.6416,-0.6416,-0.6416,-0.6416,-0.6416,-0.6416,-0.6338,-0.6342,-0.6342,-0.6345,-1.1759,-1.1714,-1.1722,-1.2164,-1.2439,-1.2784,-1.3082,-1.3214,-1.3264,-1.3264,-1.3143,-1.3143,-1.3143,-1.3143,-1.2825,-1.1875,-1.1661,-1.1432,-1.0703,-1.0418,-1.041,-1.0583,-1.0654,-1.0277,-0.9095,-1.1612,-1.2852,-1.1679,-1.1496,-1.1028,-0.9852,-0.9634,-0.9493,-0.9316,-0.9312,-0.9312,-0.9312,-1.019,-1.019,-0.9312,-0.9312,-0.9312,-0.9312,-0.9312,-0.9312,-0.9312,-0.9312,-0.9312,-0.9312,-0.9312,-0.9801,-1.0583,-0.9706,-0.9862,-1.0457,-0.9407,-0.8961,-0.9177,-1.02,-1.0611,-1.0611,-1.0611,-1.0611,-1.0438,-0.9662,-0.9492,-0.9318,-0.8532,-0.8013,-0.7665,-0.7665,-0.7712,-0.7559,-0.7457,-0.7598,-0.7659,-0.7596,-0.7577,-0.7497,-0.7423,-0.7732,-0.7907,-0.7765,-0.7946,-0.8126,-0.7951,-0.9294,-1.0228,-0.993,-0.9197,-0.8636,-0.8426,-0.7744,-0.7326,-0.7326,-0.7022,-0.6795,-0.6795,-0.6391,-0.6156,-0.6257,-0.6162,-0.6156,-0.6257,-0.6338,-0.6338,-0.6338,-0.6338,-0.5944,-0.5237,-0.5237,-0.5237,-1.0579,-1.013,-0.9693,-1.0209,-1.0046,-0.9746,-1.0138,-1.0205,-1.0112,-1.0175,-1.0377,-1.0686,-1.0686,-1.1124,-1.1111,-1.0212,-1.0044,-0.9865,-0.915,-0.8998,-0.9032,-0.9286,-0.8884,-0.804,-0.7002,-0.8798,-0.9812,-0.8786,-0.8626,-0.8087,-0.7068,-0.6884,-0.6975,-0.7311,-0.7308,-0.7485,-0.8038,-0.8825,-0.8825,-0.8038,-0.8038,-0.8038,-0.8038,-0.8038,-0.8038,-0.8038,-0.8038,-0.8038,-0.7939,-0.7434,-0.8028,-0.9114,-0.7829,-0.7793,-0.8412,-0.7446,-0.7093,-0.7289,-0.8853,-0.942,-0.942,-0.942,-0.9371,-0.9148,-0.8074,-0.7701,-0.739,-0.6151,-0.5888,-0.5888,-0.5888,-0.5855,-0.5807,-0.5731,-0.5583,-0.5448,-0.5496,-0.5345,-0.5385,-0.5916,-0.6065,-0.627,-0.6696,-0.6939,-0.6963,-0.6664,-0.8057,-0.8941,-0.8553,-0.796,-0.745,-0.7261,-0.6721,-0.6338,-0.6338,-0.6338,-0.6338,-0.6338,-0.6166,-0.6159,-0.6257,-0.6166,-0.6159,-0.6257,-0.5944,-0.5709,-0.5709,-0.5315,-0.4766,-0.4139,-0.4139,-0.4139,-0.9143,-0.7606,-0.5954,-0.6057,-0.5229,-0.437,-0.4447,-0.4356,-0.4377,-0.445,-0.5608,-0.6514,-0.6514,-0.7717,-0.8662,-0.8516,-0.8635,-0.8798,-0.895,-0.8971,-0.9017,-0.9439,-0.7934,-0.6842,-0.6822,-0.5367,-0.433,-0.4263,-0.4423,-0.4394,-0.4254,-0.4247,-0.4716,-0.5894,-0.5889,-0.6554,-0.7739,-0.7839,-0.7839,-0.7839,-0.7839,-0.7839,-0.7839,-0.7839,-0.7839,-0.7839,-0.7839,-0.7839,-0.7736,-0.6429,-0.6631,-0.7637,-0.6431,-0.5862,-0.5672,-0.5672,-0.5605,-0.5688,-0.679,-0.7295,-0.7289,-0.7197,-0.7098,-0.6739,-0.5772,-0.5453,-0.5097,-0.3927,-0.357,-0.357,-0.357,-0.352,-0.3469,-0.3557,-0.3357,-0.3187,-0.351,-0.3437,-0.3708,-0.4989,-0.5097,-0.5362,-0.6503,-0.6757,-0.6655,-0.6364,-0.6437,-0.6502,-0.6298,-0.6338,-0.6338,-0.6338,-0.6338,-0.6338,-0.6338,-0.6338,-0.6338,-0.6338,-0.6254,-0.6251,-0.6338,-0.6251,-0.6173,-0.618,-0.5157,-0.4608,-0.4608,-0.3593,-0.3046,-0.3046,-0.3046,-0.3046,-0.5521,-0.4847,-0.4334,-0.3478,-0.2916,-0.2652,-0.2916,-0.2927,-0.3151,-0.4271,-0.5454,-0.638,-0.638,-0.759,-0.8699,-0.8659,-0.8967,-0.9266,-0.9418,-0.9439,-0.9003,-0.7909,-0.7295,-0.6066,-0.3661,-0.308,-0.2361,-0.128,-0.3187,-0.4457,-0.4252,-0.4247,-0.4286,-0.4547,-0.4541,-0.4706,-0.502,-0.5018,-0.5018,-0.5018,-0.5018,-0.5018,-0.5018,-0.5018,-0.5018,-0.5018,-0.5018,-0.5018,-0.5018,-0.4618,-0.4718,-0.5018,-0.4618,-0.4505,-0.4485,-0.4485,-0.4472,-0.4441,-0.4651,-0.5337,-0.5927,-0.4895,-0.4504,-0.4475,-0.4156,-0.4127,-0.4006,-0.3676,-0.357,-0.357,-0.357,-0.3556,-0.3542,-0.3631,-0.3386,-0.3326,-0.3432,-0.3306,-0.3271,-0.3626,-0.3765,-0.3913,-0.4326,-0.4372,-0.4287,-0.417,-0.411,-0.4603,-0.6126,-0.6338,-0.6338,-0.6338,-0.6338,-0.6338,-0.6338,-0.6338,-0.6338,-0.6338,-0.6152,-0.6139,-0.6254,-0.5451,-0.4985,-0.5076,-0.4062,-0.3513,-0.3513,-0.3202,-0.2735,-0.1957,-0.1957,-0.1957,-0.3339,-0.2585,-0.1908,-0.0708,0.0102,0.0621,0.0422,0.0,-0.0638,-0.1504,-0.3158,-0.4439,-0.4439,-0.5633,-0.6729,-0.6677,-0.6964,-0.723,-0.7348,-0.7364,-0.7045,-0.6174,-0.5458,-0.4354,-0.252,-0.1683,-0.084,-0.0119,-0.1626,-0.2497,-0.2344,-0.2325,-0.2614,-0.3071,-0.3174,-0.3448,-0.3965,-0.4033,-0.4016,-0.4016,-0.4016,-0.4016,-0.4016,-0.4016,-0.4016,-0.4016,0.0,-0.4016,-0.3915,-0.3314,-0.3515,-0.3915,-0.3314,-0.3115,-0.3115,-0.3115,-0.3099,-0.3077,-0.238,-0.2933,-0.4028,-0.3806,-0.368,-0.3552,-0.3052,-0.2839,-0.2722,-0.2154,-0.2058,-0.2058,-0.2058,-0.2058,-0.2053,-0.2034,-0.1924,-0.1903,-0.1884,-0.1792,-0.1878,-0.2411,-0.3047,-0.3434,-0.3563,-0.3537,-0.3474,-0.3367,-0.3258,-0.3613,-0.4716,-0.4921,-0.5237,-0.6183,-0.547,-0.5079,-0.555,-0.5157,-0.4921,-0.4921,-0.478,-0.4775,-0.4919,-0.4239,-0.3925,-0.3982,-0.2969,-0.2425,-0.2425,-0.1956,-0.1488,-0.0863,-0.0863,-0.0863,-0.1593,-0.02,0.11,0.2498,0.371,0.4549,0.4519,0.3407,0.2286,0.2006,-0.0104,-0.1959,-0.1959,-0.3182,-0.4218,-0.4066,-0.4231,-0.4394,-0.4472,-0.4601,-0.453,-0.4534,-0.3322,-0.2463,-0.2217,-0.0853,0.0,0.0,0.0,0.0,0.0,0.0,-0.0556,-0.1748,-0.1743,-0.2248,-0.341,-0.3455,-0.3423,-0.3515,-0.3515,-0.3515,-0.3515,-0.3515,-0.3515,-0.3515,-0.3515,-0.3515,-0.3416,-0.2213,-0.2414,-0.3314,-0.2213,-0.1712,-0.1712,-0.1712,-0.1694,-0.1576,-0.0401,-0.0797,-0.1951,-0.2972,-0.3203,-0.2969,-0.2034,-0.1642,-0.1348,-0.009,0.0269,0.0269,0.0449,0.0359,0.0268,0.0263,0.0087,0.0,0.0,0.0,-0.0351,-0.1339,-0.2413,-0.3126,-0.3126,-0.3126,-0.3084,-0.288,-0.2824,-0.2877,-0.2929,-0.2982,-0.3839,-0.5709,-0.4217,-0.3513,-0.4375,-0.3671,-0.3124,-0.3124,-0.3124,-0.3124,-0.3124,-0.2968,-0.289,-0.289,-0.1879,-0.1411,-0.1411,-0.0471,0.0,0.0,0.0,-0.0079,0.2293,0.3897,0.5282,0.6583,0.7169,0.7459,0.7379,0.5453,0.3516,0.2285,-0.0102,-0.2023,-0.2023,-0.3331,-0.4409,-0.4412,-0.4567,-0.4838,-0.4858,-0.4877,-0.44,-0.3075,-0.2708,-0.1971,-0.0617,-0.0123,0.0,0.0,0.0,0.0,0.0,0.0,-0.0111,-0.0329,-0.0324,-0.0424,-0.0726,-0.0724,-0.0717,-0.0706,-0.0706,-0.0706,-0.0706,-0.0706,-0.0706,-0.0706,-0.0706,0.0,-0.0706,-0.0404,-0.0504,-0.0706,-0.0404,-0.0303,-0.0303,-0.0303,-0.0302,-0.0301,-0.0101,-0.0199,-0.0392,-0.0586,-0.0682,-0.0579,-0.0374,-0.0369,-0.0092,0.117,0.1522,0.1701,0.2681,0.2236,0.1522,0.1516,0.0714,0.0,0.0,0.0,-0.0089,-0.0269,-0.0449,-0.0628,-0.0628,-0.0628,-0.0623,-0.0607,-0.0607,-0.0854,-0.1786,-0.2576,-0.3273,-0.3599,-0.3357,-0.3202,-0.3357,-0.3202,-0.3124,-0.3124,-0.3124,-0.3124,-0.3124,-0.2268,-0.188,-0.188,-0.0784,-0.0314,-0.0314,-0.0079,0.0,0.0,0.0,-0.0471,0.539,0.6592,0.7477,0.9563,0.9541,0.9103,0.9103,0.6997,0.4888,0.4277,0.2526,0.1104,0.1104,-0.0103,-0.1066,-0.1085,-0.1806,-0.2339,-0.2396,-0.1571,-0.0731,0.0,0.0123,0.0369,0.1233,0.0494,0.0,0.0,0.0,0.0,0.0,0.0,0.0,0.0,0.0,0.0,0.0,0.0,0.0,0.0,0.0,0.0,0.0,0.0,0.0,0.0,0.0,0.0,0.0,0.0,0.0,0.0101,0.0807,0.1008,0.1109,0.1812,0.2101,0.2088,0.2107,0.2088,0.2056,0.2056,0.1654,0.1057,0.0933,0.1385,0.2112,0.2607,0.2771,0.2858,0.3481,0.3215,0.2771,0.2771,0.2325,0.1879,0.1879,0.1879,0.17,0.1076,0.0897,0.0718,0.009,0.0,0.0,0.0,0.0,-0.0174,-0.0666,-0.1169,-0.1898,-0.2982,-0.2135,-0.1745,-0.2271,-0.18,-0.1488,-0.1488,-0.1488,-0.1488,-0.1488,-0.1019,-0.0784,-0.0784,-0.0235,0.0,0.0,0.0,0.0,0.0,-0.0639,-0.1205,0.8082,0.9072,0.9657,1.1448,1.117,1.0391,1.0096,0.7915,0.6029,0.6029,0.492,0.4016,0.4016,0.3087,0.2425,0.2453,0.1549,0.0918,0.0942,0.2155,0.3038,0.3086,0.3091,0.3091,0.3091,0.1851,0.111,0.111,0.1078,0.0704,0.0,0.0568,0.078,0.044,0.0433,0.0425,0.0522,0.041,0.0405,0.0404,0.0706,0.0706,0.0404,0.0706,0.0706,0.0404,0.0706,0.0806,0.0806,0.0806,0.0806,0.1008,0.2013,0.2414,0.2514,0.3615,0.3982,0.4041,0.3997,0.397,0.4011,0.4027,0.3303,0.2383,0.2231,0.295,0.3851,0.395,0.4016,0.4016,0.4281,0.4194,0.3927,0.3659,0.357,0.357,0.357,0.357,0.3303,0.2415,0.2147,0.179,0.0628,0.0359,0.0268,0.0,0.0,0.0,0.0,0.0,-0.0599,-0.2238,-0.0971,-0.0325,-0.1196,-0.0478,0.0,0.0,0.0,0.0,0.0,0.0,0.0,0.0,0.0,0.0,0.0,0.0,0.0,0.0,-0.1226,-0.1896,1.0854,1.242,1.3097,1.2139,1.1848,1.1463,1.0293,0.7915,0.6029,0.6029,0.492,0.4016,0.4016,0.3927,0.3899,0.3989,0.3928,0.3916,0.4278,0.4495,0.4687,0.488,0.4888,0.4888,0.4888,0.4584,0.4426,0.4426,0.4298,0.3013,0.0113,0.2576,0.3462,0.2008,0.1977,0.1944,0.2016,0.1876,0.1843,0.1812,0.3015,0.3015,0.1812,0.3115,0.3015,0.1913,0.3115,0.3615,0.0,0.3615,0.3615,0.3616,0.3815,0.3815,0.3815,0.3915,0.4011,0.4007,0.4012,0.397,0.402,0.3985,0.3958,0.3778,0.3635,0.3684,0.4036,0.494,0.527,0.5447,0.6514,0.598,0.4999,0.3838,0.357,0.357,0.357,0.357,0.357,0.3481,0.3392,0.3037,0.1879,0.1612,0.1254,0.0179,0.0,0.0,0.0,0.0,-0.0088,-0.0252,-0.0084,0.0,-0.0167,-0.0084,0.0,0.0,0.0,0.0,0.0,0.0,0.0,0.0,0.0,0.0,0.0,0.0,0.0,0.0,-0.1255,-0.2258,1.3819,1.4376,1.4234,1.466,1.3302,1.159,1.0432,0.8585,0.7235,0.7235,0.6828,0.6426,0.6426,0.5724,0.528,0.5455,0.4788,0.4252,0.4572,0.548,0.618,0.6335,0.6354,0.6377,0.6432,0.5546,0.4879,0.4787,0.5498,0.4918,0.2799,0.3801,0.4207,0.3469,0.3444,0.3387,0.3289,0.3263,0.3238,0.3215,0.3715,0.3715,0.3215,0.3715,0.3715,0.3215,0.3815,0.4016,0.0,0.4016,0.4016,0.4116,0.492,0.5222,0.5322,0.6124,0.6426,0.6426,0.6426,0.6396,0.6366,0.6412,0.6396,0.6214,0.5216,0.5435,0.6149,0.6397,0.6428,0.6517,0.6962,0.685,0.6482,0.6098,0.5965,0.591,0.591,0.5763,0.5531,0.4819,0.4643,0.4285,0.3126,0.2325,0.1612,0.1165,0.0449,0.0,0.0,0.0,0.0,0.0,0.0,0.0,0.0,0.0,0.0,0.0,0.0,0.0,0.0,0.0,0.0,0.0,0.0,0.0,0.0,0.0,0.0,0.0,-0.1216,-0.2006,1.6312,1.6253,1.5684,1.5944,1.3975,1.1589,1.0037,0.874,0.8038,0.8038,0.8038,0.8038,0.8038,0.7235,0.667,0.0,0.6076,0.5581,0.5782,0.6822,0.7682,0.7776,0.7801,0.7968,0.8085,0.6996,0.6317,0.6151,0.6975,0.6977,0.5967,0.5824,0.5511,0.4921,0.4892,0.4806,0.4657,0.4632,0.4618,0.4618,0.5018,0.5018,0.4618,0.5018,0.4918,0.4618,0.5018,0.5218,0.0,0.5218,0.5218,0.532,0.6226,0.6631,0.6731,0.7637,0.8038,0.8038,0.8038,0.8038,0.8038,0.8038,0.8038,0.7789,0.6571,0.6862,0.7546,0.7282,0.7241,0.7265,0.7221,0.7288,0.7387,0.7451,0.7417,0.737,0.737,0.7322,0.6992,0.6138,0.595,0.5576,0.4378,0.3127,0.2236,0.1879,0.0807,0.0,0.0,0.0,0.0,0.0,0.0,0.0,0.0,0.0,0.0,0.0,0.0,0.0,0.0,0.0,0.0,0.0,0.0,0.0,0.0,0.0,0.0,0.0,-0.1246,-0.1982,1.7956,1.8491,1.8021,1.5257,1.3501,1.1678,0.8973,0.815,0.8038,0.8038,0.8038,0.8038,0.8038,0.7939,0.8089,0.8245,0.8391,0.8587,0.8786,0.9191,0.9435,0.9591,0.9608,0.9666,0.9805,0.9819,0.964,0.9618,0.9466,0.0,0.9157,0.9015,0.809,0.6531,0.6526,0.6409,0.6292,0.6083,0.6029,0.6029,0.7335,0.7235,0.6029,0.7335,0.7235,0.6029,0.7335,0.7939,0.0,0.7939,0.7939,0.7939,0.7939,0.7939,0.7939,0.8038,0.8038,0.8038,0.8038,0.8038,0.8038,0.8038,0.8038,0.8011,0.7855,0.7709,0.7567,0.7411,0.7478,0.756,0.7407,0.737,0.7333,0.718,0.7261,0.737,0.737,0.7489,0.755,0.74,0.737,0.6953,0.5646,0.4374,0.3215,0.1969,0.0807,0.0,0.0,0.0,0.0,0.0,0.0,0.0,0.0,0.0,0.0,0.0,0.0,0.0,0.0,0.0,0.0,0.0,0.0,0.0,0.0,0.0,0.0,0.0,-0.1254,-0.2469,1.8103,1.8341,1.7969,1.6341,1.4672,1.297,1.1339,1.0129,0.941,0.941,0.8627,0.8038,0.8038,0.8038,0.8123,0.8374,0.8452,0.8587,0.8896,0.9103,0.9283,0.9435,0.9632,0.9771,0.9819,0.9734,0.9615,0.9466,0.931,0.9161,0.9015,0.8964,0.8646,0.8059,0.8012,0.7877,0.7648,0.7604,0.7532,0.7335,0.7839,0.7736,0.7335,0.7839,0.7736,0.7434,0.7839,0.8038,0.8038,0.8038,0.8038,0.8038,0.8038,0.8038,0.8038,0.8038,0.8038,0.8038,0.8038,0.8038,0.8038,0.8038,0.8627,0.9379,0.92,0.8538,0.7716,0.7567,0.7489,0.7478,0.7631,0.7672,0.7685,0.7743,0.7712,0.7672,0.7672,0.7634,0.7587,0.7536,0.7529,0.7416,0.6996,0.5802,0.4561,0.3377,0.2077,0.0897,0.009,0.0,0.0,0.0,0.0,0.0,0.0,0.0,0.0,0.0,0.0,0.0,0.0,0.0,0.0,0.0,0.0,0.0,0.0,0.0,0.0,0.0,-0.0369,-0.0754,1.7163,1.7949,1.7894,1.6242,1.498,1.3567,1.1834,1.0721,0.9998,0.9998,0.8924,0.8038,0.8038,0.8038,0.8099,0.8286,0.8408,0.8567,0.8818,0.9025,0.9208,0.9364,0.9595,0.9741,0.9741,1.0183,1.0565,1.0398,1.0234,1.007,0.9906,0.9296,0.9109,0.9548,0.9061,0.8594,0.8353,0.835,0.8303,0.8204,0.8204,0.8177,0.8126,0.8126,0.8096,0.8038,0.8038,0.8038,0.0,0.8038,0.8038,0.8038,0.8038,0.8038,0.8038,0.8038,0.8333,0.8726,0.8137,0.8627,0.941,0.892,0.9604,1.0658,1.0628,0.9677,0.8553,0.8456,0.8026,0.7651,0.7777,0.7811,0.7821,0.7865,0.7841,0.7811,0.7811,0.7787,0.775,0.7692,0.7678,0.7662,0.7607,0.6485,0.5403,0.4657,0.3411,0.2382,0.1651,0.1457,0.1451,0.1451,0.135,0.1344,0.1344,0.0994,0.0724,0.0718,0.1174,0.1168,0.0704,0.0704,0.0442,0.0,0.0,0.0,0.0,0.0,0.0,0.0,0.0,0.0,0.0,1.7016,1.7752,1.5102,1.426,1.3435,1.0938,1.0116,0.0,0.9998,0.8924,0.8041,0.8055,0.8045,0.8045,0.8069,0.8303,0.8533,0.8689,0.8974,0.9336,0.9476,0.9641,0.9849,0.9829,1.1391,1.2367,1.216,1.1992,1.1802,1.1591,1.0109,0.9805,1.1214,0.9761,0.8862,0.8706,0.8706,0.8594,0.8482,0.8482,0.8414,0.8286,0.8275,0.8194,0.0,0.8045,0.8038,0.0,0.8038,0.8038,0.8038,0.8038,0.8038,0.8038,0.8137,0.8924,0.9801,0.8726,0.9899,1.1755,1.0583,1.1068,1.2042,1.2139,1.1019,0.9814,0.9827,0.8886,0.7994,0.7862,0.7828,0.7794,0.7662,0.7733,0.7828,0.7828,0.794,0.7997,0.7855,0.7828,0.7787,0.7655,0.6661,0.5892,0.5795,0.4843,0.4082,0.3989,0.3923,0.3784,0.3784,0.3714,0.3578,0.3578,0.2732,0.2101,0.1972,0.3093,0.319,0.1881,0.1792,0.1268,0.0,0.0,0.0,0.0,0.0,0.0,0.0,0.0,0.0,0.8259,0.0,1.4563,1.2948,1.2541,1.2314,0.0,1.0712,0.9998,0.9998,0.8924,0.8075,0.8194,0.8119,0.8113,0.834,0.8435,0.8533,0.8689,0.9066,0.9683,1.0747,1.1252,1.1921,1.2662,1.3546,1.3849,1.3466,1.3393,1.3199,1.293,1.2536,1.2403,1.2724,1.2459,1.159,1.0339,1.0339,0.975,0.8482,0.8482,0.8465,0.8428,0.8319,0.8252,0.8211,0.8092,0.0,0.8038,0.8038,0.8038,0.8038,0.8038,0.8038,0.8137,0.9118,0.9706,1.0096,1.0779,1.1361,1.2042,1.2716,1.3199,1.359,1.4567,1.2453,0.984,0.9892,0.8893,0.7882,0.7963,0.7984,0.7977,0.7943,0.7963,0.7984,0.7984,0.8014,0.8028,0.7991,0.7984,0.7974,0.7943,0.7544,0.6981,0.6109,0.5648,0.5027,0.4084,0.3971,0.3959,0.3959,0.3795,0.3748,0.3748,0.344,0.3232,0.3215,0.3497,0.3053,0.1879,0.1818,0.1195,0.0,0.0,0.0,0.0,0.0,0.0,0.0,0.0,0.0,0.4899,0.8028,1.0757,0.9531,0.9637,1.0028,1.0058,0.9579,0.9292,0.9895,0.8924,0.8065,0.815,0.8153,0.8197,0.836,0.8499,0.8873,0.9742,1.001,1.0803,1.2454,1.2812,1.3222,1.4003,1.4945,1.5395,1.5129,1.4906,1.4673,1.4522,1.3753,1.3588,1.4234,1.4234,1.3526,1.2019,1.2019,1.1536,1.0695,1.0695,1.0648,1.0556,1.0381,1.0255,1.0171,0.9884,0.0,0.9801,0.9801,0.9801,0.9801,0.9801,0.9801,0.9899,1.0583,1.1263,1.1843,1.1848,1.2334,1.3006,1.4364,1.4752,1.4854,1.5635,1.3874,1.1591,1.1039,0.9437,0.7936,0.8018,0.8038,0.8038,0.8038,0.8038,0.8038,0.8038,0.8038,0.8038,0.8038,0.8038,0.8038,0.8038,0.797,0.7717,0.7024,0.6863,0.6529,0.5942,0.58,0.5767,0.5767,0.5528,0.543,0.543,0.5375,0.5049,0.4465,0.5089,0.4572,0.2721,0.2682,0.1879,0.0,0.0,0.0,0.0,0.0,0.0,0.0,0.0,0.0,0.271,0.4581,0.6041,0.5778,0.6462,0.7346,0.7384,0.7592,0.7994,0.9201,0.8623,0.8055,0.8099,0.8197,0.8286,0.833,0.8776,0.9716,1.1509,1.1686,1.2361,1.428,1.4323,1.4489,1.5178,1.6223,1.6797,1.6756,1.642,1.6235,1.6187,1.478,1.4449,1.5743,1.5743,1.5204,1.4019,1.3696,1.348,1.3264,1.3264,1.3163,1.3072,1.2708,1.2496,1.2414,0.0,0.0,1.1945,1.1945,1.1945,1.1945,1.1945,1.1945,1.1945,1.2139,1.2909,1.3776,1.2818,1.3204,1.4364,1.5439,1.5832,1.5832,1.5832,1.4949,1.368,1.2528,1.048,0.8627,0.8627,0.8432,0.8333,0.8333,0.8137,0.8038,0.8038,0.8038,0.8038,0.8038,0.8038,0.8038,0.8038,0.8038,0.8038,0.8038,0.8038,0.8038,0.8038,0.7926,0.7845,0.7845,0.76,0.7438,0.7438,0.7417,0.6982,0.5779,0.6897,0.6415,0.3719,0.3403,0.2216,0.0,0.0,0.0,0.0,0.0,0.0,0.0,0.0,0.0,-0.1406,-0.1603,-0.1099,0.3203,0.4409,0.4608,0.4612,0.5518,0.6323,0.6526,0.7332,0.8116,0.8367,0.8336,0.835,0.8604,0.9962,1.1572,1.3614,1.3933,1.4343,1.5705,1.6253,1.6831,1.786,1.8227,1.8472,1.823,1.7902,1.7593,1.7338,1.7067,1.7041,1.7252,1.7252,1.7147,1.6929,1.5743,1.4449,1.3264,1.3264,1.3249,1.3199,1.2784,1.2577,1.2521,0.0,1.1945,1.1945,1.1945,1.1945,1.1945,1.1945,1.1945,1.2042,1.3199,1.368,1.3974,1.4854,1.5343,1.5534,1.573,1.5832,1.5832,1.5832,1.4949,1.3872,1.368,1.2522,1.1263,1.1263,1.0485,0.9706,0.9706,0.8821,0.8038,0.8038,0.8038,0.8038,0.8038,0.8038,0.8038,0.8038,0.8038,0.8038,0.8038,0.8038,0.8038,0.8038,0.8018,0.8004,0.8004,0.7848,0.7743,0.7743,0.7634,0.746,0.725,0.748,0.6496,0.3873,0.1752,0.0394,0.0,0.0,0.0,0.0,0.0,0.0,0.0,0.0,0.0,-0.3215,-0.3516,-0.3211,0.0,0.0803,0.0903,0.1704,0.341,0.5122,0.5829,0.7033,0.8106,0.8326,0.8445,0.8948,1.0224,1.1788,1.3389,1.5177,1.5338,1.5772,1.7428,1.7767,1.8032,1.8625,1.8704,1.8571,1.827,1.7969,1.7736,1.7589,1.7582,1.7582,1.7582,1.7582,1.7582,1.7582,1.6929,1.628,1.5636,1.5636,1.5565,1.5416,1.5029,1.4773,1.4624,0.0,1.3986,1.3986,1.3986,1.3986,1.3986,1.3986,1.3986,1.4076,1.4657,1.4949,1.5045,1.5629,1.5832,1.5832,1.5832,1.5832,1.5832,1.5832,1.5439,1.4949,1.4949,1.3494,1.1945,1.1945,1.1458,1.1072,1.1072,0.9998,0.9118,0.9118,0.8528,0.8038,0.8038,0.8038,0.8038,0.8038,0.8038,0.8038,0.8038,0.8038,0.8038,0.8038,0.8038,0.8038,0.8038,0.7902,0.7811,0.7811,0.775,0.7712,0.7712,0.6362,0.5057,0.3965,0.1393,0.0,0.0,0.0,0.0,0.0,0.0,0.0,0.0,0.0,0.0,-0.3592,-0.3802,-0.3715,-0.2715,-0.2213,-0.151,0.0101,0.2322,0.4452,0.5795,0.7226,0.818,0.8299,0.8874,1.0089,1.2484,1.3853,1.5252,1.6736,1.6845,1.721,1.8665,1.8751,1.8731,1.8818,1.8617,1.837,1.807,1.7756,1.7582,1.7582,1.7582,1.7582,1.7582,1.7582,1.7582,1.7582,1.7582,1.7582,1.7582,1.7582,1.7468,1.7241,1.6947,1.6647,1.6359,1.6059,1.5892,1.5832,1.5832,1.5832,1.5832,1.5832,1.5832,1.5832,1.5832,1.5832,1.5832,1.5832,1.5832,1.5832,1.5832,1.5832,1.5832,1.5832,1.5832,1.5832,1.5832,1.437,1.2818,1.2818,1.2624,1.2334,1.1945,1.0974,0.9899,0.9608,0.8726,0.8038,0.8038,0.8038,0.8038,0.8038,0.8038,0.8038,0.8038,0.8038,0.8038,0.8038,0.8038,0.8038,0.8038,0.7933,0.7865,0.7865,0.7865,0.7865,0.7865,0.5603,0.4256,0.4012,0.1712,0.0303,0.0,0.0,0.0,0.0,0.0,0.0,0.0,0.0,0.0,-0.2449,-0.3074,-0.4016,-0.3915,-0.2914,-0.1314,0.1439,0.3197,0.4658,0.6105,0.7497,0.8455,0.8465,0.9877,1.2183,1.5423,1.6267,1.7008,1.8538,1.899,1.8971,1.8577,1.8985,1.9098,1.8577,1.8504,1.837,1.807,1.7756,1.7582,1.7582,1.7582,1.7582,1.7582,1.7582,1.7582,1.7582,1.7582,1.7582,1.7582,1.7582,1.7569,1.7542,1.7248,1.6954,1.666,1.6366,1.6086,1.5832,1.5832,1.5832,1.5832,1.5832,1.5832,1.5832,1.5832,1.5832,1.5832,1.5832,1.5832,1.5832,1.5832,1.5832,1.5832,1.5832,1.5832,1.5832,1.5832,1.5635,1.554,1.554,1.4657,1.3392,1.2237,1.0974,0.9706,0.8432,0.8038,0.8038,0.8038,0.8038,0.8038,0.8038,0.8038,0.8038,0.8038,0.8038,0.8038,0.8038,0.8038,0.8038,0.8038,0.8028,0.8024,0.8024,0.8024,0.8024,0.8024,0.6617,0.5316,0.4016,0.2614,0.131,0.0,0.0,0.0,0.0,0.0,0.0,0.0,0.0,0.0,-0.3422,-0.2967,-0.2603,-0.1703,-0.0501,0.0604,0.0924,0.3432,0.5782,0.635,0.7663,0.8977,0.9823,1.2388,1.4839,1.5933,1.7477,1.8596,1.9077,1.9299,1.9219,1.8811,1.9118,1.9065,1.829,1.8384,1.8283,1.7796,1.7649,1.7582,1.7582,1.7582,1.7582,1.7582,1.7582,1.7582,1.7582,1.7582,1.7582,1.7582,1.7582,1.7488,1.7301,1.7007,1.6714,1.642,1.6126,1.5932,1.5832,1.5832,1.5832,1.5832,1.5832,1.5832,1.5832,1.5832,1.5832,1.5832,1.5832,1.5832,1.5832,1.5832,1.5832,1.5832,1.5832,1.5832,1.5832,1.5832,1.5832,1.5832,1.5832,1.5439,1.4949,1.4465,1.2721,1.1068,1.0485,0.9118,0.8038,0.8038,0.8038,0.8038,0.8038,0.8038,0.8038,0.8038,0.8038,0.8038,0.8038,0.8038,0.8038,0.8038,0.8038,0.8038,0.8038,0.8038,0.8038,0.8038,0.6734,0.5425,0.4016,0.2715,0.141,0.0,0.0,0.0,0.0,0.0,0.0,0.0,0.0,0.0,-0.1547,-0.0491,0.0698,0.1697,0.2895,0.3717,0.2985,0.4734,0.6746,0.7214,0.8419,0.9979,1.1494,1.4109,1.6202,1.663,1.8217,1.9299,1.9118,1.9252,1.9225,1.8831,1.9045,1.8918,1.8123,1.823,1.8136,1.7622,1.7582,1.7582,1.7582,1.7582,1.7582,1.7582,1.7582,1.7582,1.7582,1.7582,1.7582,1.7582,1.7488,1.7341,1.7141,1.6941,1.6633,1.6259,1.6059,1.5912,1.5832,1.5832,1.5832,1.5832,1.5832,1.5832,1.5832,1.5832,1.5832,1.5832,1.5832,1.5832,1.5832,1.5832,1.5832,1.5832,1.5832,1.5832,1.5832,1.5832,1.5832,1.5832,1.5832,1.5832,1.573,1.5337,1.3494,1.175,1.1365,0.9652,0.8113,0.8113,0.8113,0.8126,0.8174,0.8102,0.8055,0.8106,0.8072,0.8038,0.8038,0.8038,0.8038,0.8038,0.8038,0.8038,0.8038,0.8038,0.8038,0.8038,0.7135,0.6027,0.4718,0.3316,0.2013,0.0706,0.0202,0.0,0.0,0.0,0.0,0.0,0.0,0.0,0.3798,0.4958,0.6072,0.6075,0.7078,0.8065,0.8357,0.7499,0.7111,0.8575,0.9895,1.1267,1.3192,1.4625,1.6172,1.7774,1.8784,1.9158,1.8571,1.8998,1.9145,1.8557,1.8751,1.8698,1.811,1.805,1.7923,1.7609,1.7582,1.7582,1.7582,1.7582,1.7582,1.7582,1.7582,1.7582,1.7582,1.7582,1.7582,1.7575,1.7288,1.7148,1.7148,1.7141,1.6827,1.6273,1.6273,1.6106,1.5832,1.5832,1.5832,1.5832,1.5832,1.5832,1.5832,1.5832,1.5832,1.5832,1.5832,1.5832,1.5832,1.5832,1.5832,1.5832,1.5832,1.5832,1.5832,1.5832,1.5832,1.5832,1.5832,1.5832,1.5439,1.4268,1.2915,1.156,1.0293,0.916,0.8374,0.8272,0.8272,0.8316,0.8459,0.8238,0.8096,0.8248,0.814,0.8041,0.8038,0.8038,0.8038,0.8038,0.8038,0.8038,0.8038,0.8038,0.8038,0.8038,0.8038,0.7434,0.6029,0.4718,0.3414,0.2013,0.0706,0.0,0.0,0.0,0.0,0.0,0.0,0.0,0.6395,0.7357,0.8255,0.8672,0.9739,1.0529,0.9872,0.8834,0.8428,1.0216,1.245,1.4174,1.465,1.6072,1.7434,1.7629,1.8303,1.8691,1.8517,1.8818,1.8918,1.8537,1.8931,1.9005,1.8417,1.8357,1.823,1.7936,1.7709,1.7582,1.7582,1.7582,1.7582,1.7582,1.7582,1.7582,1.7582,1.7582,1.7482,1.7275,1.7188,1.7148,1.7237,1.672,1.644,1.6259,1.6052,1.5912,1.5832,1.5832,1.5832,1.5832,1.5832,1.5832,1.5832,1.5832,1.5832,1.5832,1.5832,1.5832,1.5832,1.5832,1.5832,1.5832,1.5832,1.5832,1.5832,1.5832,1.5832,1.5832,1.5832,1.5832,1.573,1.5337,1.4407,1.3259,1.1875,1.1548,1.0878,0.8831,0.9239,0.9661,0.8682,0.8408,0.8333,0.8279,0.8231,0.8163,0.8055,0.8038,0.8038,0.8038,0.8038,0.8038,0.8038,0.8038,0.8038,0.8038,0.8038,0.7434,0.6029,0.4718,0.3414,0.2013,0.0706,0.0,0.0,0.0,0.0,0.0,0.1008,0.141,0.9823,1.0743,1.159,1.2045,1.2543,1.2522,1.1442,1.0373,1.005,1.1827,1.391,1.5345,1.5348,1.6725,1.7802,1.7615,1.8096,1.8665,1.9076,1.8891,1.8901,1.9257,1.902,1.8921,1.909,1.8517,1.8266,1.8603,1.8513,1.8401,1.8401,1.8909,1.9013,1.8401,1.8401,1.8094,1.7582,1.7582,1.7442,1.7148,1.7148,1.7027,1.6787,1.6433,1.6213,1.6086,1.5905,1.5832,1.5832,1.5832,1.5832,1.5832,1.5832,1.5832,1.5832,1.5832,1.5832,1.5832,1.5832,1.5832,1.5832,1.5832,1.5832,1.5832,1.5832,1.5832,1.5832,1.5832,1.5832,1.5832,1.5832,1.5832,1.5832,1.5832,1.5061,1.4057,1.3259,1.2918,1.2422,1.0653,1.0958,1.1194,0.9811,0.9395,0.9172,0.847,0.8255,0.8143,0.8052,0.8038,0.8038,0.8038,0.8038,0.8065,0.8126,0.8075,0.8065,0.8126,0.8072,0.7637,0.6833,0.5522,0.442,0.3618,0.1712,0.0807,0.0807,0.0303,0.0,0.0,0.141,0.2013,1.3903,1.4615,1.5331,1.5745,1.5107,1.4126,1.3373,1.2303,1.1937,1.3526,1.4631,1.5499,1.5952,1.6889,1.7687,1.7786,1.8259,1.8946,1.9916,1.9318,1.9304,2.0461,1.9283,1.8919,2.0173,1.8942,1.8548,1.9776,1.9849,1.9834,1.9834,2.1041,2.1041,1.9627,1.9627,1.8916,1.7582,1.7555,1.7402,1.7108,1.7081,1.6774,1.6233,1.6259,1.6112,1.5832,1.5832,1.5832,1.5832,1.5832,1.5832,1.5832,1.5832,1.5832,1.5832,1.5832,1.5832,1.5832,1.5832,1.5832,1.5832,1.5832,1.5832,1.5832,1.5832,1.5832,1.5832,1.5832,1.5832,1.5832,1.5832,1.5832,1.5832,1.5832,1.5158,1.4463,1.4382,1.3857,1.3346,1.3051,1.3162,1.2805,1.1507,1.1031,1.0272,0.8692,0.8228,0.8038,0.8038,0.8038,0.8045,0.8058,0.8062,0.8123,0.8279,0.815,0.8123,0.8262,0.8126,0.8038,0.8038,0.6731,0.6029,0.6029,0.3518,0.2213,0.2213,0.1008,0.0404,0.0404,0.1712,0.2314,1.7576,1.7311,1.655,1.7143,1.5704,1.4436,1.5614,1.4997,1.4306,1.4735,1.6007,1.7477,1.8569,1.8128,1.7989,1.9013,1.924,1.9403,1.9643,2.0647,2.1391,2.1699,2.1663,2.1676,2.1996,2.1473,2.1266,2.1578,2.1407,2.1245,2.1245,2.155,2.1041,1.9627,1.9627,1.8916,1.7582,1.7355,1.7094,0.0,1.6573,1.6273,1.5932,1.6166,1.6112,1.5832,1.5832,1.5832,1.5832,1.5832,1.5832,1.5832,1.5832,1.5832,1.5832,1.5832,1.5832,1.5832,1.5832,1.5832,1.5832,1.5832,1.5832,1.5832,1.5832,1.5832,1.5832,1.5832,1.5832,1.5832,1.5832,1.5832,1.5832,1.5832,1.586,1.5626,1.4731,1.5438,1.5725,1.3586,1.4158,1.4495,1.3043,1.1792,1.0461,0.8727,0.8228,0.8038,0.8038,0.8038,0.8085,0.8208,0.8221,0.8279,0.8425,0.8303,0.8235,0.8269,0.8126,0.8038,0.8038,0.6731,0.6029,0.6029,0.4418,0.3615,0.3615,0.3316,0.3115,0.3215,0.452,0.5125,1.9915,1.9076,1.7602,1.7196,1.6036,1.5442,1.6434,1.6208,1.603,1.6972,1.7355,1.7786,1.8506,1.8094,1.7989,1.9428,1.9627,2.0033,2.1355,2.1722,2.2153,2.2775,2.2423,2.2324,2.3057,2.2364,2.2153,2.2775,2.2788,2.2667,2.2667,2.3285,2.2667,2.0641,2.0476,1.9463,1.7582,1.7154,1.6854,1.67,1.6553,1.6326,1.6046,1.6052,1.5979,1.5832,1.5832,1.5832,1.5832,1.5832,1.5832,1.5832,1.5832,1.5832,1.5832,1.5832,1.5832,1.5832,1.5832,1.5832,1.5832,1.5832,1.5832,1.5832,1.5832,1.5832,1.5832,1.5832,1.5832,1.5832,1.5832,1.5832,1.5832,1.5832,1.6052,1.611,1.5556,1.6322,1.6769,1.5428,1.587,1.5962,1.4556,1.3066,1.1611,1.0585,1.0306,0.9801,0.9031,0.8988,0.8873,0.8364,0.833,0.8431,0.8577,0.8459,0.8404,0.8476,0.8272,0.815,0.815,0.7372,0.6933,0.6933,0.5625,0.492,0.492,0.4316,0.4016,0.4016,0.5425,0.6029,2.1203,1.9984,1.8198,1.6635,1.6192,1.6273,1.6567,1.6866,1.7475,1.8881,1.8451,1.8018,1.8421,1.8366,1.8686,1.9956,2.0302,2.1151,2.3384,2.2968,2.2767,2.389,2.3076,2.2868,2.389,2.3076,2.2868,2.3989,2.4097,2.4097,2.4097,2.5051,2.4398,2.1653,2.1354,1.9923,1.7428,1.6947,1.668,1.6627,1.658,1.6433,1.6186,1.5939,1.5832,1.5832,1.5832,1.5832,1.5832,1.5832,1.5832,1.5832,1.5832,1.5832,1.5832,1.5832,1.5832,1.5832,1.5832,1.5832,1.5832,1.5832,1.5832,1.5832,1.5832,1.5832,1.5832,1.5832,1.5832,1.5838,1.5892,1.5905,1.5919,1.5965,1.6166,1.6333,1.6286,1.6693,1.7088,1.7141,1.7382,1.7147,1.563,1.4245,1.3179,1.2781,1.2572,1.1969,1.0609,1.0418,0.9925,0.8852,0.8657,0.8584,0.8737,0.8611,0.8564,0.8665,0.8418,0.8258,0.8231,0.8106,0.8038,0.8038,0.6956,0.6361,0.6361,0.5262,0.4754,0.474,0.5854,0.6361,2.1275,1.9637,1.7546,1.6238,1.5885,1.5965,1.6266,1.7394,1.8548,1.9074,1.9085,1.9706,2.188,2.1637,2.1443,2.2423,2.2857,2.3276,2.3683,2.451,2.5226,2.543,2.5226,2.5226,2.543,2.5226,2.5226,2.543,2.543,2.543,2.543,2.5265,2.396,2.137,2.1123,1.9698,1.682,1.6747,1.658,1.6326,1.6066,1.5925,1.5885,1.5845,1.5832,1.5832,1.5832,1.5832,1.5832,1.5832,1.5832,1.5832,1.5832,1.5832,1.5832,1.5832,1.5832,1.5832,1.5832,1.5832,1.5832,1.5832,1.5832,1.5832,1.5832,1.5832,1.5832,1.5832,1.5832,1.5885,1.6146,1.6213,1.6279,1.6526,1.662,1.658,1.6326,1.6533,1.684,1.7094,1.7382,1.7147,1.563,1.5106,1.4503,1.3095,1.2802,1.2654,1.2419,1.141,1.0564,1.0522,0.9404,0.8743,0.8896,0.8767,0.8632,0.852,0.836,0.8211,0.8075,0.8052,0.8038,0.8038,0.7968,0.8031,0.8031,0.7943,0.7833,0.7722,0.7929,0.8031,1.9497,1.8503,1.7456,1.632,1.6079,1.6339,1.7407,1.816,1.923,2.104,2.1419,2.1683,2.2175,2.1769,2.1761,2.3216,2.3574,2.3989,2.4707,2.5333,2.5742,2.5742,2.5742,2.5742,2.5742,2.5742,2.5742,2.5742,2.5742,2.5742,2.5742,2.4717,2.3184,2.1295,2.0135,1.8603,1.6707,1.638,1.6152,1.6025,1.6059,1.5992,1.5838,1.6005,1.5985,1.5832,1.5832,1.5832,1.5832,1.5832,1.5832,1.5832,1.5832,1.5832,1.5832,1.5832,1.5832,1.5832,1.5832,1.5832,1.5832,1.5832,1.5832,1.5832,1.5832,1.5832,1.5832,1.5832,1.5945,1.6106,1.6239,1.6393,1.6547,1.6673,1.6834,1.6874,1.658,1.6747,1.7041,1.7335,1.7495,1.7364,1.6711,1.6615,1.6273,1.5475,1.5125,1.4755,1.4033,1.2597,1.1444,1.0907,0.9641,0.8832,0.8811,0.875,0.8645,0.8492,0.8347,0.8241,0.817,0.8085,0.8079,0.8167,0.8235,0.8272,0.8272,0.8414,0.8452,0.8387,0.8306,0.8313,1.7963,1.7505,1.7095,1.6395,1.6497,1.7106,1.8385,1.9298,2.05,2.2734,2.3409,2.3331,2.2519,2.2296,2.26,2.3806,2.4039,2.445,2.5363,2.5566,2.5566,2.5566,2.5674,2.5742,2.5742,2.5742,2.5742,2.5742,2.5635,2.5363,2.5072,2.3771,2.2215,2.0541,1.8989,1.7674,1.648,1.6046,1.5832,1.5832,1.6052,1.6046,1.5838,1.6059,1.6039,1.5832,1.5832,1.5832,1.5832,1.5832,1.5832,1.5832,1.5832,1.5832,1.5832,1.5832,1.5832,1.5832,1.5832,1.5832,1.5832,1.5832,1.5832,1.5832,1.5832,1.5832,1.5845,1.5919,1.6106,1.6306,1.6453,1.666,1.684,1.6907,1.7101,1.7174,1.6881,1.6994,1.7215,1.7428,1.7528,1.7582,1.7582,1.7582,1.7508,1.7295,1.7007,1.6531,1.5661,1.4065,1.267,1.1616,1.0272,0.9201,0.8723,0.8747,0.8686,0.8496,0.8418,0.8367,0.8326,0.8214,0.8208,0.8323,0.8364,0.8384,0.8384,0.8526,0.8577,0.8537,0.8431,0.8438,1.7692,1.685,1.5927,1.5845,1.7003,1.8252,1.8574,2.0948,2.3078,2.2991,2.3758,2.4361,2.4287,2.4956,2.5373,2.5061,2.5003,2.5003,2.5107,2.5098,2.5098,2.5098,2.5478,2.5742,2.5742,2.5742,2.5742,2.5742,2.5342,2.4612,2.3538,2.2599,2.095,1.8502,1.8185,1.7368,1.5879,1.5845,1.5832,1.5832,1.5845,1.5845,1.5832,1.5845,1.5845,1.5832,1.5832,1.5832,1.5832,1.5832,1.5832,1.5832,1.5832,1.5832,1.5832,1.5832,1.5832,1.5832,1.5832,1.5832,1.5832,1.5832,1.5832,1.5832,1.5832,1.5832,1.5885,1.6166,1.6259,1.64,1.6961,1.7114,1.7194,1.7468,1.7549,1.7482,1.7188,1.7141,1.7154,1.7271,1.7395,1.7582,1.7582,1.7582,1.7582,1.7562,1.7315,1.7228,1.739,1.5909,1.4483,1.3332,1.1855,1.0385,0.8828,0.8845,0.8801,0.8503,0.8611,0.8621,0.8476,0.8462,0.8462,0.8472,0.8615,0.8686,0.8686,0.8842,0.8842,0.8699,0.8689,0.8693,1.7692,1.7956,1.8265,1.8387,1.8746,1.9536,2.1122,2.2021,2.2784,2.407,2.4648,2.4746,2.4473,2.4678,2.4932,2.5049,2.5068,2.5166,2.5459,2.5254,2.5176,2.5459,2.5635,2.5742,2.5742,2.5742,2.5615,2.5332,2.5156,2.4459,2.2935,2.1541,2.0041,1.8354,1.7215,1.6402,1.5832,1.5832,1.6204,1.7037,1.7037,1.7037,1.7037,1.7037,1.6574,1.5832,1.5832,1.5832,1.5832,1.5832,1.5832,1.5832,1.5832,1.5832,1.5832,1.5832,1.5832,1.5832,1.5832,1.5832,1.5832,1.5832,1.5832,1.5865,1.6052,1.5979,1.5932,1.6413,1.6553,1.664,1.7048,1.7288,1.7455,1.7555,1.7582,1.7555,1.7448,1.7428,1.7428,1.7428,1.7508,1.7582,1.7582,1.7582,1.7582,1.7582,1.7335,1.7255,1.7549,1.6045,1.4605,1.3455,1.1969,1.0494,0.8828,0.876,0.8703,0.8496,0.8533,0.854,0.8482,0.8482,0.8526,0.8625,0.8682,0.871,0.871,0.8862,0.891,0.8855,0.8757,0.8764,1.7654,1.8596,1.9546,1.9693,2.0038,2.0709,2.233,2.2887,2.3345,2.4477,2.4756,2.4668,2.4092,2.4219,2.456,2.5,2.5068,2.5176,2.5469,2.5254,2.5176,2.5478,2.5644,2.5742,2.5742,2.5742,2.5615,2.5312,2.5019,0.0,2.2132,2.1052,1.9936,1.8746,1.6767,1.6015,1.6386,1.648,1.685,1.7692,1.8141,1.8319,1.8319,1.787,1.7225,1.6386,1.6015,1.5832,1.5832,1.5832,1.5832,1.5832,1.5832,1.6015,1.6386,1.592,1.6109,1.6386,1.592,1.5832,1.5832,1.5832,1.5832,1.5865,1.6066,1.6052,1.6079,1.6567,1.6774,1.6921,1.7215,1.7442,1.7582,1.7582,1.7582,1.7582,1.7582,1.7582,1.7582,1.7582,1.7582,1.7582,1.7582,1.7582,1.7582,1.7582,1.7335,1.7255,1.7549,1.6045,1.4605,1.3455,1.1969,1.0494,0.8828,0.8757,0.872,0.8567,0.8608,0.8635,0.8635,0.8635,0.8682,0.8784,0.8788,0.8788,0.8788,0.8889,0.894,0.8937,0.8835,0.8842,0.0,0.0,0.0,1.9588,2.0789,2.2016,2.2025,2.356,2.4775,2.3955,2.4111,2.4141,2.331,2.3857,2.458,2.5,2.5068,2.5068,2.5088,2.5078,2.5068,2.5088,2.5469,2.5742,2.5742,2.5742,2.5732,2.5723,2.4912,2.3355,2.0937,2.1077,2.0747,1.9588,1.7203,1.648,1.7777,1.7777,1.7777,1.7777,1.8948,1.9579,1.9488,1.8319,1.7684,1.7598,1.6386,1.5832,1.5832,1.5832,1.5832,1.5832,1.5825,1.6574,1.7598,1.6292,1.6669,1.7505,1.6197,1.5832,1.5832,1.5832,1.5832,1.5832,1.5838,1.6046,1.6333,1.6633,1.6927,1.7215,1.7508,1.7582,1.7582,1.7582,1.7582,1.7582,1.7582,1.7582,1.7582,1.7582,1.7582,1.7582,1.7582,1.7582,1.7582,1.7582,1.7341,1.7261,1.7549,1.6057,1.4505,1.3352,1.1973,1.0494,0.8838,0.8852,0.8876,0.8726,0.8855,0.894,0.894,0.894,0.894,0.894,0.894,0.894,0.894,0.894,0.894,0.894,0.8944,0.8944,1.8734,0.0,0.0,0.0,0.0,0.0,2.3252,2.3451,2.3691,2.3769,2.3887,2.3887,2.3652,2.4307,2.4922,2.5049,2.5068,2.5176,2.5508,2.5273,2.5195,2.5518,2.5664,2.5742,2.5742,2.5742,2.5605,0.0,2.4736,2.3623,2.1817,2.058,1.9852,1.9488,1.8856,1.8672,1.9047,1.9047,1.9405,2.0305,2.0666,2.0845,2.0755,1.9579,1.8503,1.7598,1.6386,1.5832,1.5832,1.5832,1.5832,1.592,1.685,1.7412,1.7692,1.7318,1.7412,1.7505,1.6197,1.5832,1.5832,1.5832,1.5832,1.5872,1.6086,1.6206,1.638,1.6887,1.7088,1.7215,1.7508,1.7582,1.7582,1.7582,1.7582,1.7582,1.7582,1.7582,1.7582,1.7582,1.7582,1.7582,1.7582,1.7582,1.7582,1.7582,1.7515,1.7167,1.6162,1.5571,1.4377,1.1964,1.1324,1.0437,0.8989,0.8913,0.892,0.8879,0.8916,0.894,0.894,0.894,0.894,0.894,0.894,0.894,0.894,0.894,0.894,0.894,0.9045,0.9039,1.9096,2.1022,2.3135,2.3135,0.0,0.0,2.3457,2.3467,2.3428,2.3506,2.3662,2.374,2.3555,2.4072,2.459,2.4766,2.4951,2.5225,2.5674,2.5518,2.5439,2.5703,2.5742,2.5742,2.5742,2.5742,2.5635,2.5371,2.4775,2.3866,2.2541,2.0624,1.9943,2.0953,2.0042,1.9761,2.0215,2.0215,2.0576,2.1293,2.1845,2.2031,2.2031,2.0305,1.9131,1.8319,1.6567,1.6109,1.6574,1.6574,1.6574,1.6669,1.7412,1.8319,1.9039,1.8048,1.8048,1.8226,1.6386,1.5832,1.5832,1.5832,1.5832,1.5865,1.6039,1.6259,1.6526,1.6867,1.7141,1.7368,1.7542,1.7582,1.7582,1.7582,1.7582,1.7582,1.7582,1.7582,1.7582,1.7582,1.7582,1.7582,1.7582,1.7582,1.7582,1.7582,1.7582,1.7041,1.563,1.4883,1.3691,1.1324,1.0566,0.9809,0.8937,0.894,0.894,0.894,0.894,0.894,0.894,0.894,0.894,0.894,0.894,0.894,0.894,0.894,0.894,0.8944,0.9086,0.911,1.8987,2.1074,2.3135,2.3135,2.3135,0.0,2.3135,2.3437,2.3603,2.3223,2.3447,2.3613,2.3271,2.3564,2.3984,2.4355,2.4824,2.5283,2.5684,2.5742,2.5752,2.5801,2.5762,2.5752,2.5801,2.5762,2.5742,2.5742,2.4912,2.4043,2.3184,2.1042,2.0863,2.3047,2.1042,2.0395,2.148,2.148,2.148,2.148,2.2589,2.3135,2.3047,2.0764,1.967,1.9579,1.7117,1.6756,1.787,1.7777,1.7692,1.7692,1.7956,1.9222,2.0666,1.868,1.8503,1.8948,1.656,1.5832,1.5832,1.5832,1.5832,1.5832,1.5832,1.6239,1.672,1.6787,1.7181,1.7582,1.7582,1.7582,1.7582,1.7582,1.7582,1.7595,1.7622,1.7609,1.7602,1.7669,1.7629,1.7582,1.7582,1.7582,1.7582,1.7582,1.7477,1.6823,1.531,1.3911,1.2512,1.1214,0.9809,0.8937,0.9158,0.9047,0.894,0.894,0.894,0.894,0.894,0.894,0.894,0.894,0.894,0.894,0.894,0.894,0.894,0.8944,0.9103,0.9167,1.8671,2.0857,2.3135,2.3135,2.3135,0.0,2.3135,2.3203,2.3242,2.3154,2.3203,2.335,2.3613,2.4014,2.4316,2.4404,2.5088,2.5635,2.5723,2.5742,2.5869,2.6221,2.5947,2.5879,2.623,2.5947,2.5742,2.5742,2.4912,2.4043,2.3184,2.2677,2.2589,2.3057,2.2687,2.2501,2.2775,2.2775,2.2775,2.2765,2.296,2.3135,2.3047,2.1578,2.0935,2.0845,1.8403,1.8041,1.9039,1.8141,1.7692,1.787,1.9852,1.967,1.8503,1.8956,1.868,1.787,1.6292,1.5832,1.5832,1.5832,1.5832,1.5832,1.5832,1.6239,1.6807,1.7281,1.7495,1.7582,1.7582,1.7582,1.7582,1.7582,1.7582,1.7649,1.7903,1.7762,1.7729,1.8217,1.7916,1.7582,1.7582,1.7582,1.7582,1.7582,1.6605,1.531,1.3911,1.2403,1.1428,1.1105,0.9809,0.9372,1.0566,0.9588,0.894,0.894,0.894,0.894,0.894,0.894,0.894,0.894,0.894,0.894,0.894,0.894,0.894,0.8947,0.9211,0.9269,1.9264,2.1235,0.0,2.3135,2.3135,0.0,0.0,2.3135,2.3135,2.3135,2.3135,2.3203,2.3428,2.3633,2.3848,2.4062,2.4473,2.4834,2.5049,2.5459,2.5898,2.6338,2.6006,2.5908,2.6348,2.5996,2.5644,2.542,2.5,2.4365,2.3516,2.3467,2.3359,2.3144,2.3135,2.3135,2.3135,2.3135,2.3135,2.3135,2.3135,2.3135,2.3047,2.1845,2.1293,2.1203,1.9405,1.9314,2.0395,1.9761,1.9497,1.9579,2.0845,2.0576,1.9497,1.9497,1.8772,1.7505,1.6197,1.5832,1.5832,1.5832,1.5832,1.5852,1.6005,1.646,1.7021,1.7462,1.7582,1.7582,1.7582,1.7582,1.7582,1.7582,1.7702,1.7856,1.8016,1.7923,1.7949,1.8404,1.8003,1.7682,1.7983,1.7909,1.7595,1.6813,1.5934,1.4663,1.2512,1.2186,1.1973,1.1214,1.0457,1.0351,1.1,0.9699,0.894,0.894,0.894,0.894,0.894,0.894,0.894,0.894,0.894,0.894,0.894,0.9011,0.9045,0.9052,0.9276,0.9381,1.9951,0.0,0.0,0.0,0.0,2.3135,0.0,0.0,0.0,2.3135,2.3135,2.3135,2.3135,2.3213,2.335,2.3623,2.3809,2.4004,2.4258,2.498,0.0,2.6201,2.5879,2.581,2.6338,2.5996,2.5557,2.5098,2.5068,2.4697,2.3838,2.3789,2.3584,2.3154,2.3135,2.3135,2.3135,2.3135,2.3135,2.3135,2.3135,2.3135,2.3047,2.212,2.1667,2.1569,2.0395,2.0486,2.1658,2.1391,2.148,2.1667,2.1667,2.1391,2.0845,1.9852,1.8772,1.7505,1.6197,1.5832,1.5832,1.5832,1.5865,1.5972,1.6266,1.6727,1.7215,1.7502,1.7582,1.7582,1.7582,1.7582,1.7582,1.7582,1.7776,1.7976,1.8029,1.8003,1.8063,1.8424,1.8043,1.7829,1.8323,1.8156,1.7404,1.606,1.5331,1.4019,1.1433,1.2186,1.2512,1.1647,1.1538,1.1538,1.1538,1.0457,0.9493,0.8977,0.9196,0.921,0.9022,0.8994,0.8967,0.894,0.894,0.8954,0.8981,0.9096,0.9154,0.9157,0.934,0.9493,0.0,0.0,0.0,0.0,2.3135,0.0,0.0,0.0,2.3135,2.3135,0.0,2.3135,2.3135,0.0,0.0,2.3271,2.3848,2.4228,2.3906,2.4268,2.4873,2.5713,2.542,2.5469,2.6309,2.5996,2.5557,2.5098,2.5068,2.4697,2.3838,2.3789,2.3584,2.3154,2.3135,2.3135,2.3135,2.3135,2.3135,2.3135,2.3135,2.3135,2.3135,2.296,2.2862,2.2862,2.1578,2.1756,2.2775,2.1747,2.1933,2.2862,2.2862,2.1587,1.9679,1.9579,1.8772,1.7505,1.6197,1.5832,1.5832,1.5832,1.6005,1.6273,1.6567,1.6887,1.7215,1.7502,1.7582,1.7582,1.7582,1.7582,1.7582,1.7582,1.7609,1.7709,1.7989,1.7829,1.7802,1.8377,1.8223,1.8016,1.8083,1.7842,1.7199,1.5678,1.4358,1.294,1.1324,1.1214,1.1755,1.294,1.3048,1.3048,1.3048,1.294,1.1717,0.9342,1.0347,1.0525,0.9439,0.9201,0.9069,0.894,0.894,0.9001,0.9127,0.9147,0.9154,0.9161,0.9449,0.9595,0.0,0.0,0.0,0.0,0.0,0.0,2.3086,0.0,2.3135,0.0,0.0,0.0,0.0,0.0,0.0,0.0,2.3437,2.3613,2.3437,2.3564,2.4092,2.5215,0.0,0.0,2.5205,2.5547,2.5449,2.4736,2.5166,2.5078,2.4199,2.415,2.3955,2.3525,2.3271,2.3135,2.3135,2.3135,2.3135,2.3135,2.3135,2.3135,2.3135,2.3135,2.3135,2.3047,2.258,2.2589,2.3047,2.258,2.2677,2.3135,2.3135,2.2041,2.0486,1.9761,1.8772,1.7505,1.6197,1.5832,1.5832,1.5832,1.6146,1.6547,1.6667,1.7034,1.7428,1.7549,1.7582,1.7582,1.7582,1.7582,1.7582,1.7582,1.7722,1.7883,1.8016,1.7943,1.7976,1.8404,1.8103,1.7609,1.6894,1.6711,1.6079,1.4658,1.3019,1.1755,1.1214,1.1105,1.1647,1.3156,1.2512,1.245,1.3446,1.2798,1.1788,1.0744,1.0417,0.9953,0.9363,0.9273,0.9215,0.9066,0.915,0.9225,0.9286,0.9374,0.9418,0.9422,0.9551,0.9652,2.0061,0.0,0.0,0.0,0.0,0.0,0.0,0.0,0.0,0.0,0.0,0.0,0.0,0.0,2.3135,2.3135,0.0,2.3135,2.3135,2.3135,2.3535,2.459,2.4541,0.0,0.0,2.5,2.5107,2.4463,2.501,2.5039,2.4287,2.4248,2.4053,2.3623,2.3301,2.3135,2.3135,2.3135,2.3135,2.3135,2.3135,2.3135,2.3135,2.3135,2.3135,2.3135,2.3135,2.3135,2.3135,2.3135,2.3135,2.3135,2.3135,2.258,2.1667,2.0395,1.9405,1.8503,1.721,1.6567,1.6292,1.6292,1.6511,1.6707,1.6707,1.7114,1.7582,1.7582,1.7582,1.7582,1.7582,1.7582,1.7582,1.7582,1.7756,1.7916,1.7916,1.7916,1.7983,1.8196,1.7883,1.7212,1.5994,1.5808,1.5149,1.3282,1.2279,1.1542,1.1105,1.1476,1.2379,1.3898,1.3083,1.2961,1.4335,1.38,1.3336,1.3098,1.1213,1.0124,0.996,0.9613,0.9351,0.9157,0.9303,0.9381,0.9381,0.9534,0.9629,0.9666,0.9666,0.9724,0.0,0.0,0.0,2.0789,0.0,0.0,0.0,0.0,2.2646,0.0,0.0,0.0,2.3066,2.3135,2.3135,0.0,0.0,0.0,0.0,2.3135,2.331,2.3779,2.418,2.4414,0.0,2.4443,2.4443,0.0,2.4443,2.4268,2.3838,2.3809,2.3613,2.3174,2.3144,2.3135,2.3135,2.3135,2.3135,2.3135,2.3135,2.3135,2.3135,2.3135,2.3135,2.3135,2.3135,2.3135,2.3135,2.3135,2.3135,2.3135,2.3135,2.3047,2.2862,2.1667,2.1203,2.1025,1.9761,1.8588,1.7598,1.7598,1.718,1.6707,1.6707,1.7114,1.7582,1.7582,1.7582,1.7582,1.7582,1.7582,1.7582,1.7582,1.7589,1.7595,1.7595,1.7595,1.7602,1.7609,1.7595,1.7153,1.5642,1.5429,1.446,1.1655,1.2299,1.2729,1.1324,1.2473,1.4035,1.5684,1.5911,1.6057,1.6175,1.7439,1.7677,1.6436,1.3627,1.1992,1.1921,1.0414,0.9459,0.9157,0.9303,0.9381,0.9381,0.9534,0.968,0.9815,0.9815,0.9819,0.0,0.0,1.8533,1.9758,0.0,0.0,0.0,0.0,0.0,0.0,0.0,0.0,0.0,2.3714,2.3963,0.0,0.0,0.0,0.0,2.3714,2.4272,2.4426,2.4167,2.3887,0.0,0.0,0.0,0.0,2.4092,0.0,2.3809,2.3789,2.3721,2.3574,2.3291,2.3135,2.3135,2.3135,2.3135,2.3135,2.3135,2.3135,2.3135,2.3135,2.3135,2.3135,2.3135,2.3135,2.3135,2.3135,2.3135,2.3135,2.3135,2.3135,2.295,2.1756,2.1293,2.1114,1.9943,1.883,1.8006,1.8006,1.7583,1.7001,1.7001,1.7275,1.7582,1.7582,1.7736,1.7889,1.7889,1.7889,1.7889,1.7889,1.7736,1.7582,1.7582,1.7582,1.7582,1.7582,1.6823,1.5743,1.4234,1.3272,1.2659,1.2531,1.2188,1.244,1.3819,1.2793,1.3039,1.558,1.4361,1.4106,1.6421,1.6911,1.7026,1.6821,1.3711,1.2001,1.2051,1.052,0.9656,0.9459,0.9598,0.9673,0.9673,0.9724,0.9774,0.9822,0.9822,0.9822,1.6124,1.6445,0.0,1.8616,1.9475,0.0,2.2587,0.0,2.3428,0.0,0.0,0.0,0.0,0.0,0.0,0.0,0.0,0.0,0.0,2.4713,2.521,2.4872,2.439,2.4035,2.3744,2.389,2.373,2.3184,2.3652,2.3838,0.0,2.3555,2.3555,2.3555,2.3291,2.3135,2.3135,2.3135,2.3135,2.3135,2.3135,2.3135,2.3135,2.3135,2.3135,2.3135,2.3135,2.3135,2.3135,2.3135,2.3135,2.3135,2.3135,2.3135,2.3047,2.2217,2.1943,2.1845,2.1033,2.0196,1.9391,1.8917,1.8316,1.7851,1.7346,1.7355,1.7582,1.7582,1.7809,1.8023,1.7909,1.7963,1.8016,1.7909,1.7729,1.7582,1.7582,1.7669,1.7749,1.7749,1.706,1.603,1.4593,1.3679,1.3053,1.2659,1.246,1.3097,1.5384,1.424,1.4163,1.6648,1.495,1.4688,1.7401,1.7541,1.7383,1.7073,1.4345,1.2627,1.2031,1.0601,0.9778,0.9686,0.9774,0.9822,0.9822,0.9822,0.9822,0.9822,0.9822,0.9822]},{"header":{"parameterUnit":"m.s-1","parameterCategory":1,"la1":30.6,"la2":29.2853,"lo1":-89.7004,"lo2":-87.6739,"dy":0.0162,"dx":0.0183,"nx":112,"ny":82,"refTime":"2023-05-30T12:00:00:Z","depth":0,"parameterNumber":3,"parameterNumberName":"V-component_of_WINDS"},"data":[0.0,0.0,0.0,0.0,0.0,0.0,0.0,0.0,0.0,0.0,0.0,0.0,0.0,0.0,0.0,0.0,0.0,0.0,0.0,0.0,0.0,0.0,0.0,0.0,0.0,0.0,0.0,0.0,0.0,0.0,0.0,0.0,0.0,0.0,0.0,0.0,0.0,0.0,0.0,0.0,0.0,0.0,0.0,0.0,0.0,0.0,0.0,0.0,0.0,0.0,0.0,0.0,0.0,0.0,0.0,0.0,0.0,0.0,0.0,0.0,0.0,0.0,0.0,0.0,0.0,0.0,0.0,0.0,0.0,0.0,0.0,0.0,0.0,0.0,0.0,0.0,0.0,0.0,0.0,0.0,0.0,0.0,0.0,0.0,0.0,0.0,0.0,0.0,0.0,0.0,2.3613,2.0584,0.9109,0.3208,0.7002,1.0243,1.4341,1.9655,0.0,0.0,0.0,0.0,0.0,0.0,0.0,0.0,0.0,0.0,0.0,0.0,0.0,0.0,0.0,0.0,0.0,0.0,0.0,0.0,0.0,0.0,0.0,0.0,0.0,0.0,0.0,0.0,0.0,0.0,0.0,0.0,0.0,0.0,0.0,0.0,0.0,0.0,0.0,0.0,0.0,0.0,0.0,0.0,0.0,0.0,0.0,0.0,0.0,0.0,0.0,0.0,0.0,0.0,0.0,0.0,0.0,0.0,0.0,0.0,0.0,0.0,0.0,0.0,0.0,0.0,0.0,0.0,0.0,0.0,0.0,0.0,0.0,0.0,0.0,0.0,0.0,0.0,0.0,0.0,0.0,0.0,0.0,0.0,0.0,0.0,0.0,0.0,0.0,0.0,0.0,0.0,0.0,0.0,0.0,0.0,0.0,0.0,0.0,0.0,0.0,0.0,0.0,0.0,2.116,1.3324,0.8032,0.6196,0.9045,1.4244,1.8347,2.0727,0.0,0.0,0.0,0.0,0.0,0.0,0.0,0.0,0.0,0.0,0.0,0.0,0.0,0.0,0.0,0.0,0.0,0.0,0.0,0.0,0.0,0.0,0.0,0.0,0.0,0.0,0.0,0.0,0.0,0.0,0.0,0.0,0.0,0.0,0.0,0.0,0.0,0.0,0.0,0.0,0.0,0.0,0.0,0.0,0.0,0.0,0.0,0.0,0.0,0.0,0.0,0.0,0.0,0.0,0.0,0.0,0.0,0.0,0.0,0.0,0.0,0.0,0.0,0.0,0.0,0.0,0.0,0.0,0.0,0.0,0.0,0.0,0.0,0.0,0.0,0.0,0.0,0.0,0.0,0.0,0.0,0.0,0.0,0.0,0.0,0.0,0.0,0.0,0.0,0.0,0.0,0.0,0.0,0.0,0.0,0.0,0.0,0.0,0.0,0.0,0.0,0.0,0.0,2.2066,1.8886,1.4134,1.0866,0.9611,1.1125,1.4324,1.655,1.7142,2.012,0.0,0.0,0.0,0.0,0.0,0.0,0.0,0.0,0.0,0.0,0.0,0.0,0.0,0.0,0.0,0.0,0.0,0.0,0.0,0.0,0.0,0.0,0.0,0.0,0.0,0.0,0.0,0.0,0.0,0.0,0.0,0.0,0.0,0.0,0.0,0.0,0.0,0.0,0.0,0.0,0.0,0.0,0.0,0.0,0.0,0.0,0.0,0.0,0.0,0.0,0.0,0.0,0.0,0.0,0.0,0.0,0.0,0.0,0.0,0.0,0.0,0.0,0.0,0.0,0.0,0.0,0.0,0.0,0.0,0.0,0.0,0.0,0.0,0.0,0.0,0.0,0.0,0.0,0.0,0.0,0.0,0.0,0.0,0.0,0.0,0.0,0.0,0.0,0.0,0.0,0.0,0.0,0.0,0.0,0.0,0.0,0.0,0.0,0.0,0.0,0.0,0.0,1.9641,1.7446,1.5728,1.3367,1.1992,1.2141,1.3012,1.3571,1.3699,1.572,0.0,0.0,0.0,0.0,0.0,0.0,0.0,0.0,0.0,0.0,0.0,0.0,0.0,0.0,0.0,0.0,0.0,0.0,0.0,0.0,0.0,0.0,0.0,0.0,0.0,0.0,0.0,0.0,0.0,0.0,0.0,0.0,0.0,0.0,0.0,0.0,0.0,0.0,0.0,0.0,0.0,0.0,0.0,0.0,0.0,0.0,0.0,0.0,0.0,0.0,0.0,0.0,0.0,0.0,0.0,0.0,0.0,0.0,0.0,0.0,0.0,0.0,0.0,0.0,0.0,0.0,0.0,0.0,0.0,0.0,0.0,0.0,0.0,0.0,0.0,0.0,0.0,0.0,0.0,0.0,0.0,0.0,0.0,0.0,0.0,0.0,0.0,0.0,0.0,0.0,0.0,0.0,0.0,0.0,0.0,0.0,0.0,0.0,0.0,0.0,0.0,0.0,1.9609,1.7495,1.4456,1.3168,1.2043,1.0935,1.0908,1.1539,1.2997,1.2696,0.0,0.0,0.0,0.0,0.0,0.0,0.0,0.0,0.0,0.0,0.0,0.0,0.0,0.0,0.0,0.0,0.0,0.0,0.0,0.0,0.0,0.0,0.0,0.0,0.0,0.0,0.0,0.0,0.0,0.0,0.0,0.0,0.0,0.0,0.0,0.0,0.0,0.0,0.0,0.0,0.0,0.0,0.0,0.0,0.0,0.0,0.0,0.0,0.0,0.0,0.0,0.0,0.0,0.0,0.0,0.0,0.0,0.0,0.0,0.0,0.0,0.0,0.0,0.0,0.0,0.0,0.0,0.0,0.0,0.0,0.0,0.0,0.0,0.0,0.0,0.0,0.0,0.0,0.0,0.0,0.0,0.0,0.0,0.0,0.0,0.0,0.0,0.0,0.0,0.0,0.0,0.0,0.0,0.0,0.0,0.0,0.0,0.0,0.0,0.0,0.0,0.0,1.8137,1.545,1.3122,1.1439,1.0002,0.89,0.9491,0.9995,0.9993,0.0,0.0,0.0,0.0,0.0,0.0,0.0,0.0,0.0,0.0,0.0,0.0,0.0,0.0,0.0,0.0,0.0,0.0,0.0,0.0,0.0,0.0,0.0,0.0,0.0,0.0,0.0,0.0,0.0,0.0,0.0,0.0,0.0,0.0,0.0,0.0,0.0,0.0,0.0,0.0,0.0,0.0,0.0,0.0,0.0,0.0,0.0,0.0,0.0,0.0,0.0,0.0,0.0,0.0,0.0,0.0,0.0,0.0,0.0,0.0,0.0,0.0,0.0,0.0,0.0,0.0,0.0,0.0,0.0,0.0,0.0,0.0,0.0,0.0,0.0,0.0,0.0,0.0,0.0,0.0,0.0,0.0,0.0,0.0,0.0,0.0,0.0,0.0,0.0,0.0,0.0,0.0,0.0,0.0,0.0,0.0,0.0,0.0,0.0,0.0,0.0,0.0,2.0667,1.7007,1.3833,1.1792,0.9976,0.8658,0.8012,0.8602,0.8914,0.8732,0.0,0.0,0.0,0.0,0.0,0.0,0.0,0.0,0.0,0.0,0.0,0.0,0.0,0.0,0.0,0.0,0.0,0.0,0.0,0.0,0.0,0.0,0.0,0.0,0.0,0.0,0.0,0.0,0.0,0.0,0.0,0.0,0.0,0.0,0.0,0.0,0.0,0.0,0.0,0.0,0.0,0.0,0.0,0.0,0.0,0.0,0.0,0.0,0.0,0.0,0.0,0.0,0.0,0.0,0.0,0.0,0.0,0.0,0.0,0.0,0.0,0.0,0.0,0.0,0.0,0.0,0.0,0.0,0.0,0.0,0.0,0.0,0.0,0.0,0.0,0.0,0.0,0.0,0.0,0.0,0.0,0.0,0.0,0.0,0.0,0.0,0.0,0.0,0.0,0.0,0.0,0.0,0.0,0.0,0.0,0.0,0.0,0.0,0.0,0.0,0.0,0.0,2.0172,1.6425,1.3103,1.0478,0.9149,0.8421,0.843,0.8154,0.8546,0.0,0.0,0.0,0.0,0.0,0.0,0.0,0.0,0.0,0.0,0.0,0.0,0.0,0.0,0.0,0.0,0.0,0.0,0.0,0.0,0.0,0.0,0.0,0.0,0.0,0.0,0.0,0.0,0.0,0.0,0.0,0.0,0.0,0.0,0.0,0.0,0.0,0.0,0.0,0.0,0.0,0.0,0.0,0.0,0.0,0.0,0.0,0.0,0.0,0.0,0.0,0.0,0.0,0.0,0.0,0.0,0.0,0.0,0.0,0.0,0.0,0.0,0.0,0.0,0.0,0.0,0.0,0.0,0.0,0.0,0.0,0.0,0.0,0.0,0.0,0.0,0.0,0.0,0.0,0.0,0.0,0.0,0.0,0.0,0.0,0.0,0.0,0.0,0.0,0.0,0.0,0.0,0.0,0.0,0.0,0.0,0.0,0.0,0.0,0.0,0.0,0.0,0.0,2.0606,1.714,1.3934,1.1247,1.0409,0.9669,0.8916,0.8997,0.9186,0.9603,0.0,0.0,0.0,0.0,0.0,0.0,0.0,0.0,0.0,0.0,0.0,0.0,0.0,0.0,0.0,0.0,0.0,0.0,0.0,0.0,0.0,0.0,0.0,0.0,0.0,0.0,0.0,0.0,0.0,0.0,0.0,0.0,0.0,0.0,0.0,0.0,0.0,0.0,0.0,0.0,0.0,0.0,0.0,0.0,0.0,0.0,0.0,0.0,0.0,0.0,0.0,0.0,0.0,0.0,0.0,0.0,0.0,0.0,0.0,0.0,0.0,0.0,0.0,0.0,0.0,0.0,0.0,0.0,0.0,0.0,0.0,0.0,0.0,0.0,0.0,0.0,0.0,0.0,0.0,0.0,0.0,0.0,0.0,0.0,0.0,0.0,0.0,0.0,0.0,0.0,0.0,0.0,0.0,0.0,0.0,0.0,0.0,0.0,0.0,0.0,0.0,0.0,2.1083,1.737,1.4254,1.227,1.1241,1.0528,1.0084,0.998,0.995,0.995,0.0,0.0,0.0,0.0,0.0,0.0,0.0,0.0,0.0,0.0,0.0,0.0,0.0,0.0,0.0,0.0,0.0,0.0,0.0,0.0,0.0,0.0,0.0,0.0,0.0,0.0,0.0,0.0,0.0,0.0,0.0,0.0,0.0,0.0,0.0,0.0,0.0,0.0,0.0,0.0,0.0,0.0,0.0,0.0,0.0,0.0,0.0,0.0,0.0,0.0,0.0,0.0,0.0,0.0,0.0,0.0,0.0,0.0,0.0,0.0,0.0,0.0,0.0,0.0,0.0,0.0,0.0,0.0,0.0,0.0,0.0,0.0,0.0,0.0,0.0,0.0,0.0,0.0,0.0,0.0,0.0,0.0,0.0,0.0,0.0,0.0,0.0,0.0,0.0,0.0,0.0,0.0,0.0,0.0,0.0,0.0,0.0,0.0,0.0,0.0,0.0,0.0,2.1598,1.7448,1.431,1.3338,1.1827,1.109,1.1453,1.1017,1.0681,1.0624,0.0,0.0,0.0,0.0,0.0,0.0,0.0,0.0,0.0,0.0,0.0,0.0,0.0,0.0,0.0,0.0,0.0,0.0,0.0,0.0,0.0,0.0,0.0,0.0,0.0,0.0,0.0,0.0,0.0,0.0,0.0,0.0,0.0,0.0,0.0,0.0,0.0,0.0,0.0,0.0,0.0,0.0,0.0,0.0,0.0,0.0,0.0,0.0,0.0,0.0,0.0,0.0,0.0,0.0,0.0,0.0,0.0,0.0,0.0,0.0,1.916,0.0,0.0,0.0,0.0,0.0,0.0,0.0,0.0,0.0,0.0,0.0,0.0,0.0,0.0,0.0,0.0,0.0,0.0,0.0,0.0,0.0,0.0,0.0,0.0,0.0,0.0,0.0,0.0,0.0,0.0,0.0,0.0,0.0,0.0,0.0,0.0,0.0,0.0,0.0,0.0,0.0,2.196,1.8352,1.5343,1.3691,1.2859,1.2033,1.0995,1.1299,1.1288,1.0624,1.0875,0.0,0.0,0.0,0.0,0.0,0.0,0.0,0.0,0.0,0.0,0.0,0.0,0.0,0.0,0.0,0.0,0.0,0.0,0.0,0.0,0.0,0.0,0.0,0.0,0.0,0.0,0.0,0.0,0.0,0.0,0.0,0.0,0.0,0.0,0.0,0.0,0.0,0.0,0.0,0.0,0.0,0.0,0.0,0.0,0.0,0.0,0.0,0.0,0.0,0.0,0.0,0.0,0.0,0.0,0.0,0.0,0.0,0.0,0.0,0.0,1.9267,0.0,0.0,0.0,0.0,0.0,0.0,0.0,0.0,0.0,0.0,0.0,0.0,0.0,0.0,0.0,0.0,0.0,0.0,0.0,0.0,0.0,0.0,0.0,0.0,0.0,0.0,0.0,0.0,0.0,0.0,0.0,0.0,0.0,0.0,0.0,0.0,0.0,0.0,0.0,0.0,2.2462,1.898,1.6243,1.4959,1.3863,1.2919,1.2175,1.2262,1.2135,1.1631,1.1836,0.0,0.0,0.0,0.0,0.0,0.0,0.0,0.0,0.0,0.0,0.0,0.0,0.0,0.0,0.0,0.0,0.0,0.0,0.0,0.0,0.0,0.0,0.0,0.0,0.0,0.0,0.0,0.0,0.0,0.0,0.0,0.0,0.0,0.0,0.0,0.0,0.0,0.0,0.0,0.0,0.0,0.0,0.0,0.0,0.0,0.0,0.0,0.0,0.0,0.0,0.0,0.0,0.0,2.6643,2.721,2.6532,2.6227,2.5307,2.392,2.2583,2.1435,2.0542,2.2201,0.0,0.0,0.0,0.0,0.0,0.0,0.0,0.0,0.0,0.0,0.0,0.0,0.0,0.0,0.0,0.0,0.0,0.0,0.0,0.0,0.0,0.0,0.0,0.0,2.3293,2.3256,2.3321,0.0,0.0,0.0,0.0,0.0,0.0,0.0,0.0,0.0,0.0,0.0,2.2931,1.9358,1.6811,1.6407,1.4849,1.3741,1.3627,1.3339,1.3142,1.3016,1.3161,1.3956,0.0,0.0,0.0,0.0,0.0,0.0,0.0,0.0,0.0,0.0,0.0,0.0,0.0,0.0,0.0,0.0,0.0,0.0,0.0,0.0,0.0,0.0,0.0,0.0,0.0,0.0,0.0,0.0,0.0,0.0,0.0,0.0,2.5141,2.5936,0.0,0.0,0.0,0.0,0.0,0.0,0.0,0.0,0.0,0.0,0.0,0.0,0.0,2.2833,2.3902,2.5464,2.6304,2.6304,2.7928,2.794,2.6622,2.6545,2.6007,2.4968,2.5105,0.0,2.269,2.3154,0.0,0.0,0.0,0.0,0.0,0.0,0.0,0.0,0.0,0.0,0.0,0.0,0.0,0.0,0.0,0.0,0.0,0.0,0.0,0.0,0.0,0.0,2.5454,2.5169,2.3692,2.2662,0.0,2.4913,2.6101,2.7403,2.8334,0.0,0.0,0.0,0.0,0.0,0.0,0.0,2.293,1.9345,1.6946,1.6879,1.5543,1.4383,1.3684,1.3861,1.4183,1.459,1.4494,1.5397,1.7434,1.7654,0.0,0.0,0.0,0.0,0.0,0.0,0.0,0.0,0.0,0.0,0.0,0.0,0.0,0.0,0.0,0.0,0.0,0.0,0.0,0.0,0.0,0.0,0.0,0.0,0.0,0.0,0.0,0.0,0.0,2.5893,2.5598,2.6877,2.7186,2.7633,0.0,0.0,0.0,0.0,0.0,0.0,0.0,0.0,0.0,2.5642,2.4518,2.4237,2.4887,2.6412,2.7424,2.789,2.9489,3.0138,2.9973,2.9973,2.974,2.9372,2.8962,2.8674,2.8298,2.636,2.6205,2.7247,0.0,0.0,0.0,0.0,3.146,3.1272,3.0485,2.9835,2.9361,2.9729,0.0,0.0,0.0,0.0,0.0,0.0,0.0,0.0,0.0,0.0,2.7515,2.7013,2.6116,2.546,2.5742,2.6374,2.7,0.0,2.8234,2.9391,3.0688,0.0,0.0,0.0,0.0,2.4927,2.3459,2.0471,1.8294,1.7789,1.656,1.5729,1.5624,1.5861,1.6256,1.6891,1.7138,1.7875,1.927,1.9676,2.0869,0.0,0.0,0.0,0.0,0.0,0.0,0.0,0.0,0.0,0.0,0.0,0.0,0.0,0.0,0.0,0.0,0.0,0.0,0.0,0.0,0.0,0.0,0.0,0.0,0.0,0.0,0.0,0.0,2.7569,2.7409,2.8139,2.8906,2.9322,0.0,0.0,0.0,0.0,0.0,0.0,3.0784,2.8186,2.7273,2.8694,2.693,2.6198,2.6742,2.7839,2.8799,2.95,3.0929,3.1888,3.2593,3.2593,3.2593,3.2522,3.1888,3.196,3.2409,2.9314,2.8625,2.9606,3.0719,3.1707,3.2436,3.2533,3.2757,3.2933,3.2178,3.1755,3.1565,3.1632,3.1675,3.1634,3.1343,0.0,0.0,0.0,0.0,3.2882,3.186,3.0597,2.9333,2.8517,2.7967,2.7522,2.7069,2.7316,2.7569,0.0,2.8166,2.9029,3.0097,0.0,0.0,0.0,0.0,2.5191,2.3849,2.1557,1.9757,1.8908,1.7728,1.7141,1.7504,1.7632,1.8024,1.892,1.9541,2.0333,2.1375,2.1853,2.2821,2.4319,0.0,0.0,0.0,0.0,0.0,0.0,0.0,0.0,0.0,0.0,0.0,0.0,0.0,0.0,0.0,0.0,0.0,0.0,0.0,0.0,0.0,0.0,0.0,0.0,0.0,0.0,0.0,0.0,0.0,3.0375,3.233,0.0,0.0,0.0,0.0,3.3819,3.4029,3.425,3.4324,3.2703,3.205,3.2777,3.1013,3.0375,3.0926,3.0966,3.1053,3.1127,3.2092,3.2522,3.2593,3.2593,3.2593,3.2593,3.2522,3.2522,3.2481,3.0935,3.0824,3.1695,3.198,3.258,3.3173,3.3384,3.423,3.5011,3.2875,3.2558,3.3099,3.3071,3.4092,3.5071,3.3754,3.436,0.0,0.0,3.401,3.4218,3.2905,3.1384,3.0104,2.9406,2.8113,2.7001,2.6987,2.7001,2.7252,0.0,2.7752,2.7868,2.9406,0.0,2.8441,2.781,2.7056,2.5807,2.3844,2.2325,2.1095,2.0375,1.9172,1.8418,1.8452,1.8452,1.9,2.0237,2.0964,2.2227,2.4094,2.4409,2.5135,2.6404,2.7033,0.0,0.0,0.0,0.0,0.0,0.0,0.0,0.0,0.0,0.0,0.0,0.0,0.0,0.0,0.0,0.0,0.0,0.0,0.0,0.0,0.0,0.0,0.0,0.0,0.0,0.0,0.0,0.0,3.2546,3.3882,0.0,3.3775,3.4851,3.544,3.5048,3.4678,3.4683,3.5123,3.3634,3.305,3.3681,3.2444,3.1901,3.2105,3.2105,3.2393,3.3031,3.331,3.3822,3.4491,3.4491,3.4491,3.4409,3.3754,3.3891,3.4394,3.3168,3.2917,3.3246,3.3303,3.3922,3.4732,3.5275,3.5799,3.6151,3.5905,3.5641,3.5332,3.4392,3.4216,3.4232,3.3741,3.423,3.4888,3.4382,3.4415,3.4398,3.3403,3.2151,3.0767,2.9689,2.8985,2.844,2.8025,2.8252,2.8641,2.895,2.8084,2.7784,2.9337,2.8667,2.8008,2.8203,2.7261,2.6127,2.5046,2.4047,2.3108,2.2364,2.1157,2.0748,2.1506,2.1173,2.1706,2.3596,2.4276,2.5138,2.6243,2.6367,2.6638,2.7155,2.7832,2.8639,0.0,0.0,0.0,0.0,0.0,0.0,0.0,0.0,0.0,0.0,0.0,0.0,0.0,0.0,0.0,0.0,0.0,0.0,0.0,0.0,0.0,0.0,0.0,0.0,0.0,3.4565,3.4561,3.4156,3.5495,3.6133,3.5184,3.634,3.6903,3.6386,3.5872,3.5689,3.5873,3.4614,3.4053,3.4461,3.3602,3.3101,3.3101,3.3101,3.338,3.4027,3.4327,3.4839,3.5504,3.5782,3.5733,3.5489,3.5355,3.5484,3.5831,3.5454,3.528,3.5295,3.4984,3.529,3.5943,3.6737,3.7024,3.7068,3.7303,3.6933,3.6198,3.5256,3.4792,3.4616,3.4323,3.4759,3.5274,3.5008,3.4758,3.4413,3.37,3.252,3.1194,3.0052,2.9595,2.9271,2.8873,2.9134,2.9406,2.9406,2.8629,2.8248,2.91,2.85,2.8037,2.8554,2.7632,2.6739,2.6312,2.5611,2.491,2.408,2.312,2.2826,2.3635,2.3517,2.399,2.5425,2.6707,2.7726,2.8326,2.8839,2.9148,2.9222,2.9412,3.0022,3.1154,0.0,0.0,0.0,0.0,0.0,0.0,0.0,0.0,0.0,0.0,0.0,0.0,0.0,0.0,0.0,0.0,0.0,0.0,0.0,0.0,0.0,0.0,0.0,3.5844,3.6981,3.7081,3.5158,3.729,3.8154,3.6224,3.8489,3.9429,3.7936,3.7818,3.7456,3.6661,3.5943,3.5569,3.5569,3.4595,3.4148,3.4148,3.4148,3.4148,3.4148,3.5118,3.5569,3.5619,3.6337,3.6228,3.5683,3.7115,3.7338,3.6737,3.7456,3.7822,3.769,3.6964,3.6676,3.6722,3.7515,3.7863,3.7735,3.6998,3.6254,3.5639,3.5607,3.606,3.6501,3.5794,3.6135,3.6586,3.5808,3.5081,3.4374,3.3707,3.2496,3.1292,3.0569,2.9902,2.9451,2.9451,2.9451,2.9451,2.9451,2.9451,2.9271,2.8654,2.8511,2.855,2.8561,2.8045,0.0,2.7509,2.6938,2.6297,2.5577,2.4981,2.466,2.4727,2.5284,2.5673,2.5701,2.8174,2.9885,3.0579,3.1919,3.2624,3.2673,3.1929,3.188,3.2574,0.0,0.0,0.0,0.0,0.0,0.0,0.0,0.0,0.0,0.0,0.0,0.0,0.0,0.0,0.0,0.0,0.0,0.0,0.0,0.0,0.0,3.6969,3.7502,3.7279,3.7998,3.841,3.7838,3.8949,3.9547,3.9009,3.9139,3.9056,3.8628,3.8092,3.769,3.7456,3.7294,3.7191,3.7191,3.6888,3.6736,3.6736,3.6736,3.6736,3.6736,3.704,3.7191,3.7175,3.7397,3.7338,3.7175,3.7648,3.769,3.7515,3.769,3.7822,3.7764,3.7573,3.7456,3.7557,3.8302,3.8611,3.8503,3.7219,3.6669,3.6354,3.5804,3.5716,3.5769,3.5031,3.5352,3.5774,3.5013,3.5047,3.502,3.3748,3.3117,3.2402,3.075,3.0525,3.0576,3.0166,3.0393,3.0699,3.0699,3.0699,3.0377,2.9316,2.9134,2.9029,2.8581,2.836,0.0,2.7646,2.7409,2.7607,2.8384,2.7794,2.8008,2.9518,2.9322,2.9577,3.0592,3.1318,3.2057,3.2714,3.3125,3.3546,3.4039,3.4189,3.437,0.0,0.0,0.0,0.0,0.0,0.0,0.0,0.0,0.0,0.0,0.0,0.0,0.0,0.0,0.0,0.0,0.0,0.0,0.0,0.0,0.0,0.0,3.8125,3.8806,3.8753,3.9118,3.9368,3.9368,3.9833,4.007,4.007,3.9662,3.9262,3.8908,3.8525,3.8149,3.7822,3.7822,3.7822,3.7822,3.7822,3.7822,3.7822,3.7822,3.7822,3.7822,3.7822,3.7822,3.7806,3.8149,3.8092,3.7822,3.8486,3.8541,3.8318,3.8596,3.8778,0.0,0.0,0.0,0.0,0.0,3.8757,3.8362,3.7178,3.6569,3.6214,3.5774,3.5622,3.5514,3.4968,3.5343,3.5719,3.4643,3.466,3.4728,3.3533,3.2986,3.2468,3.1453,3.1493,3.1585,3.1072,3.1206,3.1411,3.123,3.119,0.0,3.0251,2.9935,2.9681,2.9344,2.9061,2.8842,2.8786,2.8537,2.8635,2.9407,2.9152,2.9498,3.1021,3.1006,0.0,0.0,0.0,3.419,3.5052,3.5115,0.0,0.0,0.0,3.6128,3.6099,0.0,0.0,0.0,3.6657,3.709,0.0,0.0,0.0,0.0,0.0,0.0,0.0,0.0,0.0,0.0,0.0,0.0,0.0,0.0,0.0,0.0,3.9174,4.007,4.007,4.007,4.007,4.007,4.007,4.007,4.007,4.007,3.9782,3.9086,3.9032,3.8745,3.8092,0.0,0.0,0.0,0.0,3.8173,3.8173,3.8213,3.827,3.827,3.827,3.827,3.827,3.8912,3.8859,3.8325,3.968,3.9885,3.9301,3.9918,4.0184,4.0068,3.9235,3.8954,3.9013,3.8889,3.8455,3.784,3.7121,0.0,0.0,3.5766,3.5766,3.5718,3.5376,3.5833,3.6203,3.4705,3.4345,3.421,3.339,3.2609,3.2108,3.2435,3.2484,3.2384,3.1951,3.1897,3.1752,3.1428,3.1368,3.1368,3.1368,3.0804,3.0379,3.0376,2.9897,2.9675,3.0208,2.979,2.9483,2.9608,0.0,0.0,3.0959,3.1748,3.2382,3.295,3.4471,3.5828,3.6993,3.696,3.6996,3.719,3.7159,3.7214,3.7285,3.7773,3.798,3.798,3.7542,3.7578,0.0,0.0,0.0,0.0,0.0,0.0,0.0,0.0,0.0,0.0,0.0,0.0,0.0,0.0,0.0,3.8667,3.9512,4.007,4.007,4.007,4.007,4.007,4.007,4.007,4.007,4.007,4.002,3.9901,3.985,3.9799,3.9679,3.9679,3.9679,3.9679,4.0085,4.028,4.028,4.0787,4.1,4.1,0.0,0.0,4.1,4.1171,4.1171,4.1046,4.134,4.1385,4.1181,4.0692,4.0508,4.0421,3.9367,3.9221,3.9414,3.8212,3.7974,3.8123,3.7374,3.7044,3.6904,3.6904,3.6904,3.6763,3.6068,3.6385,0.0,3.5911,3.561,3.5396,3.464,3.3864,3.3124,3.2626,3.2484,3.2484,3.2366,3.2366,3.235,3.2248,3.2248,3.2248,3.2248,3.1565,3.0888,3.0389,3.0205,3.0,2.9643,2.9486,2.9794,3.091,3.1941,3.3043,3.4274,3.5428,3.5854,3.531,3.5011,3.5234,3.6127,3.5507,3.5826,3.7155,3.6934,3.7126,3.7755,3.83,3.8546,3.8546,3.8433,3.8465,0.0,0.0,0.0,0.0,0.0,0.0,0.0,0.0,0.0,0.0,0.0,3.7895,3.866,0.0,4.0596,4.0932,4.1296,4.1418,4.1007,4.0938,4.0737,4.0171,4.007,4.007,4.007,4.007,4.0204,4.0497,4.0497,4.0625,4.0938,4.0938,4.0938,4.0938,4.1223,4.1358,4.1358,4.1664,4.181,4.181,4.181,4.181,4.181,4.181,4.181,4.181,4.181,4.181,4.1775,4.1361,4.1184,4.1107,4.0175,3.9991,4.001,3.8898,3.8438,3.8196,3.7456,3.719,3.719,3.719,3.719,3.7106,3.6524,3.6898,3.7292,3.6128,3.6093,3.6165,3.5413,3.4592,3.3945,3.379,3.3454,3.3105,3.2872,3.284,3.2777,3.255,3.2484,3.2641,3.3013,3.2407,3.1891,3.1994,3.159,3.1348,3.1512,3.1362,3.1379,3.1876,3.289,3.3778,3.4401,3.5361,3.5882,3.5703,3.5311,3.5411,3.6074,3.5714,3.5876,3.6739,3.659,3.6685,3.7116,3.7387,3.775,3.8302,3.8302,3.8427,0.0,0.0,0.0,0.0,0.0,0.0,0.0,3.7888,3.8527,3.808,3.9347,4.0753,4.1375,4.247,4.3304,4.3261,4.3217,4.3005,4.2341,4.2253,4.1903,4.0991,4.0774,4.0688,4.0688,4.0825,4.0951,4.1059,4.1226,4.1453,4.1768,4.181,4.181,4.181,4.1895,4.1979,4.1979,4.2103,4.2144,4.2144,4.2144,4.2144,4.2144,4.2144,4.2144,4.2144,4.2144,4.2055,4.193,4.2073,4.2055,4.1859,4.1413,4.1127,4.0798,3.9815,3.9067,3.8503,3.7755,3.7487,3.7487,3.7487,3.7487,3.7435,3.7172,3.7525,3.7794,3.654,3.6585,3.6867,3.6212,3.5448,3.4889,3.5046,3.4559,3.3909,3.3426,3.3429,3.3394,3.2876,3.3027,3.3384,3.388,3.3479,3.3273,3.386,3.3167,3.2886,3.3828,3.3617,3.3193,3.2785,3.3521,3.4084,3.4135,3.4561,3.5029,3.5465,3.5412,3.5608,3.6205,3.6058,3.6131,3.6445,3.6297,3.6297,3.6445,3.6445,3.6904,3.7748,3.7748,3.8152,3.5201,3.7363,3.901,3.8851,3.9631,4.0754,0.0,4.2316,4.265,4.3209,4.3518,4.3722,4.3793,4.397,4.4077,4.4077,4.4077,4.4041,4.3953,4.3953,4.3908,4.3774,4.3111,4.2688,4.2688,4.3305,4.3147,4.1813,4.2387,4.2475,4.1828,4.181,4.181,4.181,4.2302,4.2616,4.2616,4.3087,4.3321,4.3321,4.3321,4.3321,4.3321,4.3321,4.3321,4.3321,4.3321,4.2919,4.228,4.3028,4.29,4.2298,4.2937,4.2754,4.1862,3.9877,3.9402,3.9626,3.8789,3.8515,3.8515,3.8515,3.8515,3.8546,3.8486,3.8554,3.8572,3.8407,3.8087,3.7764,3.7652,3.7039,3.6266,3.5591,3.5151,3.466,3.3899,3.4303,3.4568,3.3808,3.4869,3.5674,3.4968,3.5066,3.5148,3.4799,3.4058,3.3829,3.4641,3.4712,3.4411,3.3649,3.4658,3.5548,3.5974,3.5643,3.5421,3.5491,3.5049,3.513,3.5904,3.5268,3.5547,3.699,3.6318,3.6299,3.7009,3.7009,3.7088,3.7186,3.7186,3.8014,3.8725,3.9942,4.0411,4.098,4.1875,4.2683,4.2974,4.3703,4.436,4.4641,4.5341,4.5888,4.5888,4.6269,4.6517,4.6265,4.579,4.5572,4.5838,4.5466,4.5503,4.6463,4.6755,4.603,4.3906,4.4006,4.4161,4.4095,4.3914,4.3925,4.414,4.3679,4.3439,4.3439,4.3656,4.3806,4.3806,4.3799,4.3912,4.4154,4.3881,4.3912,4.4154,4.4154,4.4154,4.4154,4.4154,4.3968,4.3669,4.4005,4.38,4.3341,4.3935,4.38,4.3037,4.1013,4.0087,3.9772,3.8982,3.8707,3.8707,3.8707,3.8707,3.8719,3.8884,3.8933,3.8961,3.9163,3.9039,3.8882,3.8882,3.8281,3.7479,3.6633,3.5956,3.5301,3.4493,3.4587,3.4736,3.4381,3.5282,3.6104,3.6216,3.6398,3.6604,3.6851,3.5833,3.5365,3.6276,3.5735,3.5123,3.4794,3.495,3.5355,3.6018,3.5431,3.5011,3.5011,3.4821,3.4845,3.5203,3.4883,3.5034,3.5692,3.5371,3.5371,3.5711,3.5711,3.602,3.6634,3.6634,3.7376,4.0873,4.1902,4.2247,4.302,4.4179,4.5022,4.4631,4.5457,4.6305,4.6305,4.7095,4.777,4.777,4.8251,4.8542,4.8245,4.766,4.736,4.7711,4.7229,4.738,4.8815,4.9325,4.864,4.627,4.6019,4.6061,4.6101,4.5712,4.5562,4.5806,4.5266,4.4825,4.4624,4.458,4.458,4.458,4.4318,4.4318,4.4599,4.429,4.4318,4.458,4.458,4.458,4.458,4.458,4.458,4.458,4.458,4.4447,4.4175,4.4501,4.4269,4.3613,4.1976,4.1014,4.0348,3.9312,3.896,3.896,3.896,3.896,3.898,3.9197,3.9238,3.9289,3.9529,3.9668,3.9754,3.9754,3.9129,3.8353,3.7749,3.674,3.5809,3.5469,3.5354,3.5373,3.5394,3.6036,3.6696,3.7033,3.7149,3.7432,3.8199,3.7155,3.6562,3.7304,3.636,3.5616,3.5613,3.5058,3.4939,3.5522,3.5094,3.4793,3.4793,3.4889,3.4926,3.4926,3.4926,3.4926,3.4926,3.4926,3.4926,3.4926,3.4926,3.5321,3.6083,3.6083,3.6527,4.0281,4.2433,4.4497,4.4523,4.6372,4.8155,4.8155,4.8796,4.937,4.937,4.9389,4.9408,4.9408,4.9445,4.9475,4.9456,4.9418,4.9399,4.9447,4.9409,4.9711,5.0627,4.9994,4.9776,5.053,5.0606,4.9607,4.7248,4.7749,4.7466,4.5908,4.5795,4.5417,4.4617,4.458,4.458,4.458,4.458,4.458,4.458,4.458,4.458,4.458,4.458,4.458,4.458,4.458,4.458,4.458,4.458,4.458,4.458,4.4599,4.4089,4.3208,4.2385,4.2065,4.1801,4.0141,3.9576,3.9576,3.9576,3.9576,3.9576,3.9576,3.9599,3.9599,3.9599,3.9819,4.0081,4.0081,3.9452,3.8804,3.8842,3.7356,3.6128,3.6944,3.7076,3.7055,3.7116,3.7734,3.7992,3.7222,3.7106,3.7385,3.8177,3.7585,3.7073,3.7115,3.6403,3.5875,3.5878,3.5164,3.4713,3.4732,3.4963,3.5088,3.5088,3.532,3.5479,3.5479,3.5479,3.5479,3.5479,3.5479,3.5479,3.5479,3.5479,3.5493,3.5512,3.5512,3.5532,4.1349,4.2598,4.4134,4.5795,4.6833,4.7711,4.8824,4.9315,4.9504,4.9504,4.9051,4.8626,4.8626,4.8626,4.8711,4.8991,4.9043,4.9518,5.0898,5.0639,5.06,5.1442,5.1786,5.1664,5.0932,5.0298,4.9693,4.9119,4.8821,4.8248,4.7365,4.6832,4.6143,4.5282,4.5263,4.5263,4.5263,4.5033,4.5033,4.5263,4.5263,4.5263,4.5263,4.5263,4.5263,4.5263,4.5263,4.5263,4.5263,4.5263,4.514,4.4943,4.518,4.4946,4.441,4.3786,4.356,4.3176,4.0533,3.9599,3.9599,3.9599,3.9599,3.9645,3.9861,3.9922,3.9963,4.0138,4.0285,4.0372,4.0372,4.0145,3.9816,3.9279,3.8197,3.7228,3.6922,3.6427,3.6045,3.608,3.7173,3.8014,3.7745,3.8625,3.9066,3.8225,3.7981,3.7517,3.6424,3.6214,3.597,3.5438,3.5293,3.5223,3.5223,3.5304,3.5369,3.5369,3.4908,3.4911,3.5488,3.4949,3.4911,3.5488,3.5493,3.5493,3.5493,3.5493,3.5522,3.5574,3.5574,3.5574,4.2431,4.3444,4.4643,4.653,4.7264,4.7905,4.928,4.9606,4.9704,5.001,4.935,4.8705,4.8705,4.8667,4.861,4.8567,4.8821,4.9595,5.124,5.1029,5.1221,5.2664,5.309,5.3007,5.2307,5.1203,5.0481,5.0471,5.0202,4.9658,4.8748,4.8222,4.738,4.6163,4.6143,4.5957,4.5586,4.54,4.54,4.5586,4.5586,4.5586,4.5586,4.5586,4.5586,4.5586,4.5586,4.5586,4.5603,4.5648,4.5528,4.5303,4.5563,4.5351,4.4843,4.4498,4.416,4.3554,4.1208,4.0401,4.0401,4.0401,4.0191,4.0022,4.0591,4.0564,4.0364,4.0552,4.061,4.061,4.061,4.0378,4.005,3.9528,3.8504,3.7576,3.7332,3.6861,3.6578,3.6832,3.7758,3.8497,3.8464,3.9354,3.9488,3.7796,3.7903,3.7604,3.597,3.5905,3.5815,3.5296,3.5403,3.5493,3.5493,3.5493,3.5493,3.5493,3.4968,3.493,3.5488,3.4968,3.493,3.5488,3.5522,3.554,3.554,3.5562,3.56,3.5639,3.5639,3.5639,4.3483,4.4848,4.6003,4.6797,4.7742,4.873,4.9586,4.979,5.0024,5.086,5.0195,4.9475,4.9475,4.9421,4.9125,4.8298,4.8971,4.9894,5.076,5.0875,5.1799,5.4223,5.3892,5.3785,5.4575,5.3305,5.2105,5.1307,5.1862,5.1512,4.9877,4.98,4.8973,4.7152,4.7114,4.6631,4.5637,4.562,4.562,4.562,4.562,4.562,4.562,4.562,4.562,4.562,4.562,4.562,4.5618,4.5742,4.5733,4.5635,4.5761,4.5286,4.4582,4.4582,4.4059,4.3201,4.2271,4.1909,4.187,4.1886,4.1309,4.0815,4.1732,4.142,4.0776,4.0788,4.0801,4.0801,4.0801,4.0237,3.9653,3.9665,3.8369,3.7364,3.8198,3.8323,3.8513,3.9215,3.9378,3.9402,3.9389,3.9326,3.8729,3.7035,3.7459,3.7348,3.5718,3.5493,3.5493,3.5493,3.5493,3.5493,3.5493,3.5493,3.5493,3.5493,3.5468,3.5449,3.5493,3.5449,3.5463,3.5501,3.5566,3.5601,3.5601,3.5679,3.571,3.571,3.571,3.571,4.4168,4.517,4.6066,4.6804,4.7684,4.858,4.9445,4.964,4.9744,5.0072,4.8817,4.7661,4.7661,4.861,4.9336,4.9106,5.0856,5.2549,5.3414,5.353,5.3803,5.4547,5.4494,5.4291,5.4056,5.4248,5.4069,5.3324,5.211,5.0938,4.9858,4.98,4.8992,4.7223,4.7165,4.6736,4.5839,4.582,4.582,4.582,4.582,4.582,4.582,4.582,4.582,4.582,4.582,4.582,4.582,4.5862,4.5852,4.582,4.5862,4.5736,4.5541,4.5541,4.5405,4.5094,4.4248,4.3463,4.2854,4.2964,4.285,4.2578,4.2198,4.1907,4.1604,4.0988,4.0801,4.0801,4.0801,4.0645,4.049,4.0482,3.97,3.8999,3.9225,3.8765,3.8357,3.8541,3.9096,3.973,4.0315,3.9917,3.9141,3.8073,3.7529,3.6823,3.5649,3.5493,3.5493,3.5493,3.5493,3.5493,3.5493,3.5493,3.5493,3.5493,3.4891,3.4814,3.5468,3.4909,3.4919,3.5557,3.5648,3.5667,3.5667,3.5696,3.5755,3.5845,3.5845,3.5845,4.4935,4.5532,4.5996,4.6381,4.6855,4.7476,4.8357,4.8594,4.8765,4.9215,4.8178,4.7174,4.7174,4.8502,4.9446,4.9059,5.1169,5.3123,5.3994,5.411,5.4429,5.5261,5.5415,5.5317,5.4962,5.5091,5.5013,5.4609,5.3217,5.1991,5.1118,5.0708,4.9873,4.8477,4.8431,4.7805,4.6491,4.6093,4.5899,4.5899,4.5899,4.5899,4.5899,4.5899,4.5899,4.5899,0.0,4.5899,4.5907,4.5955,4.594,4.5907,4.5955,4.5988,4.5988,4.5988,4.5754,4.5423,4.5406,4.4748,4.3839,4.3506,4.3144,4.2743,4.2312,4.1916,4.1532,4.1096,4.0983,4.0983,4.0983,4.0983,4.0886,4.0496,4.0051,3.9622,3.9232,3.908,3.9095,3.9418,3.9825,4.0264,4.0723,4.0431,3.9711,3.8486,3.8201,3.7522,3.5824,3.5579,3.5574,3.552,3.5538,3.5577,3.5546,3.5566,3.5579,3.5579,3.5125,3.5087,3.556,3.5155,3.5133,3.5638,3.5736,3.5797,3.5797,3.5825,3.5868,3.5947,3.5947,3.5947,4.5617,4.582,4.5827,4.5752,4.5866,4.6183,4.6931,4.724,4.7582,4.8376,4.7832,4.7225,4.7225,4.8548,4.9449,4.8933,5.0918,5.2884,5.3818,5.3945,5.4519,5.6047,5.6328,5.6411,5.6421,5.5853,5.5469,5.5469,5.4668,5.373,5.2754,5.1875,5.0973,5.0067,4.9911,4.903,4.7279,4.6493,4.6064,4.594,4.594,4.594,4.594,4.594,4.594,4.594,4.594,4.594,4.5967,4.608,4.6069,4.5955,4.608,4.614,4.614,4.614,4.5652,4.5129,4.5994,4.5657,4.4684,4.3884,4.3104,4.2455,4.2353,4.1784,4.1169,4.1172,4.1171,4.1171,4.115,4.1151,4.0976,4.0233,4.0058,3.9863,3.9101,3.9531,4.0252,4.0896,4.0925,4.0857,4.0857,4.0857,4.0312,3.876,3.9156,3.8721,3.621,3.5892,3.5771,3.554,3.563,3.5667,3.5631,3.5671,3.5703,3.5703,3.5703,3.5703,3.5703,3.5717,3.5723,3.5723,3.5849,3.591,3.591,3.5973,3.5996,3.5996,3.5996,3.5996,4.5665,4.5693,4.5475,4.5404,4.5908,4.6436,4.6587,4.695,4.7311,4.7562,4.6933,4.6323,4.6323,4.7637,4.9158,5.0432,5.2203,5.3944,5.553,5.5744,5.5901,5.6322,5.638,5.643,5.6559,5.6445,5.6367,5.6367,5.5566,5.4375,5.2793,5.1875,5.1015,5.0194,4.9471,4.8592,4.7533,4.7377,4.6948,4.6225,4.6225,4.6225,4.6225,4.6225,4.6225,4.6225,4.6225,0.0,4.6225,4.6268,4.6247,4.6225,4.6268,4.6268,4.6268,4.6268,4.6171,4.6054,4.623,4.5703,4.494,4.4781,4.4624,4.4234,4.2811,4.2283,4.1992,4.1253,4.1026,4.1019,4.0908,4.0955,4.1007,4.0851,4.0892,4.0937,4.0781,4.0879,4.1015,4.1132,4.115,4.1128,4.1128,4.1128,4.0796,3.9761,3.9741,3.9131,3.7184,3.6844,3.6494,3.5737,3.5682,3.5696,3.5682,3.5696,3.5703,3.5703,3.5703,3.5703,3.5703,3.5807,3.5869,3.5869,3.5948,3.5975,3.5975,3.5996,3.5996,3.5996,3.5996,3.5973,4.5541,4.5462,4.5285,4.4991,4.5375,4.5763,4.5763,4.6132,4.6502,4.6542,4.6259,4.6002,4.6002,4.7422,4.8875,4.9715,5.1707,5.3582,5.4869,5.5388,5.5815,5.6348,5.6406,5.6424,5.649,5.656,5.6601,5.6601,5.5371,5.4258,5.3418,5.2129,5.1035,5.0234,4.9355,4.8476,4.7617,4.7148,4.6719,4.6308,4.6308,4.6308,4.6308,4.6308,4.6308,4.6308,4.6308,4.6308,4.6308,4.6308,4.6308,4.6289,4.6223,4.62,4.6198,4.6117,4.5831,4.5538,4.5948,4.5538,4.4836,4.4836,4.4579,4.403,4.2744,4.2301,4.2056,4.1148,4.0902,4.0877,4.0809,4.085,4.0902,4.0902,4.095,4.0992,4.0992,4.0992,4.1,4.108,4.1103,4.1126,4.1191,4.1191,4.0898,4.0039,4.0293,3.9941,3.8158,3.8263,3.7784,3.5892,3.6207,3.6325,3.5846,3.5834,3.5868,3.5868,3.5868,3.5868,3.5868,3.5923,3.5948,3.5948,3.5976,3.5996,3.5996,3.5996,3.623,3.668,3.6596,3.6797,4.526,4.5093,4.4951,4.4669,4.48,4.5007,4.5074,4.5468,4.5796,4.5796,4.585,4.5899,4.5899,4.7106,4.8279,4.8845,5.0699,5.257,5.3996,5.486,5.564,5.6517,5.6615,5.6615,5.6615,5.6552,5.6512,5.6512,5.4892,5.3784,5.3457,5.2106,5.1049,5.0428,4.9588,4.8729,4.7849,4.6971,4.6443,4.6268,4.6225,4.6225,4.6268,4.6225,4.6225,4.6268,4.6225,4.6204,4.6204,4.6204,4.6204,4.62,4.6108,4.6069,4.6045,4.5932,4.551,4.5053,4.5685,4.5373,4.4723,4.4898,4.4448,4.3646,4.2578,4.2182,4.1913,4.1021,4.0779,4.0779,4.0733,4.0761,4.0788,4.0793,4.0801,4.0801,4.0801,4.0801,4.0824,4.0944,4.0959,4.0996,4.1128,4.1151,4.0937,4.0273,4.0762,4.0644,3.9082,3.9648,3.9195,3.6592,3.7077,3.7284,3.6543,3.654,3.6562,3.6562,3.6387,3.6289,3.6289,3.6094,3.5996,3.5996,3.5996,3.6094,3.6289,3.6289,3.6738,3.7578,3.7441,3.7745,4.4778,4.4409,4.4214,4.4527,4.4606,4.4726,4.503,4.5468,4.5796,4.5796,4.585,4.5899,4.5899,4.6044,4.6928,4.9311,4.9904,5.1178,5.4363,5.5561,5.6407,5.7214,5.7311,5.7311,5.7311,5.667,5.6232,5.6232,5.4616,5.3059,5.1719,5.1302,5.1113,5.1113,5.0313,4.9473,4.861,4.7736,4.6897,4.6117,4.5995,4.5995,4.6117,4.5988,4.5995,4.6113,4.5988,4.5932,0.0,4.5932,4.5932,4.5952,4.5916,4.5916,4.5916,4.5907,4.584,4.5802,4.586,4.5373,4.482,4.5549,4.5237,4.4292,4.2619,4.2105,4.1915,4.0973,4.0715,4.0692,4.0554,4.0617,4.071,4.0796,4.0801,4.0801,4.0801,4.0801,4.0801,4.0809,4.0816,4.0864,4.0992,4.1023,4.1035,4.1074,4.1152,4.0859,3.9902,4.0547,4.0371,3.8534,3.8418,3.8457,3.8359,3.8359,3.8359,3.8359,3.7617,3.7187,3.7187,3.6426,3.5996,3.5996,3.5996,3.6387,3.7187,3.7187,3.7637,3.8476,3.8339,3.8293,4.4505,4.4575,4.4805,4.5119,4.4907,4.4815,4.5639,4.5764,4.568,4.568,4.5684,4.5722,4.5722,4.5796,4.6341,4.7874,4.8612,4.9858,5.2261,5.3254,5.4239,5.5597,5.5772,5.5966,5.6451,5.6309,5.5763,5.4713,5.3429,5.2269,5.1271,5.1148,5.0626,4.9605,4.9255,4.8436,4.7033,4.6663,4.6313,4.5981,4.5924,4.5924,4.5981,4.5924,4.5924,4.5981,4.5916,4.5899,0.0,4.5899,4.5899,4.589,4.585,4.5836,4.5825,4.5744,4.5722,4.5722,4.5722,4.551,4.5297,4.5626,4.551,4.4924,4.3261,4.2722,4.2408,4.0968,4.0588,4.0574,4.0519,4.0935,4.1509,4.206,4.1783,4.1397,4.1397,4.1003,4.0641,4.0712,4.0752,4.0771,4.0857,4.095,4.1023,4.1077,4.115,4.1074,4.0723,4.0996,4.0937,4.0234,3.9707,3.918,3.8633,3.8594,3.8594,3.8594,3.8262,3.7851,3.7324,3.6973,3.6777,3.6777,3.6777,3.7207,3.8086,3.8086,3.8535,3.9394,3.9786,3.995,4.4216,4.4654,4.5229,4.5655,4.5357,4.5218,4.6228,4.6033,4.5586,4.5586,4.5586,4.5586,4.5586,4.568,4.6003,0.0,4.7759,4.898,5.0746,5.1818,5.2981,5.4467,5.4641,5.4953,5.5764,5.5971,5.5442,5.3987,5.298,5.2113,5.1373,5.1114,5.0324,4.8874,4.8582,4.7727,4.625,4.5998,4.5862,4.5862,4.582,4.582,4.5862,4.582,4.5831,4.5862,4.582,4.5797,0.0,4.5797,4.5797,4.5805,4.575,4.5733,4.5718,4.5635,4.5586,4.5586,4.5586,4.5586,4.5586,4.5586,4.5586,4.5332,4.3965,4.3327,4.2797,4.1296,4.1066,4.12,4.095,4.1335,4.1893,4.2258,4.2066,4.1797,4.1797,4.1527,4.1228,4.1067,4.1036,4.097,4.0801,4.0877,4.0955,4.0992,4.1105,4.1191,4.1191,4.1191,4.1191,4.1191,4.0644,4.0039,3.9414,3.9375,3.9375,3.9375,3.9121,3.8711,3.8086,3.7812,3.7676,3.7676,3.7676,3.8105,3.8984,3.8984,3.9434,4.0293,4.0782,4.1261,4.3891,4.4367,4.5171,4.5931,4.5948,4.5982,4.6704,4.622,4.5586,4.5586,4.5586,4.5586,4.5586,4.5603,4.5874,4.6759,4.7586,4.8702,5.0471,5.2125,5.351,5.4395,5.4491,5.4818,5.5607,5.5684,5.5378,5.4549,5.3683,0.0,5.1933,5.1125,5.037,4.9611,4.8745,4.7874,4.7002,4.6203,4.5796,4.5796,4.5665,4.568,4.5796,4.5665,4.568,4.5796,4.5665,4.5603,0.0,4.5603,4.5603,4.5603,4.5603,4.5603,4.5603,4.5586,4.5586,4.5586,4.5586,4.5586,4.5586,4.5586,4.5586,4.5432,4.4547,4.372,4.2912,4.2027,4.2412,4.2874,4.2008,4.1797,4.1585,4.0719,4.1181,4.1797,4.1797,4.247,4.2816,4.197,4.1797,4.1551,4.0822,4.0762,4.085,4.0988,4.1105,4.1191,4.1191,4.1191,4.1191,4.1191,4.1191,4.1172,4.1172,4.1172,4.1172,4.1172,4.0351,3.9883,3.9863,3.9043,3.8594,3.8594,3.8594,3.9023,3.9883,3.9883,4.0332,4.1172,4.1055,4.1861,4.3704,4.4007,4.4476,4.5515,4.5157,4.4862,4.5905,4.5687,4.5243,4.5243,4.5438,4.5586,4.5586,4.5586,4.6067,4.749,4.7932,4.8702,5.0452,5.1625,5.2645,5.351,5.4626,5.5415,5.5684,5.5203,5.453,5.3683,5.2799,5.1952,5.1125,5.0837,5.0317,4.9485,4.9195,4.8367,4.6959,4.6689,4.6246,4.5665,4.562,4.5618,4.5665,4.562,4.5618,4.5648,4.562,4.5586,4.5586,4.5586,4.5586,4.5586,4.5586,4.5586,4.5586,4.5586,4.5586,4.5586,4.5586,4.5586,4.5586,4.5586,4.5438,4.509,4.4229,4.3924,4.3758,4.2912,4.247,4.2412,4.3278,4.3508,4.3585,4.3912,4.3739,4.3508,4.3508,4.3297,4.3028,4.2739,4.2701,4.2601,4.2375,4.1944,4.1645,4.1739,4.1354,4.1103,4.1191,4.1191,4.1191,4.1191,4.1191,4.1191,4.1191,4.1191,4.1191,4.1191,4.0937,4.0527,3.9922,3.9648,3.9492,3.9492,4.0078,4.0781,4.1601,4.1601,4.2051,4.2891,4.2244,4.3196,4.3851,4.4147,4.4569,4.555,4.5097,4.4726,4.576,4.5532,4.5096,4.5096,4.5381,4.5586,4.5586,4.5586,4.5932,4.699,4.7682,4.8586,5.001,5.1183,5.2222,5.3106,5.4414,5.5241,5.5241,5.4943,5.4354,5.3491,5.2647,5.1804,5.096,5.0777,5.0374,4.9697,4.949,4.874,4.7375,4.7355,4.7086,4.6528,4.6528,4.6374,4.6086,4.6086,4.5913,4.5586,4.5586,4.5586,0.0,4.5586,4.5586,4.5586,4.5586,4.5586,4.5586,4.5586,4.5513,4.5419,4.5568,4.5438,4.5243,4.5362,4.5182,4.4824,4.4269,4.4107,4.4001,4.3502,4.3305,4.3393,4.4105,4.4297,4.4355,4.4605,4.447,4.4297,4.4297,4.4162,4.3951,4.3624,4.3547,4.3451,4.3143,4.2753,4.247,4.2519,4.2167,4.1944,4.2018,4.1732,4.1537,4.1537,4.1247,4.1052,4.1052,4.1394,4.1478,4.1146,4.139,4.1175,4.0345,4.0326,4.0486,4.084,4.1387,4.2051,4.2891,4.2891,4.3164,4.3691,4.3476,4.4258,0.0,4.4619,4.5067,4.5797,4.5575,4.5357,4.6003,4.563,0.0,4.5096,4.5381,4.5605,4.5682,4.5624,4.5624,4.5759,4.7086,4.8394,4.9279,5.0894,5.2278,5.3067,5.399,5.4468,5.4353,5.4765,5.4653,5.3739,5.2996,5.2158,5.1224,5.0821,5.0442,5.0068,4.9635,4.901,4.8145,4.8145,4.8125,4.8105,4.8105,4.7721,4.699,4.6932,4.6471,0.0,4.5624,4.5586,0.0,4.5586,4.5586,4.5586,4.5586,4.5586,4.5586,4.5568,4.5381,4.514,4.5419,4.5118,4.465,4.4943,4.4806,4.4553,4.4527,4.4194,4.3817,4.3874,4.4672,4.5336,4.4586,4.4393,4.4201,4.3451,4.3855,4.4393,4.4393,4.5028,4.5355,4.4547,4.4393,4.4162,4.3412,4.3279,4.3292,4.3286,4.3343,4.3383,4.3411,4.2691,4.2194,4.2194,4.1416,4.0898,4.0898,4.1688,4.1842,4.1046,4.1623,4.1694,4.1031,4.1055,4.1504,4.2383,4.2519,4.2988,4.3789,4.3789,4.3789,4.3808,4.4629,4.5039,4.5109,0.0,4.4165,4.4787,4.4842,4.4783,0.0,4.5052,4.5096,4.5096,4.5381,4.5797,4.6471,4.6047,4.6009,4.7298,4.7836,4.8394,4.9279,5.1414,5.289,5.2824,5.4096,5.4332,5.274,5.3829,5.4035,5.254,5.2256,5.1499,4.9996,4.9814,4.9746,4.9645,4.9511,4.922,4.864,4.864,4.8462,4.8105,4.8105,4.8009,4.7798,4.7182,4.6797,4.6567,4.5893,0.0,4.5586,4.5586,4.5586,4.5586,4.5586,4.5586,4.5568,4.5322,4.518,4.5074,4.4896,4.4732,4.4553,4.4346,4.4204,4.4106,4.3855,4.3791,4.3931,4.462,4.471,4.4701,4.5163,4.5278,4.524,4.5047,4.5163,4.5278,4.5278,4.5451,4.5528,4.5316,4.5278,4.522,4.5047,4.4482,4.4079,4.4169,4.364,4.3283,4.3402,4.3216,4.308,4.308,4.2311,4.1785,4.1785,4.14,4.1064,4.085,4.1003,4.1078,4.0992,4.164,4.2112,4.2383,4.3711,4.4492,4.4687,4.4687,4.4687,4.4707,4.4902,4.5351,4.5656,4.4953,4.4379,4.4838,4.4855,4.477,4.4903,4.5067,4.5167,4.5099,4.5381,4.574,4.622,4.624,4.649,4.7413,4.8202,4.9067,5.0117,5.1497,5.2513,5.2889,5.3366,5.3528,5.3187,5.3438,5.3249,5.2329,5.156,5.0753,4.9821,4.9593,4.9416,4.9234,4.9234,4.919,4.9117,4.9117,4.8992,4.8743,4.8743,4.8533,4.8113,4.7312,4.674,4.6358,4.5521,0.0,4.514,4.514,4.514,4.514,4.514,4.514,4.5118,4.4943,4.4757,4.4587,4.4606,4.4474,4.4261,4.3881,4.3772,4.3758,4.3548,4.3669,4.4027,4.4692,4.4878,4.5009,4.547,4.5586,4.5586,4.5586,4.5586,4.5586,4.5586,4.5586,4.5586,4.5586,4.5586,4.5586,4.5586,4.5201,4.4908,4.4982,4.4592,4.4346,4.4389,4.4053,4.3802,4.3802,4.271,4.1955,4.1955,4.1528,4.1117,4.0772,4.1446,4.1743,4.1512,4.2337,4.3045,4.3574,4.4902,4.5605,4.5605,4.5605,4.5605,4.5605,4.5605,4.5859,4.5955,4.5492,4.5125,4.5415,4.5264,4.5109,4.534,4.5365,4.5336,4.5226,4.5419,4.5682,4.5932,4.649,4.699,4.724,4.8529,4.9982,5.1383,5.1643,5.1988,5.2831,5.2536,5.2693,5.3818,5.3064,5.2475,5.2344,5.0914,4.9968,4.9819,4.9501,4.9171,4.8813,4.8813,4.8963,4.9295,4.9386,4.9445,4.9504,4.9504,4.9126,4.8362,4.7428,4.6636,4.593,0.0,0.0,4.458,4.458,4.458,4.458,4.458,4.458,4.458,4.4527,4.429,4.4028,4.4337,4.4223,4.3881,4.3597,4.3497,4.3497,4.3497,4.3726,4.4058,4.4419,4.4947,4.5438,4.5438,4.5495,4.5513,4.5513,4.5568,4.5586,4.5586,4.5586,4.5586,4.5586,4.5586,4.5586,4.5586,4.5586,4.5586,4.5586,4.5586,4.5586,4.5586,4.4951,4.4489,4.4489,4.3104,4.2181,4.2181,4.2066,4.1724,4.1119,4.2352,4.2922,4.2513,4.3245,4.4124,4.5176,4.5918,4.6308,4.6308,4.6308,4.6308,4.6308,4.6308,4.6308,4.6033,4.5909,4.5768,4.5806,4.5784,4.5765,4.5803,4.5762,4.5717,4.5708,4.5645,4.6028,4.7451,4.7278,4.7355,4.8798,4.9516,5.0628,5.2643,5.2923,5.2611,5.1772,5.2748,5.2977,5.1503,5.183,5.1805,5.1124,5.0204,4.934,4.8622,4.8532,4.8458,4.8383,4.8383,4.8421,4.8477,4.8813,4.9171,4.9504,4.9504,4.9447,4.9258,4.7711,4.6938,4.673,0.0,4.458,4.458,4.458,4.458,4.458,4.458,4.458,4.4553,4.4204,4.4058,4.3986,4.3758,4.3631,4.3563,4.3513,4.3497,4.3497,4.3497,4.3726,4.3998,4.4058,4.4401,4.4757,4.4757,4.4966,4.518,4.518,4.5381,4.5586,4.5586,4.5586,4.5586,4.5586,4.5586,4.5586,4.5586,4.5586,4.5586,4.5586,4.5586,4.5586,4.5586,4.547,4.5393,4.5393,4.4509,4.3912,4.3912,4.3297,4.2852,4.2749,4.2967,4.3463,4.4264,4.4594,4.5174,4.6074,4.623,4.6308,4.6308,4.6308,4.6308,4.6308,4.6308,4.6308,4.5981,4.5959,4.5923,4.5996,4.6009,4.5987,4.5925,4.5889,4.5847,4.5822,4.5692,4.597,4.7221,4.7894,4.8875,5.0818,5.1059,5.1309,5.2071,5.178,5.1588,5.1712,5.1968,5.2001,5.1522,5.1389,5.1022,5.0196,4.937,4.8728,4.8324,4.8306,4.8306,4.8306,4.8306,4.8306,4.8306,4.8477,4.8657,4.8847,4.8847,4.8624,4.8159,4.695,4.615,4.5685,0.0,4.4023,4.4023,4.4023,4.4023,4.4023,4.4023,4.4023,4.3974,4.3804,4.3726,4.3693,4.3529,4.3497,4.3497,4.3497,4.3497,4.3497,4.3497,4.3597,4.3726,4.3726,4.4136,4.458,4.458,4.4707,4.4825,4.4825,4.5096,4.5322,4.5322,4.5457,4.5586,4.5586,4.5586,4.5586,4.5586,4.5586,4.5586,4.5586,4.5586,4.5586,4.5586,4.5586,4.5586,4.5586,4.4816,4.4297,4.4297,4.3951,4.3739,4.3739,4.3877,4.4381,4.5315,4.5584,4.5898,4.6289,4.6308,4.6308,4.6308,4.6308,4.6308,4.6308,4.6308,4.6308,4.564,4.576,4.5924,4.6033,4.608,4.6128,4.623,4.6231,4.6231,4.6358,4.6275,4.6394,4.7067,4.8472,5.0147,5.1999,5.2156,5.1907,5.1509,5.1083,5.1065,5.1632,5.1518,5.1463,5.1701,5.1151,5.0472,4.9646,4.8783,4.8306,4.8306,4.8306,4.8306,4.8306,4.8306,4.8306,4.8306,4.8306,4.8306,4.8306,4.8306,4.7994,4.737,4.6562,4.5736,4.4947,4.4121,4.3663,4.3497,4.3497,4.3497,4.3497,4.3497,4.3497,4.3497,4.3497,4.3497,4.3497,4.3497,4.3497,4.3497,4.3497,4.3497,4.3497,4.3497,4.3497,4.3497,4.3497,4.3899,4.4337,4.4337,4.4392,4.4474,4.458,4.4849,4.5118,4.5201,4.5419,4.5586,4.5586,4.5586,4.5586,4.5586,4.5586,4.5586,4.5586,4.5586,4.5586,4.5586,4.5586,4.5586,4.5586,4.4989,4.4605,4.4605,4.4605,4.4605,4.4605,4.4827,4.523,4.586,4.614,4.6268,4.6308,4.6308,4.6308,4.6308,4.6308,4.6308,4.6308,4.6308,4.6308,4.4855,4.5384,4.5899,4.5907,4.6001,4.6309,4.7107,4.7196,4.7291,4.7992,4.8012,4.7952,4.8009,4.9094,5.0263,5.1245,5.1987,5.2345,5.1989,5.2532,5.2477,5.1041,5.216,5.2472,5.1041,5.0839,5.0472,4.9646,4.8783,4.8306,4.8306,4.8306,4.8306,4.8306,4.8306,4.8306,4.8306,4.8306,4.8306,4.8306,4.8306,4.8269,4.8196,4.7388,4.6581,4.5773,4.4966,4.4195,4.3497,4.3497,4.3497,4.3497,4.3497,4.3497,4.3497,4.3497,4.3497,4.3497,4.3497,4.3497,4.3497,4.3497,4.3497,4.3497,4.3497,4.3497,4.3497,4.3497,4.3548,4.3582,4.3582,4.3804,4.4146,4.4501,4.4849,4.518,4.5495,4.5586,4.5586,4.5586,4.5586,4.5586,4.5586,4.5586,4.5586,4.5586,4.5586,4.5586,4.5586,4.5586,4.5586,4.5586,4.5528,4.5509,4.5509,4.5509,4.5509,4.5509,4.5636,4.5766,4.5899,4.6039,4.6173,4.6308,4.6308,4.6308,4.6308,4.6308,4.6308,4.6308,4.6308,4.6308,4.4732,4.5274,4.5844,4.5886,4.5915,4.6148,4.7061,4.7591,4.7953,4.8236,4.9073,4.9644,4.9384,5.0153,5.0909,5.1314,5.2232,5.288,5.2771,5.3023,5.2803,5.1683,5.2527,5.238,5.0251,5.0508,5.0233,4.8893,4.8489,4.8306,4.8306,4.8306,4.8306,4.8306,4.8306,4.8306,4.8306,4.8306,4.8306,4.8306,4.8306,4.8049,4.7535,4.6728,4.592,4.5112,4.4305,4.3773,4.3497,4.3497,4.3497,4.3497,4.3497,4.3497,4.3497,4.3497,4.3497,4.3497,4.3497,4.3497,4.3497,4.3497,4.3497,4.3497,4.3497,4.3497,4.3497,4.3497,4.3497,4.3497,4.3497,4.3597,4.3726,4.3868,4.4364,4.4806,4.4966,4.5322,4.5586,4.5586,4.5586,4.5586,4.5586,4.5586,4.5586,4.5586,4.5586,4.5586,4.5586,4.5586,4.5586,4.5586,4.5586,4.5586,4.5586,4.5586,4.5586,4.5586,4.5737,4.5832,4.5899,4.6033,4.615,4.6308,4.6308,4.6308,4.6308,4.6308,4.6308,4.6308,4.6308,4.6308,4.4289,4.4978,4.5678,4.573,4.569,4.5944,4.7112,4.8068,4.8774,4.9003,4.9643,5.0169,5.0285,5.0447,5.0615,5.0804,5.2164,5.3023,5.2527,5.2894,5.2821,5.1738,5.2325,5.1977,4.9793,5.0086,4.9829,4.8416,4.8306,4.8306,4.8306,4.8306,4.8306,4.8306,4.8306,4.8306,4.8306,4.8306,4.8306,4.8306,4.8049,4.7645,4.7095,4.6544,4.57,4.4672,4.4121,4.3718,4.3497,4.3497,4.3497,4.3497,4.3497,4.3497,4.3497,4.3497,4.3497,4.3497,4.3497,4.3497,4.3497,4.3497,4.3497,4.3497,4.3497,4.3497,4.3497,4.3497,4.3497,4.3497,4.3497,4.3497,4.3513,4.3612,4.4136,4.4631,4.4751,4.5411,4.6009,4.6009,4.6009,4.6086,4.6355,4.5951,4.5682,4.597,4.5778,4.5586,4.5586,4.5586,4.5586,4.5586,4.5586,4.5586,4.5586,4.5586,4.5586,4.5586,4.5696,4.5777,4.5852,4.5974,4.6108,4.6225,4.6289,4.6308,4.6308,4.6308,4.6308,4.6308,4.6308,4.6308,4.3408,4.4372,4.5357,4.5376,4.533,4.574,4.7394,4.8723,4.9807,5.0567,4.9748,4.9295,5.0553,4.9771,4.9043,4.9504,5.161,5.2637,5.1022,5.2197,5.2601,5.0986,5.1518,5.1371,4.9756,4.9591,4.9242,4.8379,4.8306,4.8306,4.8306,4.8306,4.8306,4.8306,4.8306,4.8306,4.8306,4.8306,4.8306,4.8288,4.7498,4.7113,4.7113,4.7095,4.6232,4.4709,4.4709,4.425,4.3497,4.3497,4.3497,4.3497,4.3497,4.3497,4.3497,4.3497,4.3497,4.3497,4.3497,4.3497,4.3497,4.3497,4.3497,4.3497,4.3497,4.3497,4.3497,4.3497,4.3497,4.3497,4.3497,4.3497,4.3597,4.3912,4.4308,4.4701,4.503,4.6051,4.6895,4.6913,4.6913,4.7163,4.7971,4.6721,4.5913,4.6778,4.6163,4.5605,4.5586,4.5586,4.5586,4.5586,4.5586,4.5586,4.5586,4.5586,4.5586,4.5586,4.5586,4.5648,4.5796,4.5852,4.5947,4.6108,4.6225,4.6308,4.6308,4.6308,4.6308,4.6308,4.6308,4.6308,4.3438,4.3384,4.3481,4.4614,4.4853,4.5156,4.6443,4.7665,4.9047,5.0779,4.9936,4.9027,4.9458,4.9466,4.9231,4.8767,5.0288,5.1353,5.0875,5.1701,5.1977,5.093,5.2013,5.2215,5.06,5.0435,5.0086,4.9279,4.8655,4.8306,4.8306,4.8306,4.8306,4.8306,4.8306,4.8306,4.8306,4.8306,4.8031,4.7462,4.7223,4.7113,4.7039,4.5938,4.5168,4.4672,4.4103,4.3718,4.3497,4.3497,4.3497,4.3497,4.3497,4.3497,4.3497,4.3497,4.3497,4.3497,4.3497,4.3497,4.3497,4.3497,4.3497,4.3497,4.3497,4.3497,4.3497,4.3497,4.3497,4.3497,4.3497,4.3497,4.3513,4.3612,4.4339,4.5123,4.5507,4.6316,4.712,4.7646,4.7528,4.7484,4.801,4.7682,4.7259,4.6951,4.6682,4.6297,4.5682,4.5586,4.5586,4.5586,4.5586,4.5586,4.5586,4.5586,4.5586,4.5586,4.5586,4.5648,4.5796,4.5852,4.5947,4.6108,4.6225,4.6308,4.6308,4.6308,4.6308,4.6308,4.62,4.615,4.2974,4.2692,4.2511,4.3804,4.4476,4.5151,4.6322,4.7774,4.9398,5.123,5.0158,4.9042,4.943,4.927,4.8912,4.8398,4.9719,5.0593,5.0021,5.0863,5.1234,5.0495,5.1211,5.1289,5.0057,4.9856,4.9511,4.878,4.8229,4.7937,4.7937,4.7697,4.7656,4.7937,4.7937,4.8075,4.8306,4.8306,4.7921,4.7113,4.7113,4.6783,4.6122,4.5149,4.4544,4.4195,4.3699,4.3497,4.3497,4.3497,4.3497,4.3497,4.3497,4.3497,4.3497,4.3497,4.3497,4.3497,4.3497,4.3497,4.3497,4.3497,4.3497,4.3497,4.3497,4.3497,4.3497,4.3497,4.3497,4.3497,4.3497,4.3497,4.3497,4.3497,4.4369,4.527,4.549,4.6582,4.7605,4.8052,4.7943,4.8009,4.8769,4.8334,4.774,4.7433,4.6817,4.6182,4.5663,4.5586,4.5586,4.5586,4.5586,4.574,4.6086,4.5797,4.574,4.6086,4.5778,4.5635,4.5723,4.5801,4.5901,4.5971,4.614,4.6223,4.6223,4.6268,4.6308,4.6308,4.615,4.6108,4.2161,4.2147,4.2121,4.2968,4.4188,4.5494,4.6636,4.8443,5.0202,5.1374,5.0196,4.9157,4.9833,4.9049,4.8267,4.821,4.9493,5.0008,4.8681,4.9677,5.0289,4.9703,4.9586,4.9286,4.8702,4.8398,4.8006,4.745,4.7335,4.7299,4.7299,4.671,4.671,4.7385,4.7385,4.7715,4.8306,4.8233,4.781,4.7003,4.6929,4.6085,4.4599,4.4672,4.4268,4.3497,4.3497,4.3497,4.3497,4.3497,4.3497,4.3497,4.3497,4.3497,4.3497,4.3497,4.3497,4.3497,4.3497,4.3497,4.3497,4.3497,4.3497,4.3497,4.3497,4.3497,4.3497,4.3497,4.3497,4.3497,4.3497,4.3497,4.3497,4.3497,4.4336,4.5183,4.527,4.678,4.8125,4.8287,4.8277,4.8636,4.9841,4.8748,4.7815,4.8068,4.6663,4.5586,4.5586,4.5586,4.5624,4.5701,4.572,4.6067,4.6951,4.622,4.6067,4.6855,4.6086,4.5586,4.5586,4.5718,4.5796,4.5796,4.5979,4.608,4.608,4.62,4.6268,4.6268,4.614,4.6075,4.1913,4.1283,4.0963,4.2429,4.4042,4.5438,4.5996,4.7206,4.8297,4.8576,4.8542,4.8344,4.8061,4.8166,4.8114,4.7656,4.7922,4.8025,4.7716,4.8057,4.8329,4.817,4.8657,4.8972,4.8829,4.8229,4.7765,4.7625,4.6973,4.6618,4.6618,4.6478,4.671,4.7385,4.7385,4.7715,4.8306,4.7682,4.6966,0.0,4.5535,4.4709,4.3773,4.4415,4.4268,4.3497,4.3497,4.3497,4.3497,4.3497,4.3497,4.3497,4.3497,4.3497,4.3497,4.3497,4.3497,4.3497,4.3497,4.3497,4.3497,4.3497,4.3497,4.3497,4.3497,4.3497,4.3497,4.3497,4.3497,4.3497,4.3497,4.3497,4.3497,4.3497,4.4173,4.5063,4.602,4.6817,4.7689,4.8991,4.8971,4.8933,4.9542,4.9594,4.9213,4.826,4.6663,4.5586,4.5586,4.5586,4.5855,4.6547,4.6624,4.6951,4.7778,4.7086,4.6701,4.6894,4.6086,4.5586,4.5586,4.5718,4.5796,4.5796,4.5881,4.5932,4.5932,4.5974,4.5988,4.5981,4.5891,4.5867,4.1288,4.0908,4.0969,4.3102,4.4358,4.5167,4.5772,4.6411,4.6886,4.6948,4.7682,4.821,4.7897,4.8075,4.8114,4.7488,4.7385,4.7194,4.6589,4.685,4.6971,4.6695,4.7276,4.7603,4.7274,4.7152,4.6971,4.6695,4.621,4.5965,4.5965,4.5699,4.5965,4.691,4.6534,4.6988,4.8306,4.7131,4.6305,4.5883,4.548,4.4856,4.4085,4.4103,4.3901,4.3497,4.3497,4.3497,4.3497,4.3497,4.3497,4.3497,4.3497,4.3497,4.3497,4.3497,4.3497,4.3497,4.3497,4.3497,4.3497,4.3497,4.3497,4.3497,4.3497,4.3497,4.3497,4.3497,4.3497,4.3497,4.3497,4.3497,4.3497,4.3497,4.4103,4.4871,4.55,4.6413,4.7353,4.8196,4.8484,4.8763,4.9139,4.9193,4.8834,4.7747,4.6488,4.5619,4.54,4.5707,4.6187,4.6837,4.724,4.7817,4.8644,4.7971,4.7663,4.8067,4.6913,4.622,4.622,4.5896,4.5708,4.5708,4.5808,4.585,4.585,4.5872,4.5899,4.5899,4.5832,4.5796,4.073,4.0972,4.1604,4.3907,4.4488,4.4709,4.5516,4.5718,4.5824,4.615,4.7143,4.7874,4.7678,4.7846,4.7743,4.7014,4.6972,4.6682,4.5648,4.5815,4.5915,4.5407,4.5783,4.5865,4.5407,4.5783,4.5865,4.5355,4.532,4.532,4.532,4.4732,4.4936,4.6171,4.5534,4.6093,4.7884,4.6562,4.5828,4.5681,4.5553,4.5149,4.447,4.3791,4.3497,4.3497,4.3497,4.3497,4.3497,4.3497,4.3497,4.3497,4.3497,4.3497,4.3497,4.3497,4.3497,4.3497,4.3497,4.3497,4.3497,4.3497,4.3497,4.3497,4.3497,4.3497,4.3497,4.3497,4.3497,4.3516,4.3663,4.3699,4.3736,4.3864,4.4415,4.4874,4.4745,4.5865,4.6948,4.7095,4.7755,4.8421,4.8829,4.8478,4.7928,4.7287,4.6514,4.5866,4.5498,4.6043,4.6691,4.7185,4.7876,4.8682,4.9548,4.8836,4.8567,4.9144,4.774,4.6836,4.6682,4.597,4.5586,4.5586,4.5862,4.5988,4.5988,4.6185,4.6201,4.6065,4.6016,4.5988,4.0868,4.1637,4.2623,4.3431,4.3644,4.3864,4.469,4.5018,4.5337,4.605,4.6362,4.6144,4.511,4.5876,4.6247,4.4974,4.5346,4.5681,4.5494,4.5142,4.4814,4.472,4.4814,4.4814,4.472,4.4814,4.4814,4.472,4.472,4.472,4.472,4.3982,4.413,4.5311,4.5298,4.5574,4.6214,4.6012,4.5553,4.4856,4.414,4.3754,4.3644,4.3534,4.3497,4.3497,4.3497,4.3497,4.3497,4.3497,4.3497,4.3497,4.3497,4.3497,4.3497,4.3497,4.3497,4.3497,4.3497,4.3497,4.3497,4.3497,4.3497,4.3497,4.3497,4.3497,4.3497,4.3497,4.3497,4.3644,4.436,4.4544,4.4727,4.5406,4.5663,4.5553,4.4856,4.5424,4.6269,4.6966,4.7755,4.8421,4.8829,4.8278,4.781,4.8032,4.7363,4.6816,4.6758,4.7074,4.7652,4.8461,4.8948,4.9586,5.0452,4.9721,4.8952,4.8317,4.7413,4.6567,4.5797,4.5663,4.5586,4.5586,4.6371,4.6737,4.6737,4.7465,4.7444,4.6769,4.6754,4.6737,4.181,4.2302,4.2935,4.3942,4.4176,4.4289,4.4762,4.4947,4.503,4.5121,4.5158,4.5205,4.5466,4.564,4.5623,4.5076,4.5286,4.5355,4.5035,4.4776,4.4587,4.4587,4.4587,4.4587,4.4587,4.4587,4.4587,4.4587,4.4587,4.4587,4.4587,4.4136,4.43,4.5152,4.4698,4.4913,4.5902,4.5002,4.4378,4.403,4.4121,4.3938,4.3516,4.3975,4.392,4.3497,4.3497,4.3497,4.3497,4.3497,4.3497,4.3497,4.3497,4.3497,4.3497,4.3497,4.3497,4.3497,4.3497,4.3497,4.3497,4.3497,4.3497,4.3497,4.3497,4.3497,4.3497,4.3497,4.3809,4.425,4.4617,4.5039,4.5461,4.581,4.625,4.6361,4.5553,4.6012,4.6819,4.7627,4.8067,4.8364,4.8532,4.8255,4.7938,4.7627,4.6899,4.6443,4.6625,4.7013,4.7669,4.8696,4.9599,5.0087,4.9971,4.9625,4.9029,4.8163,4.7336,4.674,4.6336,4.5855,4.5817,4.6317,4.6701,4.6913,4.6913,4.7721,4.7932,4.7567,4.7105,4.7144,4.2577,4.2788,4.3122,4.4144,4.4418,4.4564,4.4939,4.4917,4.4725,4.4379,4.4027,4.4112,4.5166,4.5211,4.5082,4.501,4.4974,4.4797,4.4376,4.4282,4.4282,4.4282,4.4468,4.4587,4.4587,4.4587,4.4587,4.4587,4.4401,4.4376,4.4541,4.401,4.4073,4.4813,4.4199,4.43,4.5278,4.4085,4.3497,4.3497,4.4103,4.4085,4.3516,4.4121,4.4066,4.3497,4.3497,4.3497,4.3497,4.3497,4.3497,4.3497,4.3497,4.3497,4.3497,4.3497,4.3497,4.3497,4.3497,4.3497,4.3497,4.3497,4.3497,4.3497,4.3497,4.3497,4.3534,4.3736,4.425,4.48,4.5204,4.5773,4.6269,4.6452,4.6985,4.7186,4.6379,4.6691,4.7297,4.7884,4.8159,4.8306,4.8306,4.8306,4.8104,4.7517,4.6728,4.636,4.6805,4.7105,4.7701,4.8853,4.9931,5.0258,4.9471,4.9606,4.926,4.8182,4.774,4.7451,4.7221,4.6586,4.6547,4.7201,4.7432,4.7548,4.7548,4.8355,4.8644,4.8413,4.7817,4.7855,4.2711,4.305,4.3463,4.3534,4.3724,4.4065,4.4841,4.4668,4.4333,4.4401,4.3305,4.2407,4.2494,4.3664,4.4393,4.3627,4.3525,4.3525,4.3487,4.347,4.347,4.347,4.413,4.4587,4.4587,4.4587,4.4587,4.4587,4.3893,4.3724,4.4268,4.2953,4.2717,4.3854,4.3902,4.3812,4.3626,4.3534,4.3497,4.3497,4.3534,4.3534,4.3497,4.3534,4.3534,4.3497,4.3497,4.3497,4.3497,4.3497,4.3497,4.3497,4.3497,4.3497,4.3497,4.3497,4.3497,4.3497,4.3497,4.3497,4.3497,4.3497,4.3497,4.3497,4.3497,4.3497,4.3644,4.4415,4.4672,4.5057,4.6599,4.7021,4.7241,4.7994,4.8214,4.8031,4.7223,4.7095,4.7131,4.713,4.7792,4.8306,4.8306,4.8306,4.8306,4.8251,4.7572,4.7333,4.8105,4.7895,4.8122,4.9324,4.986,4.9927,4.9433,5.0164,4.9913,4.8221,4.8836,4.8894,4.8067,4.799,4.799,4.8048,4.8856,4.926,4.926,5.0144,5.0144,4.9336,4.9279,4.9298,4.2711,4.2559,4.2512,4.3055,4.2857,4.2868,4.4283,4.369,4.3076,4.3647,4.3345,4.2861,4.2388,4.2743,4.3183,4.3386,4.342,4.3589,4.4096,4.3741,4.3606,4.4096,4.4401,4.4587,4.4587,4.4587,4.4367,4.3876,4.3572,4.3452,4.3592,4.2969,4.2979,4.3768,4.3704,4.3578,4.3497,4.3497,4.3339,4.2976,4.2976,4.2976,4.2976,4.2976,4.3178,4.3497,4.3497,4.3497,4.3497,4.3497,4.3497,4.3497,4.3497,4.3497,4.3497,4.3497,4.3497,4.3497,4.3497,4.3497,4.3497,4.3497,4.3497,4.3589,4.4103,4.3901,4.3773,4.5094,4.548,4.5718,4.6838,4.7498,4.7957,4.8233,4.8306,4.8233,4.7939,4.7884,4.7884,4.7884,4.8104,4.8306,4.8306,4.8306,4.8306,4.8306,4.7627,4.7407,4.8214,4.7953,4.8146,4.9351,4.9853,4.9905,4.9433,4.9683,4.9356,4.8182,4.8394,4.8432,4.8105,4.8105,4.8355,4.8913,4.924,4.9394,4.9394,5.026,5.0529,5.0221,4.9663,4.9702,4.2621,4.2262,4.1917,4.2473,4.2247,4.2226,4.3357,4.3044,4.2552,4.261,4.2878,4.2726,4.1728,4.1948,4.254,4.3301,4.342,4.3606,4.4113,4.3741,4.3606,4.413,4.4418,4.4587,4.4587,4.4587,4.4367,4.3842,4.3335,0.0,4.3436,4.2689,4.251,4.3112,4.3397,4.341,4.325,4.3214,4.305,4.2711,4.248,4.2382,4.2382,4.2616,4.2902,4.325,4.341,4.3497,4.3497,4.3497,4.3497,4.3497,4.3497,4.341,4.325,4.3444,4.3375,4.325,4.3444,4.3497,4.3497,4.3497,4.3497,4.3589,4.414,4.4103,4.4176,4.5516,4.6085,4.6489,4.7297,4.7921,4.8306,4.8306,4.8306,4.8306,4.8306,4.8306,4.8306,4.8306,4.8306,4.8306,4.8306,4.8306,4.8306,4.8306,4.7627,4.7407,4.8214,4.7953,4.8146,4.9351,4.9853,4.9905,4.9433,4.9663,4.9452,4.8586,4.8817,4.8971,4.8971,4.8971,4.924,4.9817,4.9837,4.9837,4.9837,5.0414,5.0702,5.0683,5.0106,5.0144,0.0,0.0,0.0,4.1768,4.1925,4.2068,4.2085,4.2723,4.2912,4.1491,4.1762,4.1813,4.0375,4.1322,4.2574,4.3301,4.342,4.342,4.3453,4.3436,4.342,4.3453,4.4113,4.4587,4.4587,4.4587,4.457,4.4553,4.3149,4.2791,4.3895,4.2044,4.1161,4.1768,4.2847,4.3214,4.2655,4.2655,4.2655,4.2655,4.2062,4.175,4.1793,4.2382,4.2693,4.275,4.325,4.3497,4.3497,4.3497,4.3497,4.3497,4.3479,4.3178,4.275,4.3286,4.3142,4.2788,4.3321,4.3497,4.3497,4.3497,4.3497,4.3497,4.3516,4.4085,4.4874,4.57,4.6507,4.7297,4.8104,4.8306,4.8306,4.8306,4.8306,4.8306,4.8306,4.8306,4.8306,4.8306,4.8306,4.8306,4.8306,4.8306,4.8306,4.8306,4.7645,4.7425,4.8214,4.799,4.8196,4.9399,4.9872,4.9905,4.949,5.0202,5.0337,4.949,5.0221,5.0702,5.0702,5.0702,5.0702,5.0702,5.0702,5.0702,5.0702,5.0702,5.0702,5.0702,5.0721,5.0721,4.1108,0.0,0.0,0.0,0.0,0.0,4.1308,4.124,4.1035,4.117,4.1373,4.1373,4.0967,4.21,4.3166,4.3386,4.342,4.3606,4.4181,4.3775,4.3639,4.4198,4.4451,4.4587,4.4587,4.4587,4.435,0.0,4.2844,4.2398,4.2588,4.1963,4.1621,4.1793,4.2103,4.2185,4.2038,4.2038,4.1853,4.1402,4.1223,4.1133,4.1178,4.175,4.2302,4.275,4.325,4.3497,4.3497,4.3497,4.3497,4.3444,4.305,4.2826,4.2711,4.2864,4.2826,4.2788,4.3321,4.3497,4.3497,4.3497,4.3497,4.3608,4.4195,4.4525,4.5002,4.6397,4.6948,4.7297,4.8104,4.8306,4.8306,4.8306,4.8306,4.8306,4.8306,4.8306,4.8306,4.8306,4.8306,4.8306,4.8306,4.8306,4.8306,4.8306,4.8122,4.8144,4.8655,4.8643,4.8927,4.9834,5.0043,5.0176,5.0336,5.0548,5.0587,5.0356,5.0567,5.0702,5.0702,5.0702,5.0702,5.0702,5.0702,5.0702,5.0702,5.0702,5.0702,5.0702,5.1298,5.126,4.0488,4.0383,4.007,4.007,0.0,0.0,4.0629,4.0646,4.0578,4.0713,4.0984,4.1119,4.0798,4.1694,4.2591,4.2895,4.3217,4.369,4.4468,4.4198,4.4062,4.4519,4.4587,4.4587,4.4587,4.4587,4.4401,4.3944,4.2912,4.197,4.13,4.1593,4.1578,4.1122,4.1552,4.1664,4.1446,4.1446,4.1268,4.0903,4.0655,4.0577,4.0577,4.1402,4.1979,4.2382,4.316,4.3375,4.3178,4.3178,4.3178,4.3142,4.2826,4.2382,4.2021,4.2519,4.2519,4.2422,4.325,4.3497,4.3497,4.3497,4.3497,4.3589,4.4066,4.4672,4.5406,4.6342,4.7095,4.7719,4.8196,4.8306,4.8306,4.8306,4.8306,4.8306,4.8306,4.8306,4.8306,4.8306,4.8306,4.8306,4.8306,4.8306,4.8306,4.8306,4.8306,4.8458,4.8829,4.9062,4.9367,5.0043,5.0249,5.0462,5.0683,5.0702,5.0702,5.0702,5.0702,5.0702,5.0702,5.0702,5.0702,5.0702,5.0702,5.0702,5.0702,5.0702,5.0702,5.0721,5.1529,5.1664,4.0259,4.0268,4.007,4.007,4.007,0.0,4.007,4.0595,4.0882,4.0223,4.0612,4.0899,4.0307,4.0815,4.1542,4.2185,4.2997,4.3792,4.4485,4.4587,4.4604,4.4688,4.4621,4.4604,4.4688,4.4621,4.4587,4.4587,4.3149,4.1644,4.0155,4.1076,4.1168,4.0121,4.1076,4.1358,4.0827,4.0827,4.0827,4.0827,4.0336,4.007,4.0121,4.1196,4.1707,4.175,4.2903,4.3087,4.2616,4.2655,4.2711,4.2711,4.2559,4.1937,4.1223,4.2203,4.2302,4.2062,4.3142,4.3497,4.3497,4.3497,4.3497,4.3497,4.3497,4.4617,4.5938,4.6122,4.7205,4.8306,4.8306,4.8306,4.8306,4.8306,4.8306,4.8343,4.8416,4.8379,4.8361,4.8545,4.8434,4.8306,4.8306,4.8306,4.8306,4.8306,4.8344,4.8513,4.893,4.9326,4.9719,5.0068,5.0462,5.0683,5.0643,5.0663,5.0702,5.0702,5.0702,5.0702,5.0702,5.0702,5.0702,5.0702,5.0702,5.0702,5.0702,5.0702,5.0702,5.0721,5.1625,5.1991,3.9587,3.9853,4.007,4.007,4.007,0.0,4.007,4.0189,4.0257,4.0104,4.0189,4.0443,4.0899,4.1593,4.2117,4.2269,4.3453,4.4401,4.4553,4.4587,4.4807,4.5415,4.4942,4.4823,4.5432,4.4942,4.4587,4.4587,4.3149,4.1644,4.0155,4.0286,4.0336,4.0138,4.0303,4.0385,4.0254,4.0254,4.0254,4.0237,4.0171,4.007,4.0121,4.0797,4.1087,4.1133,4.2324,4.2501,4.2021,4.248,4.2711,4.2616,4.1621,4.1707,4.2302,4.208,4.2203,4.2616,4.3286,4.3497,4.3497,4.3497,4.3497,4.3497,4.3497,4.4617,4.6177,4.748,4.8067,4.8306,4.8306,4.8306,4.8306,4.8306,4.8306,4.8489,4.9187,4.8802,4.871,5.005,4.9224,4.8306,4.8306,4.8306,4.8306,4.8306,4.8568,4.893,4.9326,4.9746,4.9999,5.0092,5.0462,5.0565,5.0249,5.0504,5.0702,5.0702,5.0702,5.0702,5.0702,5.0702,5.0702,5.0702,5.0702,5.0702,5.0702,5.0702,5.0702,5.0741,5.2241,5.2568,3.9063,3.952,0.0,4.007,4.007,0.0,0.0,4.007,4.007,4.007,4.007,4.0189,4.0578,4.0933,4.1305,4.1677,4.2388,4.3014,4.3386,4.4096,4.4857,4.5618,4.5043,4.4874,4.5635,4.5026,4.4418,4.4028,4.3301,4.2202,4.073,4.0646,4.046,4.0087,4.007,4.007,4.007,4.007,4.007,4.007,4.007,4.007,4.0121,4.0655,4.0903,4.0949,4.1853,4.1895,4.1358,4.1664,4.181,4.175,4.1133,4.1268,4.181,4.181,4.2162,4.2788,4.3321,4.3497,4.3497,4.3497,4.3497,4.3552,4.3975,4.5223,4.6764,4.7976,4.8306,4.8306,4.8306,4.8306,4.8306,4.8306,4.8636,4.9058,4.9499,4.9242,4.9315,5.0563,4.9462,4.8581,4.9407,4.9205,4.9007,4.9178,4.9039,4.9108,4.9719,4.98,4.9872,5.0068,5.0272,5.0313,5.0135,5.0483,5.0702,5.0702,5.0702,5.0702,5.0702,5.0702,5.0702,5.0702,5.0702,5.0702,5.0702,5.1106,5.1298,5.1337,5.2606,5.3203,3.8738,0.0,0.0,0.0,0.0,4.007,0.0,0.0,0.0,4.007,4.007,4.007,4.007,4.0206,4.0443,4.0916,4.1238,4.1576,4.2016,4.3267,0.0,4.5382,4.4823,4.4705,4.5618,4.5026,4.4265,4.347,4.342,4.2777,4.1288,4.1204,4.0849,4.0104,4.007,4.007,4.007,4.007,4.007,4.007,4.007,4.007,4.0121,4.0528,4.075,4.078,4.1358,4.1313,4.0733,4.0874,4.0827,4.075,4.075,4.0874,4.1133,4.1621,4.2162,4.2788,4.3321,4.3497,4.3497,4.3497,4.3589,4.3883,4.469,4.5957,4.7297,4.8086,4.8306,4.8306,4.8306,4.8306,4.8306,4.8306,4.8838,4.9389,4.9536,4.9462,4.9627,5.0618,4.9572,4.8985,5.0343,4.9884,4.949,4.9798,4.9374,4.9295,5.0019,4.98,4.9719,4.9949,4.9974,4.9974,4.9974,5.0272,5.0602,5.0914,5.0855,5.0932,5.1164,5.101,5.0856,5.0702,5.0702,5.0779,5.0933,5.1587,5.1914,5.1933,5.2972,5.3837,0.0,0.0,0.0,0.0,4.007,0.0,0.0,0.0,4.007,4.007,0.0,4.007,4.007,0.0,0.0,4.0307,4.1305,4.1965,4.1407,4.2033,4.3081,4.4536,4.4028,4.4113,4.5568,4.5026,4.4265,4.347,4.342,4.2777,4.1288,4.1204,4.0849,4.0104,4.007,4.007,4.007,4.007,4.007,4.007,4.007,4.007,4.007,4.0171,4.0204,4.0204,4.0797,4.0703,4.0254,4.0685,4.0607,4.0204,4.0204,4.0814,4.1725,4.175,4.2162,4.2788,4.3321,4.3497,4.3497,4.3497,4.3975,4.4709,4.5516,4.6397,4.7297,4.8086,4.8306,4.8306,4.8306,4.8306,4.8306,4.8306,4.8379,4.8655,4.9426,4.8985,4.8912,5.049,5.0068,4.9499,4.9682,4.9022,4.8568,4.8978,4.9259,4.9589,5.0043,5.0068,4.9924,4.9589,4.9561,4.9561,4.9561,4.9589,5.0253,5.1662,5.143,5.1733,5.2855,5.2183,5.1433,5.0702,5.0702,5.1048,5.176,5.1875,5.1914,5.1952,5.3587,5.4414,0.0,0.0,0.0,0.0,0.0,0.0,3.9986,0.0,4.007,0.0,0.0,0.0,0.0,0.0,0.0,0.0,4.0595,4.0899,4.0595,4.0815,4.1728,4.3673,0.0,0.0,4.3656,4.4248,4.4079,4.2844,4.3589,4.3436,4.1914,4.183,4.1491,4.0747,4.0307,4.007,4.007,4.007,4.007,4.007,4.007,4.007,4.007,4.007,4.007,4.0121,4.0319,4.0336,4.0121,4.0319,4.0286,4.007,4.007,4.0594,4.1313,4.1664,4.2162,4.2788,4.3321,4.3497,4.3497,4.3497,4.436,4.5461,4.5792,4.6801,4.7884,4.8214,4.8306,4.8306,4.8306,4.8306,4.8306,4.8306,4.8691,4.9132,4.9499,4.9297,4.9389,5.0563,4.9738,4.9044,4.9769,4.9584,4.9485,4.9883,4.9892,4.9924,5.0068,5.0092,4.9949,4.9532,4.9719,4.9936,5.0183,5.0392,5.1059,5.2226,5.2372,5.2423,5.2432,5.2587,5.226,5.1414,5.1895,5.2318,5.2664,5.3164,5.3414,5.3433,5.4164,5.4741,3.7335,0.0,0.0,0.0,0.0,0.0,0.0,0.0,0.0,0.0,0.0,0.0,0.0,0.0,4.007,4.007,0.0,4.007,4.007,4.007,4.0764,4.2591,4.2506,0.0,0.0,4.3301,4.3487,4.2371,4.3318,4.3369,4.2066,4.1999,4.166,4.0916,4.0358,4.007,4.007,4.007,4.007,4.007,4.007,4.007,4.007,4.007,4.007,4.007,4.007,4.007,4.007,4.007,4.007,4.007,4.007,4.0319,4.075,4.1358,4.1853,4.2302,4.2865,4.316,4.3286,4.3286,4.4455,4.5902,4.5902,4.7021,4.8306,4.8306,4.8306,4.8306,4.8306,4.8306,4.8306,4.8306,4.8783,4.9224,4.9224,4.9224,4.9407,4.9994,4.9132,4.8605,4.9594,4.9756,4.994,5.0449,5.018,4.9993,5.0092,5.0209,5.0115,4.9695,5.0137,5.0572,5.083,5.1058,5.1565,5.2532,5.3326,5.3325,5.2461,5.3161,5.3029,5.1933,5.276,5.3203,5.3203,5.4068,5.4607,5.4818,5.4818,5.5145,0.0,0.0,0.0,3.9513,0.0,0.0,0.0,0.0,3.9225,0.0,0.0,0.0,3.9952,4.007,4.007,0.0,0.0,0.0,0.0,4.007,4.0375,4.1187,4.188,4.2286,0.0,4.2337,4.2337,0.0,4.2337,4.2033,4.1288,4.1238,4.0899,4.0138,4.0087,4.007,4.007,4.007,4.007,4.007,4.007,4.007,4.007,4.007,4.007,4.007,4.007,4.007,4.007,4.007,4.007,4.007,4.007,4.0121,4.0204,4.075,4.0949,4.1041,4.1664,4.2244,4.275,4.275,4.4179,4.5902,4.5902,4.7021,4.8306,4.8306,4.8306,4.8306,4.8306,4.8306,4.8306,4.8306,4.8324,4.8343,4.8343,4.8343,4.8361,4.8379,4.8343,4.8439,4.8866,4.8934,4.9209,4.9987,4.9792,4.9664,5.0043,5.0494,5.0609,5.0123,5.085,5.1316,5.1299,5.1007,5.1339,5.2528,5.4151,5.4657,5.3772,5.4204,5.3645,5.1933,5.276,5.3203,5.3203,5.4068,5.4895,5.5665,5.5665,5.5684,0.0,0.0,3.779,3.8157,0.0,0.0,0.0,0.0,0.0,0.0,0.0,0.0,0.0,3.9662,3.9489,0.0,0.0,0.0,0.0,3.9662,3.9415,3.9664,4.0824,4.1373,0.0,0.0,0.0,0.0,4.1728,0.0,4.1238,4.1204,4.1085,4.0832,4.0341,4.007,4.007,4.007,4.007,4.007,4.007,4.007,4.007,4.007,4.007,4.007,4.007,4.007,4.007,4.007,4.007,4.007,4.007,4.007,4.0154,4.0703,4.0903,4.0995,4.1578,4.2542,4.3469,4.3469,4.4924,4.6709,4.6709,4.7462,4.8306,4.8306,4.8728,4.915,4.915,4.915,4.915,4.915,4.8728,4.8306,4.8306,4.8306,4.8306,4.8306,4.8513,4.8813,4.9234,4.9967,5.0306,4.9795,5.0282,5.0361,4.9412,5.0373,5.0875,5.0176,5.135,5.219,5.2082,5.2048,5.2401,5.3348,5.3989,5.4135,5.3803,5.476,5.4761,5.3645,5.4434,5.4857,5.4857,5.5145,5.5434,5.5703,5.5703,5.5703,3.7756,3.7596,0.0,3.7749,3.8017,0.0,3.8537,0.0,3.8991,0.0,0.0,0.0,0.0,0.0,0.0,0.0,0.0,0.0,0.0,3.8978,3.8635,3.8854,3.9801,4.0199,3.9713,4.0761,4.1102,4.0155,4.0967,4.1288,0.0,4.0798,4.0798,4.0798,4.0341,4.007,4.007,4.007,4.007,4.007,4.007,4.007,4.007,4.007,4.007,4.007,4.007,4.007,4.007,4.007,4.007,4.007,4.007,4.007,4.0121,4.0497,4.0625,4.0655,4.1059,4.2106,4.3298,4.3507,4.5052,4.6809,4.7019,4.7682,4.8306,4.8306,4.893,4.9517,4.9205,4.9352,4.9499,4.9205,4.871,4.8306,4.8306,4.8545,4.8765,4.8765,4.9196,4.9705,5.0065,5.1051,5.1396,5.0306,5.0919,5.1102,4.993,5.0917,5.1506,5.086,5.2137,5.2962,5.2771,5.2807,5.3106,5.374,5.4006,5.4153,5.4268,5.5182,5.5453,5.4934,5.5434,5.5703,5.5703,5.5703,5.5703,5.5703,5.5703,5.5703]}]]